GFSNGP_500_spd_015.txt.gz
Wind_Speed
32 32 32 31 33 37 39 41 42 38 37 39 40 41 43 44 48 52 56 59 62 66 69 70 72 74 77 80 80 79 78 78 80 83 86 90 94 91 85 75 59 52 49 48
35 37 34 28 31 35 37 38 38 41 40 42 44 47 49 51 53 55 59 63 67 69 70 71 76 79 79 78 78 78 81 80 84 88 91 97 95 71 62 54 49 49 50 48
39 37 34 30 31 35 36 36 38 41 43 44 46 49 52 54 57 62 65 70 71 71 74 78 82 82 79 78 79 78 80 87 94 95 90 84 67 56 51 52 51 48 47 46
45 41 35 24 32 36 38 35 38 40 42 45 48 51 55 58 64 68 74 73 71 71 73 80 86 82 82 84 82 81 87 87 91 82 68 61 54 52 53 51 49 49 51 52
46 45 38 19 28 32 35 34 38 41 43 47 53 58 59 64 68 72 75 73 72 75 75 90 89 87 84 85 86 88 87 88 75 63 54 49 52 51 50 52 53 55 56 57
41 42 37 29 34 35 37 39 44 47 52 57 62 65 68 72 76 79 78 77 76 75 87 91 87 84 84 83 85 88 83 68 59 48 46 50 50 51 53 56 57 57 55 54
36 36 31 34 37 39 44 49 53 55 59 64 67 71 72 75 75 73 71 75 79 86 90 86 81 79 83 85 83 77 65 58 49 47 50 50 52 54 56 57 54 52 50 48
34 32 34 38 41 45 49 53 56 58 62 66 70 76 77 77 74 68 71 78 82 81 80 76 76 79 78 78 72 62 57 47 47 48 48 51 53 56 56 54 50 47 44 42
36 36 38 43 46 49 52 56 61 66 69 73 75 75 74 75 73 73 74 76 77 76 73 72 76 75 75 70 61 58 49 46 47 46 49 51 54 56 53 50 47 43 40 41
42 39 45 48 51 53 58 63 68 66 69 75 77 75 74 74 75 74 75 76 75 72 72 75 73 73 70 59 56 49 44 45 44 46 49 51 54 54 50 47 44 41 41 36
43 44 50 51 55 58 64 67 70 71 75 77 77 76 77 75 76 78 78 77 75 74 75 72 71 68 59 55 52 43 43 42 43 46 47 50 51 49 48 46 42 38 34 31
51 54 58 60 63 67 70 75 76 75 74 74 77 76 76 78 80 79 78 75 73 73 72 70 67 59 55 53 44 40 39 39 42 44 45 48 47 45 43 40 38 36 33 26
56 60 62 66 69 71 76 78 76 74 75 75 75 80 81 81 79 76 73 74 74 72 70 66 60 58 56 45 36 36 35 38 41 40 43 45 45 41 35 36 39 33 28 23
58 62 65 69 72 75 76 73 73 74 76 79 78 78 78 77 72 73 73 72 70 68 65 63 61 55 42 32 32 30 31 36 38 38 41 43 42 36 34 35 33 30 27 24
63 67 71 73 73 73 71 70 73 74 74 75 76 75 74 72 71 71 70 69 67 67 65 58 48 37 27 27 26 25 30 35 37 36 39 40 39 34 33 34 33 28 26 20
67 69 70 70 67 67 71 72 72 73 74 74 73 73 73 72 71 69 68 68 67 61 50 39 30 22 22 23 22 23 29 34 37 36 38 38 37 33 31 32 32 28 24 16
66 66 65 65 68 70 71 72 74 77 77 73 72 72 72 70 67 68 68 64 55 50 37 25 17 18 20 21 19 24 30 34 35 35 36 36 35 33 30 30 30 27 22 13
65 66 69 70 71 72 74 76 76 73 72 73 72 70 67 67 68 65 55 51 49 33 21 14 16 17 20 18 19 24 30 33 33 34 35 36 33 32 30 29 28 27 23 14
67 69 70 72 73 75 76 74 73 72 72 71 68 66 65 65 56 47 45 44 32 19 14 16 15 18 20 17 20 25 30 33 32 33 34 35 33 30 30 29 27 25 23 18
67 70 72 73 73 73 72 71 72 70 68 67 66 65 60 46 42 40 38 29 20 15 17 17 17 20 20 18 21 25 30 32 32 32 34 35 33 29 28 29 28 24 22 20
69 70 71 71 69 68 68 68 68 65 64 65 63 55 42 36 38 35 28 24 19 18 19 18 20 21 20 20 23 27 30 31 31 32 34 35 33 29 28 27 28 26 23 20
69 68 65 65 66 64 63 63 63 64 62 58 54 45 36 34 35 30 26 21 20 20 19 20 22 21 20 22 24 28 30 29 30 32 35 35 32 29 28 27 26 27 24 21
63 61 61 62 62 60 59 61 62 57 53 52 45 39 36 32 31 27 22 20 19 20 21 22 21 20 22 23 26 28 27 27 30 33 36 34 31 29 28 27 26 27 27 22
58 59 59 58 57 58 58 57 52 49 50 40 37 36 32 27 26 22 19 19 21 22 21 22 22 24 25 26 27 25 25 26 30 34 35 33 30 28 28 28 27 29 28 23
58 57 55 54 53 50 50 50 47 45 38 32 34 34 30 26 25 22 21 22 24 23 23 22 24 24 25 25 23 23 24 28 31 34 36 34 31 29 28 29 28 29 28 24
56 53 51 48 45 46 47 47 46 41 34 29 30 32 30 27 25 24 23 23 23 23 23 24 23 23 24 23 22 23 26 29 32 34 36 36 33 31 29 29 29 30 28 24
51 49 46 41 41 43 44 44 43 39 35 33 33 33 31 28 24 24 24 25 23 23 23 22 23 24 22 22 23 26 28 31 34 35 36 38 35 31 30 29 30 29 28 25

GFSNGP_500_spd_018.txt.gz
Wind_Speed
31 32 31 28 30 32 32 33 36 32 31 35 34 36 39 41 44 49 53 57 61 64 68 72 76 77 75 74 77 78 87 94 91 88 87 86 86 85 74 65 58 52 51 52
33 35 34 29 31 31 33 35 35 34 33 33 37 38 41 46 50 54 59 62 67 72 76 79 79 77 76 75 76 86 94 93 91 88 88 84 78 69 61 54 51 54 52 50
39 41 34 30 28 28 28 31 32 33 35 37 40 43 47 53 56 60 64 68 72 78 80 80 77 74 76 81 88 90 90 88 86 86 82 73 63 57 51 51 52 51 52 54
48 46 33 30 29 26 23 23 28 31 34 36 42 47 52 57 61 65 68 72 77 78 78 78 73 76 81 86 85 87 84 83 82 78 68 60 52 49 50 51 51 53 55 57
48 43 30 26 29 26 26 23 28 33 37 43 47 51 57 60 63 68 73 76 75 76 78 77 78 79 80 82 83 81 81 78 75 65 60 51 48 49 49 51 53 56 58 57
45 42 37 31 29 30 31 34 36 40 44 48 53 61 65 68 72 75 77 77 76 76 77 78 78 79 79 78 75 76 75 72 64 61 54 48 48 48 50 52 55 57 56 53
42 40 33 34 35 38 39 43 46 50 54 58 62 67 71 77 78 80 80 78 78 79 78 79 78 78 75 73 74 73 71 64 58 57 49 48 47 50 51 54 56 56 53 50
40 36 35 36 40 43 46 48 51 54 58 62 66 71 75 76 73 74 77 77 78 78 77 78 78 76 72 73 73 70 65 58 56 50 47 46 48 50 51 55 56 53 48 46
37 30 37 41 46 46 50 53 56 58 63 67 73 77 78 76 74 75 76 78 78 79 79 78 76 74 74 72 70 65 58 57 52 46 44 45 47 48 52 55 53 46 42 40
39 36 42 46 49 51 55 56 59 63 68 73 75 74 76 76 76 78 78 80 81 80 78 76 75 75 74 70 64 59 58 52 42 41 40 44 45 47 51 52 45 41 39 37
43 43 46 49 52 54 56 60 64 69 74 76 78 78 76 76 78 79 81 82 82 80 78 76 74 71 68 65 62 60 52 39 36 34 39 42 42 45 49 47 40 38 37 32
48 51 54 57 58 59 63 68 70 73 76 77 76 75 76 77 80 81 80 80 78 75 74 72 69 68 67 64 58 46 32 32 29 32 37 39 40 44 46 41 39 38 36 32
51 56 58 59 61 64 67 70 73 75 75 74 74 76 79 80 80 79 77 77 75 72 71 69 69 66 58 47 36 25 26 26 26 32 37 38 39 42 42 38 36 37 36 33
55 59 61 62 65 68 70 72 73 73 73 74 74 75 78 77 75 74 74 74 72 70 70 68 61 52 43 31 20 21 25 21 26 32 36 37 38 40 39 36 34 36 35 31
58 60 63 66 67 68 70 70 71 71 72 73 75 78 77 75 75 73 72 71 69 68 63 55 51 39 26 17 17 23 19 21 27 32 35 36 36 38 37 35 32 32 34 28
61 63 64 65 66 67 68 69 69 71 73 75 78 76 75 75 73 71 69 68 64 54 50 47 35 22 15 16 20 20 17 21 27 32 34 34 35 37 36 34 33 29 30 27
61 61 63 65 64 64 66 68 71 73 76 77 75 75 73 71 68 67 65 56 46 44 41 30 18 15 18 17 19 18 18 23 28 33 33 33 35 37 36 33 32 30 27 26
60 63 63 63 64 66 68 71 74 75 74 75 74 71 68 67 66 61 50 40 40 36 28 19 15 19 18 19 20 19 20 24 29 32 32 33 35 36 36 33 31 30 26 24
64 64 63 65 67 69 70 72 74 74 73 72 69 66 66 64 57 49 38 36 34 27 22 17 19 19 21 21 19 19 21 25 29 31 31 33 35 36 35 32 31 28 28 24
62 62 65 66 67 69 70 70 72 71 69 67 64 64 59 52 49 37 33 33 28 24 19 18 19 20 23 22 19 20 23 26 29 30 30 33 36 37 34 31 30 29 27 26
63 64 65 66 67 66 67 68 68 66 63 62 61 54 50 48 39 34 31 28 25 20 18 19 20 21 25 22 20 22 24 26 29 28 29 32 36 36 33 30 29 29 27 27
63 64 64 66 66 63 64 64 63 61 59 57 52 48 47 38 35 31 27 27 21 19 20 20 20 22 24 21 23 24 25 27 26 27 28 32 36 37 34 30 29 29 28 29
63 64 63 62 61 61 60 59 56 55 53 51 48 45 40 35 33 29 25 25 22 20 21 22 21 23 22 23 24 26 25 25 25 26 30 33 35 37 36 32 29 28 28 30
61 59 58 59 59 59 56 51 49 47 47 46 45 43 40 34 33 32 27 25 23 23 24 24 23 23 24 24 25 25 23 23 24 28 31 33 36 37 39 35 30 28 28 29
55 55 57 58 58 53 48 46 43 43 45 44 43 42 39 36 34 33 30 26 25 25 24 24 24 24 25 24 24 22 22 23 25 28 31 33 36 38 40 37 31 29 28 28
55 56 56 55 49 46 44 44 42 43 45 43 41 40 37 34 31 29 29 29 26 25 26 24 23 24 24 24 22 21 22 25 27 28 31 34 36 37 41 39 32 29 28 28
54 54 51 47 45 43 43 43 44 43 43 42 39 38 36 32 29 27 27 27 26 25 24 23 23 24 24 23 22 23 25 26 27 30 34 36 37 37 42 39 32 29 28 28

GFSNGP_500_spd_021.txt.gz
Wind_Speed
25 30 35 37 37 36 34 33 34 26 26 27 29 29 31 36 38 43 49 53 56 62 66 70 75 78 81 82 79 78 79 80 81 82 84 84 83 82 78 67 60 53 50 51
26 34 38 38 36 33 32 30 28 27 25 25 26 32 32 38 42 47 51 57 62 67 73 77 80 84 83 80 79 79 80 81 83 83 81 81 79 75 64 60 53 51 52 52
32 38 41 40 33 32 28 30 27 26 28 31 34 39 43 48 51 55 60 65 70 75 79 80 81 85 83 81 82 82 83 84 81 78 78 77 74 65 59 55 51 52 53 54
39 44 42 40 35 30 28 27 27 32 34 37 41 45 48 53 56 62 67 72 76 80 81 80 80 79 81 82 82 83 84 82 76 76 77 73 66 59 56 52 51 53 54 55
43 46 41 35 32 30 26 23 29 32 37 41 44 48 52 56 61 67 72 77 81 81 80 77 78 80 81 82 83 81 77 75 75 76 71 64 58 57 52 50 51 53 54 58
45 47 41 36 37 29 32 32 34 38 41 46 51 55 57 61 67 72 78 81 83 84 81 82 82 82 84 84 82 79 79 75 74 70 64 57 58 53 49 49 51 51 55 58
45 44 37 35 33 33 33 37 43 46 49 53 57 61 66 71 75 79 82 84 82 83 83 81 83 83 82 81 77 77 77 73 69 65 62 58 51 46 45 48 50 52 55 51
46 43 42 39 37 38 39 42 47 50 55 59 62 67 72 76 80 82 82 81 81 81 83 82 81 80 79 77 75 74 70 68 66 61 57 52 43 42 45 47 48 52 51 44
48 41 40 42 43 44 45 48 52 57 60 62 66 71 74 77 78 79 79 79 80 82 84 83 81 80 78 76 72 70 68 67 63 55 45 37 38 39 43 43 47 50 46 42
48 38 42 42 42 46 48 53 56 58 62 67 71 74 75 77 78 78 78 81 83 84 84 83 81 77 74 73 71 69 62 54 46 36 29 31 32 39 41 42 46 46 43 41
48 39 41 44 46 50 53 58 60 63 67 70 72 74 77 78 78 79 81 83 83 83 82 79 77 73 73 71 64 54 47 38 27 24 27 26 33 38 39 41 44 43 42 40
45 45 44 49 51 54 58 60 63 66 70 71 74 76 76 76 78 80 82 83 83 82 79 76 73 72 67 58 54 46 31 21 20 25 21 28 34 37 37 40 42 40 39 38
45 48 50 53 55 57 59 62 67 70 71 73 75 76 76 79 79 81 82 82 80 76 72 72 69 61 54 52 38 26 19 18 23 18 24 30 34 36 37 40 40 37 37 36
49 50 52 55 58 60 63 67 69 70 72 73 74 75 77 78 79 79 78 77 74 71 70 66 55 50 46 33 22 18 19 23 19 20 26 31 35 35 37 39 38 37 35 33
51 53 57 60 62 65 68 69 70 71 72 71 74 75 77 78 78 77 75 73 71 68 61 50 45 41 30 20 19 20 23 22 19 23 28 32 35 35 37 39 37 34 34 33
55 58 62 63 65 67 68 69 69 69 70 72 73 75 76 75 75 74 71 70 63 56 48 41 37 28 20 21 21 22 23 22 22 24 29 33 35 35 37 38 36 32 31 31
59 62 63 64 66 66 66 66 67 69 70 72 74 75 74 73 72 69 67 60 56 50 38 35 29 21 19 20 22 25 25 23 23 26 29 32 33 34 37 38 35 31 31 29
63 64 66 65 64 65 65 67 69 70 71 73 74 74 72 68 67 64 57 55 46 37 34 29 25 20 21 21 23 26 24 23 24 27 29 32 32 33 37 38 34 30 29 27
67 67 65 65 65 65 66 68 70 71 71 71 70 68 66 63 61 55 52 44 38 32 28 26 22 20 21 22 24 26 24 23 25 27 30 30 30 33 36 38 34 30 28 28
66 65 65 64 64 65 67 69 69 69 68 68 67 64 60 58 54 49 44 39 35 29 27 22 20 21 23 23 24 26 24 25 27 28 29 29 30 33 36 37 36 31 28 27
66 63 62 62 64 66 67 67 67 65 63 64 62 58 57 53 49 45 40 35 33 28 25 21 21 22 23 23 25 25 25 27 28 28 27 27 30 33 35 36 38 33 29 27
60 61 62 64 64 63 64 64 64 62 61 59 56 54 53 50 46 42 40 36 34 29 26 23 23 24 24 25 25 24 26 27 27 27 26 27 30 33 35 37 39 38 31 28
61 62 63 64 64 62 60 61 60 59 56 53 52 51 50 49 46 42 38 35 32 29 26 25 25 25 24 25 25 26 27 26 26 25 24 27 30 31 34 37 39 41 34 29
62 62 62 61 60 59 58 58 57 55 52 50 50 48 48 47 43 41 38 35 32 30 27 26 26 25 25 26 26 26 25 26 24 24 26 27 28 31 34 37 38 43 37 30
59 58 57 57 57 57 57 55 53 51 49 48 47 47 47 46 41 37 35 33 31 29 28 28 27 26 25 25 24 25 26 25 24 26 26 27 29 33 35 38 39 42 40 32
55 55 56 55 55 55 54 52 49 47 47 46 45 44 41 39 36 34 33 31 30 30 30 28 27 25 25 24 25 27 27 26 26 26 27 28 30 33 36 38 39 40 41 34
54 54 53 52 52 51 49 46 43 42 40 40 38 37 35 33 32 31 30 29 28 28 29 28 27 27 27 26 28 29 28 28 29 28 29 30 33 36 37 38 40 39 42 37

GFSNGP_500_spd_024.txt.gz
Wind_Speed
18 22 27 32 36 36 32 30 30 21 23 21 25 25 29 32 34 40 44 48 51 56 63 69 75 79 82 85 85 85 83 83 83 86 85 80 80 78 76 75 70 61 56 54
20 23 29 35 38 36 33 30 26 27 22 22 27 28 31 36 41 44 50 53 58 64 71 77 81 84 87 89 86 87 87 86 87 87 86 79 78 75 72 67 60 55 54 51
24 27 29 37 38 37 34 33 31 26 24 27 31 33 39 42 47 53 56 60 66 71 76 79 83 85 85 87 85 85 87 89 88 89 81 74 72 69 64 60 57 53 48 47
30 32 32 37 39 39 33 31 29 31 30 35 38 41 45 48 51 55 60 65 70 75 79 82 83 86 85 84 86 88 88 88 82 83 77 72 73 66 61 56 51 45 44 48
35 37 37 37 42 34 36 28 31 28 32 36 40 42 47 53 58 62 66 70 75 78 81 82 87 89 87 87 87 86 84 80 70 60 64 68 67 66 59 47 41 41 47 49
37 41 42 44 47 44 41 36 35 33 35 38 42 46 49 53 58 63 69 73 76 80 85 87 86 86 87 87 87 84 82 74 68 65 65 65 59 54 50 39 40 42 46 48
40 42 43 46 48 47 45 40 40 39 41 44 47 51 55 60 64 70 75 78 81 84 84 83 84 86 88 88 84 78 73 70 68 65 50 46 49 43 36 37 39 43 43 47
42 43 45 49 49 50 45 40 41 42 46 49 53 57 61 65 71 74 77 80 82 82 83 84 87 90 91 86 80 74 70 67 61 52 47 43 33 26 30 32 38 40 42 45
44 43 46 51 51 51 46 44 47 49 52 54 59 62 66 71 74 76 79 81 80 82 84 86 89 91 92 85 77 73 66 57 53 47 36 25 23 25 28 35 38 39 43 42
48 44 47 51 50 50 47 47 50 52 55 59 62 66 70 73 74 78 80 80 81 83 86 89 91 88 80 76 71 61 55 52 38 27 18 22 21 24 31 35 37 39 42 40
45 46 52 54 51 49 49 50 52 55 59 62 64 69 72 74 77 78 79 82 84 86 89 89 85 78 73 65 55 52 47 32 24 17 22 18 21 26 33 35 36 39 40 38
47 51 52 52 49 49 50 52 55 59 62 63 68 71 73 74 77 79 82 82 84 87 87 83 77 68 61 51 48 41 30 22 19 23 21 18 24 30 34 34 36 38 38 36
50 53 53 50 48 49 53 56 60 63 64 68 70 72 74 76 77 78 79 81 85 86 82 76 68 59 51 44 39 28 23 22 23 24 20 21 27 31 33 33 36 38 35 32
54 53 50 48 50 53 56 60 62 64 67 70 72 74 76 76 77 78 79 82 82 78 74 68 60 51 42 38 30 22 23 23 25 24 22 25 29 32 33 33 37 40 34 30
52 50 49 52 55 58 61 62 64 67 69 71 73 74 75 76 76 76 78 80 77 71 66 60 51 41 38 33 25 22 24 25 26 25 24 26 29 33 32 34 38 40 35 29
51 51 53 55 59 62 64 67 68 69 70 71 72 73 75 75 75 76 77 74 68 62 58 51 45 38 34 30 24 22 24 26 26 25 25 27 29 32 31 33 37 39 34 29
55 58 60 63 65 67 68 70 68 68 68 70 71 72 72 72 74 74 70 64 60 55 52 46 40 35 32 28 23 23 24 26 26 24 26 28 30 31 30 33 36 39 36 29
59 62 65 67 69 68 68 67 66 66 67 69 69 70 71 73 72 68 62 57 53 49 46 42 37 34 30 27 24 24 26 27 26 25 26 29 30 29 29 33 36 37 37 31
62 64 66 68 67 66 65 65 65 66 68 69 67 68 69 69 66 61 56 52 51 45 43 38 34 31 28 25 24 25 26 27 25 25 27 29 29 27 29 33 35 36 37 34
68 68 68 66 64 63 63 64 66 67 68 67 67 68 67 64 59 55 52 49 49 45 41 37 34 30 28 26 25 25 26 26 25 26 27 28 26 26 29 31 33 35 37 37
68 66 64 62 61 62 63 65 66 66 66 66 67 66 64 58 55 53 51 48 46 43 39 35 33 30 27 27 27 27 27 26 26 27 27 26 25 26 28 29 32 35 36 39
64 62 60 59 60 61 63 65 65 64 64 64 65 63 60 56 53 52 50 49 44 40 37 33 31 29 28 28 28 27 26 27 27 26 26 25 24 26 27 29 30 33 36 39
59 58 60 61 62 63 63 63 64 64 63 63 61 59 57 55 52 50 47 45 41 38 35 32 29 28 26 26 26 27 27 26 25 26 26 25 26 26 26 28 30 33 35 38
57 59 60 61 62 61 61 62 63 61 59 57 56 54 52 50 47 46 43 40 37 35 33 31 29 29 28 27 25 24 26 25 25 27 27 27 27 27 28 28 31 34 36 37
58 59 60 60 60 60 60 59 59 58 57 53 50 47 45 44 44 40 38 35 34 31 31 30 30 30 30 28 27 27 25 25 26 29 29 29 30 29 30 31 32 34 36 37
56 57 56 56 57 57 57 58 57 54 49 45 42 40 40 38 38 35 34 32 28 27 29 29 29 30 30 29 28 27 27 27 29 30 30 31 32 32 32 33 34 35 36 38
53 54 55 55 55 55 56 54 51 47 44 41 38 37 37 36 35 32 31 30 29 30 31 31 32 32 32 32 31 29 29 30 31 31 32 33 34 34 34 35 35 37 38 39

GFSNGP_500_spd_027.txt.gz
Wind_Speed
14 17 18 21 24 27 30 33 35 30 28 32 28 28 26 28 29 33 37 42 46 50 55 59 64 70 75 79 82 85 86 90 91 91 93 96 92 83 75 71 67 68 64 59
17 19 21 23 26 29 29 32 32 32 28 34 32 25 26 30 34 38 41 45 49 54 58 64 69 73 78 83 87 89 91 93 93 93 93 85 74 65 59 62 70 67 61 55
19 22 25 27 28 31 34 35 37 35 34 31 27 28 31 34 37 41 45 49 54 59 66 71 76 81 84 87 89 91 92 92 93 90 84 74 65 52 56 64 67 59 48 42
23 26 28 31 33 33 36 39 38 37 36 36 33 34 35 38 41 46 50 55 60 66 71 76 80 82 83 86 87 87 90 92 90 86 78 69 64 59 55 49 53 55 38 37
28 30 31 34 36 34 36 39 38 38 40 41 39 39 41 45 49 53 56 61 66 69 73 76 80 84 89 89 87 89 90 91 86 79 70 64 57 50 39 45 50 33 34 38
32 35 38 41 41 42 43 41 41 41 40 36 37 39 43 46 49 53 58 63 67 71 75 80 83 86 88 87 87 90 92 88 81 72 61 52 49 42 39 36 28 28 35 40
35 38 39 40 44 44 43 45 44 44 42 40 40 43 46 49 54 58 62 67 71 75 78 83 85 84 85 87 91 93 89 78 67 57 55 49 40 26 25 23 24 31 35 38
38 40 43 45 47 44 46 47 48 47 43 42 43 46 49 54 58 61 66 69 73 78 81 82 83 84 87 90 91 87 76 64 54 51 41 30 21 18 19 19 27 32 35 37
40 41 44 48 48 46 48 50 50 49 45 44 47 50 55 59 62 66 69 72 76 79 80 82 83 85 89 89 85 73 62 52 47 37 26 19 22 18 20 26 31 33 35 37
44 45 50 52 50 50 51 52 53 49 46 48 52 56 59 63 66 68 71 74 77 79 80 81 81 85 88 83 72 62 50 44 35 25 20 24 21 20 24 29 33 33 36 39
42 44 52 49 51 51 52 54 52 48 49 53 56 59 63 66 69 71 73 75 77 78 79 80 82 84 82 74 62 50 41 34 24 21 24 25 22 22 27 31 33 33 37 40
46 47 46 48 51 52 55 54 51 50 54 56 60 63 66 69 71 73 74 75 76 78 79 79 81 80 74 63 52 41 35 26 22 24 25 24 22 25 29 33 33 34 38 41
48 46 48 51 51 55 55 53 51 54 57 60 65 67 70 72 73 73 74 75 76 78 79 79 77 71 63 54 45 36 31 24 23 25 25 23 23 25 28 33 33 34 38 40
47 48 50 52 54 55 53 54 57 60 64 67 69 70 72 72 72 72 74 76 76 77 77 76 70 63 55 48 40 34 28 23 23 26 25 23 23 26 28 31 31 34 37 39
48 51 53 54 54 53 55 59 62 65 67 69 70 72 73 71 70 73 75 76 75 75 74 68 61 56 50 43 38 33 27 24 23 25 25 23 24 26 29 31 31 34 38 39
52 55 55 54 51 53 57 61 64 68 70 72 72 72 70 69 71 73 74 74 74 72 66 60 55 51 46 41 36 31 26 24 25 26 27 24 24 26 29 29 29 33 36 39
53 53 54 56 58 60 62 65 68 70 71 71 70 68 68 70 71 72 72 72 70 66 60 55 51 47 43 39 34 29 27 25 25 26 27 25 25 27 27 27 28 31 34 37
47 52 56 59 62 65 67 68 70 70 69 68 66 67 69 70 71 71 71 68 66 62 56 51 48 45 41 37 32 28 26 25 26 26 26 25 25 26 26 25 27 30 32 34
53 57 61 65 67 68 68 70 70 67 65 65 66 67 69 71 70 70 68 66 62 57 51 48 46 42 38 34 30 28 27 27 26 26 26 26 26 25 24 24 26 28 30 32
60 63 66 69 70 67 68 68 65 63 65 66 67 68 69 69 69 67 63 60 57 53 48 47 42 38 34 31 29 28 27 26 26 26 26 26 24 25 24 23 25 26 28 29
65 67 69 66 66 66 64 62 62 63 64 66 68 68 68 66 65 63 59 55 51 48 46 41 37 35 31 27 27 27 28 27 26 26 25 24 24 25 23 24 24 26 26 29
65 63 65 65 62 58 59 61 63 64 65 66 67 66 65 62 60 56 53 50 45 44 40 35 33 32 30 27 25 24 25 25 25 24 23 23 24 24 24 24 25 26 27 29
63 63 61 57 56 57 59 62 63 63 63 64 64 62 60 56 52 49 45 44 43 40 37 34 31 30 28 27 28 27 27 25 24 24 24 24 25 25 25 26 27 27 28 29
54 54 56 58 59 60 59 60 61 61 61 60 58 54 51 49 46 44 42 41 39 35 32 28 26 27 26 27 28 28 28 28 27 25 24 25 26 26 27 29 29 29 30 31
58 57 57 57 57 57 57 58 58 58 58 56 52 48 48 48 46 41 40 40 39 34 30 28 28 29 29 29 29 29 29 29 29 29 28 28 28 28 29 30 31 31 31 32
55 56 55 55 56 57 56 57 56 55 54 52 50 47 46 46 44 41 41 41 39 38 36 35 34 35 35 35 35 34 34 33 33 32 31 30 30 30 30 31 32 33 32 32
52 53 54 53 53 56 57 56 55 55 55 54 51 48 45 44 42 40 40 39 38 39 39 39 39 39 40 40 39 38 38 38 36 35 34 33 32 31 32 33 34 34 34 35

GFSNGP_500_spd_030.txt.gz
Wind_Speed
12 12 13 16 18 21 23 25 26 26 29 26 22 24 26 26 29 33 35 37 40 44 48 51 56 60 64 68 72 75 80 86 91 94 95 95 97 96 90 76 70 55 53 58
15 16 17 19 21 23 25 26 29 31 32 32 32 31 31 32 33 34 35 39 43 47 50 54 59 63 67 71 75 82 86 89 91 91 94 97 96 90 76 66 51 55 55 58
19 21 22 23 24 26 29 30 29 33 34 35 34 35 34 34 34 36 39 43 46 49 54 57 62 67 71 76 81 83 86 89 90 91 94 93 85 74 62 52 46 47 45 44
23 25 26 28 27 29 32 31 33 36 36 37 38 39 37 36 36 39 42 45 49 54 58 61 66 72 76 78 82 84 87 87 88 90 90 84 73 63 58 50 41 36 37 40
27 28 29 30 31 33 33 34 37 38 40 39 41 42 41 40 40 43 46 48 53 58 61 65 69 72 76 81 85 85 85 86 88 91 87 73 61 56 46 34 24 24 25 28
29 31 33 33 34 33 36 36 38 40 40 40 42 44 44 43 44 46 49 54 58 62 65 69 72 75 78 81 82 83 84 87 90 86 73 58 52 38 26 18 20 22 29 33
32 34 34 37 38 38 38 41 45 45 44 44 45 46 46 45 46 49 54 58 62 65 69 73 75 77 80 82 84 85 86 89 84 72 56 48 37 23 25 24 22 26 31 34
35 36 38 40 40 39 40 44 47 47 46 47 48 49 48 46 49 54 58 62 66 69 73 75 79 80 81 81 82 82 85 83 72 56 46 36 24 27 26 24 27 31 35 36
36 38 39 42 42 43 45 51 49 48 49 51 53 53 50 50 54 59 63 68 70 73 76 79 80 79 80 80 81 81 82 74 60 46 37 26 26 28 25 25 29 33 35 36
40 39 40 41 45 46 51 52 50 50 52 53 55 52 52 55 60 65 68 72 73 76 78 79 77 78 79 80 80 80 72 62 50 40 29 26 27 28 25 27 30 34 36 36
43 43 45 46 47 51 53 52 52 53 53 55 53 53 56 61 65 68 71 74 75 77 77 76 76 78 78 78 79 72 63 53 42 35 26 26 28 28 25 27 30 33 36 36
43 43 44 45 49 52 53 52 54 55 56 56 54 57 60 64 68 71 74 74 76 76 75 75 77 78 78 77 73 62 56 46 38 31 26 26 28 28 26 27 30 33 35 36
42 43 45 48 50 51 52 53 55 56 57 56 56 59 63 67 70 72 73 75 76 73 74 75 77 77 75 72 64 56 49 41 36 28 25 26 27 27 26 28 30 33 34 35
43 45 47 49 50 51 53 54 55 56 57 58 62 64 68 70 73 74 75 74 72 72 74 76 76 74 70 64 57 53 45 39 33 26 25 25 27 27 25 26 30 32 32 34
46 46 48 51 53 54 54 53 54 57 60 62 66 69 71 73 75 75 73 71 71 73 75 75 72 69 64 58 52 48 41 36 31 26 25 26 27 27 25 26 28 29 30 32
47 46 46 47 48 48 49 53 56 60 63 67 70 73 73 74 75 71 69 70 73 74 74 72 68 64 58 52 48 44 38 34 29 25 25 25 25 26 25 26 27 27 28 30
46 45 47 49 49 49 55 58 61 64 67 71 72 71 73 72 68 67 71 74 73 72 71 68 63 58 53 48 45 40 36 33 28 25 24 23 24 25 25 26 26 26 26 28
47 49 51 50 53 56 60 63 65 69 71 71 70 72 69 66 66 71 72 70 69 69 66 62 57 52 48 44 39 36 34 31 27 25 25 24 24 24 24 25 24 24 25 26
50 52 55 56 59 60 62 64 66 67 67 69 67 64 65 69 70 69 68 68 66 62 57 53 49 46 43 39 35 33 31 29 26 25 24 24 23 23 23 23 23 23 24 25
57 55 57 59 61 63 63 63 64 68 66 63 63 66 69 69 68 67 65 61 59 54 50 46 45 42 38 35 33 31 29 27 26 25 24 24 23 23 22 23 22 23 24 25
56 57 59 61 62 62 64 67 66 62 62 65 68 67 66 65 65 63 58 52 52 50 46 43 42 41 36 32 31 29 27 27 27 26 25 23 22 22 22 23 23 23 24 26
58 58 58 59 61 65 64 61 61 65 66 64 64 63 63 62 60 58 53 51 48 45 42 39 39 37 32 27 28 26 26 25 26 26 26 25 25 24 24 24 24 25 26 27
56 57 59 64 63 59 61 65 64 63 62 61 61 61 60 60 57 54 51 48 47 43 39 39 38 35 33 30 28 28 28 27 26 26 25 26 26 26 27 28 28 26 26 28
59 61 57 58 61 62 59 59 59 59 59 59 59 60 61 57 55 54 51 48 46 42 38 39 36 35 34 34 35 34 34 33 32 31 30 29 29 29 30 31 30 28 28 30
57 58 57 58 58 58 57 57 57 57 57 58 60 58 57 57 56 56 54 47 44 42 38 37 36 37 38 38 37 37 38 37 36 36 35 34 33 33 32 31 31 30 30 32
53 54 55 56 57 57 58 57 57 58 59 58 54 55 54 55 58 59 51 44 43 40 38 37 37 38 39 38 36 37 37 37 35 35 36 36 36 35 35 34 34 34 35 35
54 55 55 54 54 56 58 59 59 56 55 54 53 53 53 55 58 56 44 39 40 39 38 38 38 39 39 39 38 38 36 34 35 37 38 38 38 39 38 38 38 37 37 37

GFSNGP_500_spd_033.txt.gz
Wind_Speed
15 14 15 17 18 19 20 21 23 23 24 27 28 30 32 33 34 34 36 38 39 41 43 46 50 54 58 61 65 68 73 78 81 86 90 91 93 95 97 97 94 77 68 63
18 18 19 19 21 24 24 24 27 28 27 29 30 33 34 34 36 37 40 40 40 42 45 49 53 56 60 65 69 72 77 80 84 88 90 91 94 95 95 92 73 64 59 50
22 23 24 21 24 27 27 27 30 29 29 31 34 36 37 39 40 41 42 43 44 46 49 52 55 60 65 69 72 76 79 82 86 88 89 90 91 93 92 71 61 50 38 27
27 28 29 26 27 30 31 30 31 32 32 34 37 39 41 42 43 44 45 46 47 49 51 54 59 64 68 72 76 80 83 86 87 86 87 89 91 90 72 58 46 32 29 29
32 31 34 29 30 33 35 33 35 34 35 37 40 43 43 44 46 46 48 49 49 50 53 58 62 67 72 76 79 82 84 85 86 86 88 89 88 76 56 45 32 32 31 33
33 36 37 31 34 36 37 36 37 39 39 41 43 44 44 47 48 49 50 49 49 52 56 62 67 71 76 78 80 83 85 85 86 88 87 84 77 58 47 34 32 31 32 34
35 38 38 34 38 39 40 42 40 41 42 45 48 49 49 50 51 53 52 50 51 56 62 66 70 75 78 79 83 84 83 84 86 86 82 76 62 48 38 33 32 31 33 36
36 38 39 37 40 40 43 43 43 44 45 48 50 51 51 52 54 55 53 52 56 61 65 69 73 76 78 82 83 81 82 85 84 80 73 63 51 41 34 31 33 32 34 36
36 37 39 41 43 44 46 46 46 47 48 50 51 52 53 55 56 56 56 57 61 66 70 74 76 78 81 81 80 80 84 84 78 73 64 54 43 36 31 31 33 32 34 36
38 37 39 43 44 44 46 47 47 48 50 51 53 55 56 58 57 58 59 63 67 70 73 76 79 80 80 78 79 83 82 77 72 63 56 47 39 32 30 31 32 32 34 36
43 41 44 44 44 45 46 46 48 50 50 52 54 57 58 58 58 60 64 66 71 74 76 78 80 79 76 79 82 81 76 71 64 57 50 43 35 30 29 30 30 31 33 35
43 43 45 44 44 45 47 49 49 50 52 54 57 58 58 57 60 64 67 71 73 74 76 78 77 75 78 80 79 75 70 64 59 52 45 40 33 28 28 28 30 30 32 34
42 41 43 44 46 48 49 49 49 51 54 56 56 55 56 60 64 68 71 73 74 75 77 76 73 77 79 78 74 70 64 59 53 48 41 35 31 28 28 29 30 30 31 32
40 42 44 45 47 48 48 48 48 50 51 53 54 57 61 65 68 71 73 74 75 76 74 73 75 75 75 73 68 64 58 54 49 42 37 32 29 27 28 28 30 30 30 31
45 45 45 46 47 48 49 48 50 54 57 57 58 62 65 67 69 72 74 75 75 72 73 74 74 72 69 65 62 58 53 49 43 37 33 30 27 26 26 26 28 29 30 29
46 43 41 43 44 46 48 51 56 57 54 57 61 65 67 68 72 74 76 73 70 71 73 72 71 65 60 60 58 53 48 43 38 34 31 28 27 26 25 26 26 27 28 28
45 46 48 48 47 47 51 54 55 57 60 62 64 65 67 71 73 75 72 70 72 72 71 68 63 57 57 57 53 47 42 39 35 32 31 28 27 27 26 26 26 27 27 26
41 44 46 49 51 53 56 58 59 61 62 62 64 66 72 72 72 68 69 69 70 69 67 63 57 55 55 52 47 42 38 35 33 31 30 28 27 27 26 25 26 26 26 25
45 47 50 53 56 56 57 58 59 60 61 63 67 70 70 67 67 68 69 68 67 64 62 58 55 54 50 45 42 40 36 33 32 30 29 29 28 27 26 26 26 25 25 25
57 58 57 54 55 55 57 57 58 62 65 65 66 65 65 66 68 67 66 65 65 63 59 57 55 52 46 40 39 37 34 32 30 28 28 29 28 27 26 25 25 26 26 25
55 51 52 54 56 57 59 60 60 62 62 61 64 65 66 66 65 65 64 63 63 61 59 56 53 50 44 38 37 34 34 32 31 29 29 28 27 27 27 27 27 28 28 28
55 55 56 57 57 59 60 60 60 61 63 65 65 64 64 62 64 64 64 64 60 59 57 55 52 47 41 37 35 33 34 34 35 35 34 32 31 30 29 29 29 29 31 31
56 57 57 57 57 59 63 64 64 65 64 63 63 63 63 63 62 64 62 60 59 58 57 56 49 42 38 35 34 34 35 36 36 36 36 36 36 35 33 32 32 31 32 33
55 56 60 63 62 60 60 62 62 62 63 63 61 61 63 64 62 61 58 56 55 55 57 57 45 37 35 34 34 35 36 36 35 35 36 37 37 36 35 35 35 34 34 33
52 52 54 57 59 60 61 62 63 60 59 60 61 63 61 60 59 55 55 54 54 53 55 50 38 34 33 33 34 35 36 37 37 37 37 36 34 34 36 37 38 37 36 34
49 51 54 57 60 61 62 62 62 61 62 62 58 57 59 59 55 54 54 53 52 51 50 43 35 33 33 34 35 37 38 39 39 38 38 38 38 39 40 39 40 40 38 38
55 57 58 58 59 60 62 62 63 62 61 60 59 59 57 54 53 53 53 52 50 48 45 40 35 34 35 36 37 39 40 40 41 41 41 41 41 41 42 41 41 40 39 39

GFSNGP_500_spd_036.txt.gz
Wind_Speed
20 19 18 18 18 18 20 22 24 25 26 30 28 28 29 32 35 36 38 39 40 42 44 46 49 51 52 54 56 60 64 69 74 78 83 86 89 91 90 90 93 92 91 70
23 22 23 22 20 22 24 26 27 30 28 32 32 33 33 35 38 40 41 42 44 46 47 49 51 52 53 55 59 62 68 73 77 82 85 87 90 89 89 92 91 88 71 52
26 26 28 25 22 28 29 30 32 33 34 35 35 36 36 38 41 43 44 45 47 48 49 52 52 53 54 57 61 67 71 76 80 82 85 88 88 87 90 89 85 71 54 41
28 30 34 26 28 32 35 35 35 37 38 39 39 39 40 41 44 45 47 50 50 51 52 52 53 54 57 60 66 71 75 78 81 83 86 87 85 89 89 84 70 55 42 36
32 32 35 33 33 37 38 38 38 41 42 41 41 41 41 45 46 48 50 51 52 52 53 54 54 56 60 65 70 74 78 81 84 85 86 85 88 87 82 70 57 45 36 35
30 34 35 33 35 38 42 41 41 43 42 44 44 43 45 47 48 49 51 53 52 53 54 56 58 60 64 68 73 77 80 83 85 84 85 87 88 81 70 59 48 38 33 34
32 36 37 35 37 40 42 43 45 44 45 46 46 47 47 48 50 52 53 53 55 56 58 59 61 65 68 73 76 78 82 83 83 84 87 88 81 70 59 50 42 35 32 33
34 37 39 38 39 41 44 45 46 47 48 48 49 49 49 50 52 54 54 55 57 59 59 61 65 69 73 76 78 80 81 82 84 86 86 81 70 60 51 44 37 32 31 32
38 38 39 42 44 45 45 47 48 49 49 49 49 50 53 54 54 55 56 58 59 59 61 65 70 73 75 77 79 80 80 82 84 85 78 70 61 53 46 40 33 30 30 30
40 38 42 46 47 46 48 49 49 49 49 49 51 53 54 55 56 56 57 58 59 62 66 70 72 75 77 79 80 80 81 83 82 74 68 64 56 48 42 36 31 28 27 29
44 42 46 45 45 46 47 48 48 48 49 51 53 54 55 55 55 54 57 59 62 65 69 72 74 77 79 80 78 79 81 80 71 66 65 58 51 44 38 32 28 27 27 29
45 43 43 42 43 44 45 46 48 50 51 53 53 54 56 56 57 59 61 64 66 70 72 73 76 79 81 78 78 79 78 70 64 64 61 53 46 39 34 29 27 26 27 28
41 41 42 43 45 45 47 48 50 51 52 53 54 55 56 58 62 63 64 66 69 73 75 76 78 79 77 77 78 76 70 63 62 62 56 47 40 35 30 28 26 24 25 26
41 42 43 46 47 47 48 49 47 48 49 52 55 56 58 62 64 63 65 73 73 76 77 78 78 76 77 77 74 68 63 60 60 57 49 41 36 33 29 26 26 24 24 25
44 46 47 48 47 48 48 48 50 52 51 54 56 59 62 62 62 67 71 73 76 77 77 78 77 76 76 71 67 61 59 58 56 50 42 37 33 30 28 26 25 25 26 26
45 47 46 46 46 46 47 49 50 52 55 60 61 62 61 62 67 69 75 74 75 77 77 76 75 72 69 67 62 57 56 54 50 44 38 35 32 29 28 26 26 26 26 26
45 44 43 43 45 47 49 52 54 57 59 57 56 60 63 66 72 73 73 76 75 77 75 72 70 69 67 62 58 55 53 48 43 38 34 33 31 28 27 27 26 26 26 25
45 47 47 49 52 54 56 57 58 56 54 56 60 64 67 69 70 74 75 73 73 72 72 69 68 66 63 59 56 52 50 44 38 34 33 32 31 29 30 28 27 25 26 26
47 49 52 54 56 55 55 56 55 52 55 60 64 67 69 73 73 70 70 70 69 69 68 67 65 63 59 58 56 52 46 39 35 33 31 31 31 30 29 28 28 27 25 26
52 53 54 56 58 56 54 52 53 56 59 62 66 69 67 66 69 69 67 66 65 68 65 65 63 61 59 58 55 53 44 37 34 33 32 33 33 33 32 31 29 28 28 28
58 59 58 53 52 53 54 55 57 60 60 60 61 63 66 65 66 66 65 64 62 66 65 63 61 59 58 57 56 51 40 35 33 33 32 35 35 34 34 34 34 33 31 31
58 56 55 55 56 56 57 56 56 58 61 63 63 65 65 65 65 64 63 66 64 63 62 61 57 57 56 54 55 47 36 34 33 33 33 34 34 33 34 35 35 35 35 34
56 56 55 53 52 52 55 57 58 59 59 62 65 66 67 66 66 67 65 63 62 61 60 55 53 54 54 52 50 39 33 33 33 33 33 34 34 34 35 36 35 35 35 34
50 50 51 52 52 52 52 55 59 61 64 65 66 67 68 68 64 64 63 61 59 56 54 52 52 52 51 48 43 36 33 32 33 33 33 34 35 36 36 36 35 35 37 38
47 46 48 49 50 53 57 61 62 63 64 65 66 65 64 65 65 59 60 59 57 55 53 52 51 51 49 46 41 36 34 34 34 34 35 36 37 38 38 39 39 39 39 39
48 48 49 51 54 59 62 64 67 69 71 69 65 64 62 61 62 62 60 57 57 56 55 54 52 51 48 45 41 37 36 36 36 37 38 39 41 42 43 43 44 43 42 42
48 49 52 56 60 63 66 70 72 72 71 69 65 65 64 63 62 58 58 58 58 57 56 55 53 51 48 45 42 39 38 37 38 39 39 40 41 43 43 43 43 43 42 43

GFSNGP_500_spd_039.txt.gz
Wind_Speed
20 21 22 20 19 19 19 21 23 22 24 29 31 31 32 33 35 36 37 38 40 43 46 48 49 50 51 52 54 56 58 59 63 66 71 75 80 84 84 87 88 90 93 90
22 23 24 23 22 21 23 26 28 30 27 35 35 36 37 38 39 40 41 43 45 47 48 49 50 52 53 55 56 57 59 62 66 70 75 79 82 83 85 87 89 91 88 75
24 26 28 27 23 27 29 30 33 34 35 38 39 40 40 41 42 44 44 45 48 50 51 51 52 53 55 56 57 59 61 64 69 74 78 79 81 84 86 88 90 86 74 63
25 28 31 25 27 31 35 36 38 39 41 43 43 43 42 43 45 46 47 49 50 52 52 53 53 55 56 58 59 61 64 68 72 76 78 80 84 85 87 89 84 74 63 53
27 28 29 28 30 33 37 38 41 42 45 46 46 46 44 47 47 49 50 51 51 52 53 54 55 56 58 59 60 63 67 71 74 77 80 83 83 85 88 82 73 66 55 45
26 28 29 27 29 33 36 37 39 42 44 46 47 47 47 48 50 50 51 51 52 53 54 56 58 58 58 60 62 66 70 73 75 80 83 82 84 86 80 72 69 59 47 39
27 30 30 31 32 35 38 42 44 45 45 45 46 48 49 50 50 50 51 52 53 54 56 57 57 57 62 63 66 70 72 75 80 84 83 83 85 81 71 68 64 51 41 34
27 30 35 36 37 40 42 44 45 45 45 46 48 50 51 51 50 51 52 54 55 56 57 57 59 60 64 68 70 74 76 80 82 84 83 84 81 71 66 66 57 45 36 30
29 31 36 40 42 44 44 45 46 47 47 48 49 50 50 51 52 53 55 56 56 57 59 62 63 65 70 73 75 78 81 82 83 85 85 80 72 64 64 60 49 39 33 27
36 35 40 44 44 45 45 45 46 47 47 48 49 49 51 53 55 56 56 58 57 60 64 65 64 68 72 76 78 81 82 84 85 84 78 72 63 61 60 51 41 34 30 25
41 41 45 42 42 43 43 44 45 45 47 48 50 51 53 54 54 55 56 56 58 64 66 67 68 72 74 80 83 82 83 84 81 77 72 64 59 59 53 43 36 32 27 24
43 42 42 39 39 40 41 43 45 47 49 50 51 51 51 52 55 56 57 59 61 64 65 69 72 72 80 85 84 83 81 79 77 72 64 59 57 53 45 38 34 29 25 23
40 41 41 41 41 42 44 46 47 48 48 49 50 50 52 56 53 53 62 66 64 66 66 71 73 82 86 83 81 79 76 74 71 65 59 56 53 47 39 35 31 27 24 22
40 41 42 42 44 45 47 48 48 48 48 49 50 52 54 52 58 62 64 64 67 70 69 72 79 81 82 81 77 75 73 69 65 59 55 52 47 42 36 32 29 27 22 23
40 42 43 44 45 46 46 46 46 47 48 50 52 54 56 59 64 63 63 68 68 68 76 81 80 80 78 75 73 71 67 65 59 54 51 47 41 36 32 29 26 26 26 23
42 44 44 45 46 45 45 47 50 51 52 55 57 61 62 59 57 63 67 69 69 76 79 80 80 76 73 71 68 65 63 58 55 51 47 42 37 33 30 27 26 26 26 25
45 45 46 46 47 48 49 50 52 55 57 58 58 59 59 59 59 68 70 71 76 78 79 79 74 72 69 67 65 62 57 54 52 49 46 39 34 32 28 26 26 26 25 26
43 44 46 48 48 50 52 54 56 57 59 61 61 56 54 60 64 69 73 76 76 75 74 73 69 67 66 65 61 57 55 53 51 49 46 36 32 31 30 29 28 27 26 26
44 46 48 50 52 53 55 58 61 60 57 54 53 56 61 65 69 71 72 70 69 70 69 69 67 65 63 60 59 58 55 53 51 50 45 35 31 30 30 30 30 30 29 28
50 51 53 56 59 60 59 56 54 52 51 54 59 60 61 62 62 63 65 65 67 69 68 66 64 63 61 60 59 55 52 51 50 49 41 33 31 31 31 31 31 31 31 31
55 57 57 56 55 54 53 55 55 55 53 53 54 54 55 58 62 65 67 68 66 67 66 65 62 59 58 56 53 51 49 49 48 45 37 32 31 31 31 31 30 29 30 31
57 55 55 56 57 56 53 50 48 48 49 51 53 58 61 63 67 69 69 70 66 65 63 60 58 58 56 52 50 49 47 46 45 40 34 31 31 32 32 32 31 31 30 30
53 54 56 55 52 51 49 47 50 51 51 54 59 63 67 70 72 72 69 65 64 63 61 60 59 55 52 51 50 48 47 45 42 38 34 33 33 33 33 33 32 32 32 32
53 53 53 52 47 46 49 52 52 53 56 60 64 69 73 75 72 73 72 71 68 66 63 60 56 53 53 53 51 50 48 45 41 38 36 35 35 35 35 35 35 35 35 35
49 46 45 46 48 50 52 54 56 58 61 65 69 73 77 79 79 74 71 66 62 60 57 55 54 54 55 54 52 50 48 44 41 38 36 36 36 36 37 37 37 38 38 37
48 48 48 49 51 53 55 57 61 64 67 70 74 79 79 78 74 69 65 63 61 60 58 57 56 56 55 53 50 48 46 43 41 38 37 36 36 37 37 37 38 38 38 38
46 48 50 52 54 57 59 63 66 70 75 79 80 81 78 72 68 66 65 63 61 60 58 56 54 53 51 49 47 45 43 41 39 38 37 36 36 37 39 38 39 39 38 38

GFSNGP_500_spd_042.txt.gz
Wind_Speed
17 18 19 19 21 22 22 22 23 22 23 26 33 32 32 34 37 38 41 42 44 44 47 49 50 52 53 53 54 55 57 58 60 62 63 64 69 73 78 80 82 86 86 88
20 19 20 22 23 24 24 25 26 29 27 32 37 38 39 40 42 44 45 46 46 48 50 52 53 53 53 55 56 58 59 60 63 62 64 68 72 77 79 82 85 88 88 88
19 21 24 23 21 26 28 29 32 35 35 38 41 44 45 46 47 47 47 48 49 51 52 54 54 53 55 57 58 60 61 62 61 66 68 72 74 77 80 84 86 89 87 86
18 23 26 21 24 28 32 33 36 39 41 43 45 47 48 48 48 48 48 49 51 53 54 54 53 54 56 57 59 61 61 62 64 70 74 75 77 80 83 86 88 89 85 75
20 22 25 25 25 29 34 34 37 39 42 43 45 46 47 48 48 49 49 51 53 53 53 52 53 54 56 58 59 60 61 62 67 74 77 77 80 83 86 87 89 86 76 67
19 22 24 24 26 29 32 34 35 38 40 42 44 46 48 48 49 50 50 52 52 51 51 53 55 56 58 58 59 61 62 66 74 81 81 81 83 85 87 90 86 77 66 63
23 25 24 26 27 28 31 35 38 39 41 43 45 46 48 49 49 50 50 49 49 50 53 54 55 58 57 58 63 65 67 69 75 79 80 83 85 88 88 85 77 66 61 55
21 24 28 29 32 34 36 38 40 43 45 45 45 46 46 48 48 49 49 49 50 51 52 54 55 57 58 62 67 69 70 75 78 79 83 86 88 87 86 77 66 60 56 46
26 28 33 36 38 39 41 42 43 43 44 44 45 45 46 46 46 48 50 52 53 53 55 56 57 58 59 66 70 70 72 77 78 83 85 89 86 83 76 67 59 56 49 40
32 34 38 39 41 42 43 43 42 42 43 44 45 45 47 48 50 51 51 52 54 54 56 56 60 63 67 69 73 75 76 77 82 87 85 82 80 77 68 58 54 51 43 37
36 38 40 41 42 43 43 42 42 42 43 44 46 48 50 50 51 52 53 53 53 57 58 59 63 67 72 76 79 79 76 78 84 87 82 79 74 68 59 53 49 45 39 34
39 40 41 41 41 40 40 40 41 43 45 47 48 49 50 51 51 51 52 53 56 58 60 63 64 72 77 81 78 76 77 78 82 80 78 72 66 58 51 49 45 41 36 32
40 40 40 40 39 39 40 42 43 44 45 47 48 49 49 50 50 52 55 57 60 58 62 63 74 78 80 72 73 79 79 78 78 75 70 64 57 53 48 45 40 37 33 29
37 38 39 40 42 43 44 45 46 47 48 48 48 49 50 51 54 53 55 60 63 61 66 73 77 76 74 76 81 81 82 79 75 68 62 57 52 50 46 42 36 33 30 27
37 39 41 43 43 44 46 48 48 48 49 49 50 51 53 56 57 58 61 62 63 64 68 72 75 76 80 82 81 81 77 73 66 60 55 54 51 48 44 39 33 31 29 27
39 41 43 44 47 48 48 47 48 50 51 52 54 57 58 60 61 63 64 62 63 68 73 75 77 78 78 78 77 74 69 64 61 58 55 53 49 47 43 36 31 30 29 27
42 44 45 46 46 46 47 49 51 53 55 56 58 60 62 61 61 60 62 64 67 70 73 75 74 73 72 72 71 67 64 60 57 55 53 51 48 46 42 34 30 30 29 30
41 41 41 43 46 48 51 53 55 56 58 61 61 59 58 57 56 59 62 65 66 65 65 65 66 69 69 67 65 62 59 54 54 54 51 48 47 46 42 33 30 30 30 31
41 43 45 47 50 52 54 57 59 60 59 58 57 56 55 56 58 59 58 58 57 59 63 68 70 70 67 64 61 59 56 54 54 52 49 46 45 45 40 31 30 30 31 31
45 47 50 53 54 55 55 55 55 56 57 55 54 53 51 52 54 53 54 56 63 68 72 74 74 70 67 65 62 59 57 53 49 47 46 45 43 42 36 30 30 30 31 31
52 52 52 50 50 51 53 54 55 55 53 51 47 48 51 52 54 57 61 64 68 73 78 78 72 68 64 60 58 55 52 49 47 46 45 43 41 39 34 31 31 31 31 32
48 46 47 50 52 54 55 54 51 48 45 47 51 54 56 59 60 62 68 72 74 79 80 75 68 63 59 57 54 52 49 47 47 47 45 43 40 38 35 33 33 33 33 33
45 48 52 55 56 55 54 51 49 48 51 53 55 58 60 63 67 70 70 76 82 84 78 69 64 61 59 57 55 53 51 50 48 47 45 42 39 37 35 35 35 35 35 35
51 54 57 57 56 54 53 52 52 53 55 57 59 62 65 67 68 76 81 84 85 76 69 67 64 61 59 56 54 52 50 48 46 45 43 41 39 37 36 36 36 37 36 35
55 57 56 55 53 52 51 51 53 55 57 59 62 66 70 74 77 80 85 83 75 72 68 64 60 57 54 52 50 48 47 44 43 42 40 39 38 37 35 35 35 36 36 36
55 54 52 50 49 50 51 52 54 57 59 61 65 70 74 79 84 87 82 76 73 67 62 59 57 54 51 49 47 47 46 45 43 42 41 39 38 37 36 34 35 35 34 37
51 48 47 47 49 51 52 54 57 60 63 66 70 76 81 85 85 79 75 70 65 62 61 59 55 53 51 50 49 48 46 46 43 40 39 39 38 37 36 35 36 38 37 38

GFSNGP_500_spd_045.txt.gz
Wind_Speed
23 23 21 20 20 21 23 21 25 18 25 23 32 37 34 34 36 40 41 45 47 49 50 50 52 53 54 54 55 54 55 56 58 60 62 62 63 65 69 75 79 79 80 83
23 22 22 22 21 20 22 23 25 25 31 31 35 39 39 42 44 46 48 49 50 51 52 53 53 54 55 54 54 54 56 58 60 61 62 60 64 66 72 77 81 86 84 85
24 22 24 21 18 21 24 25 29 32 32 39 39 41 43 46 47 48 49 50 52 52 52 52 54 55 54 53 54 55 58 58 60 60 61 66 67 69 72 77 84 85 86 88
20 21 23 18 21 23 26 28 32 35 36 41 42 44 45 47 48 49 51 51 51 51 51 53 54 54 53 53 54 56 58 60 58 61 66 72 72 72 75 80 82 83 85 89
19 20 21 20 23 25 28 29 36 35 38 40 41 43 46 48 48 51 51 51 51 51 52 53 53 52 53 55 56 57 56 55 62 67 72 76 78 76 77 80 80 82 83 90
18 20 22 21 23 26 29 32 33 33 37 39 41 44 46 48 50 50 50 50 51 51 51 52 52 54 55 55 55 55 57 59 63 66 72 78 82 80 79 78 81 83 84 82
20 22 23 24 25 25 26 30 31 34 38 41 44 46 48 49 49 49 49 49 49 49 51 52 53 53 53 56 58 60 66 68 72 73 76 77 79 80 79 82 80 80 78 75
19 21 23 22 25 27 30 33 36 39 42 45 47 48 48 48 47 47 47 48 50 52 53 53 53 54 55 57 57 62 72 75 79 77 77 78 78 78 81 79 75 74 71 67
20 25 26 29 31 33 36 38 41 43 45 47 47 48 46 47 47 48 50 51 51 52 52 53 54 56 58 59 62 69 77 82 78 76 75 76 80 82 78 71 70 72 65 57
26 30 32 35 37 38 41 43 44 45 45 46 46 48 48 48 49 51 52 53 53 53 53 55 56 60 61 62 63 73 82 82 79 80 81 81 82 75 70 69 68 61 55 52
32 35 37 40 40 43 44 45 45 45 43 44 45 47 49 50 51 53 53 53 53 54 56 56 58 63 64 64 67 72 78 82 82 83 83 79 75 75 70 64 58 54 51 48
38 38 40 44 43 44 45 44 43 43 44 45 47 48 50 51 52 52 53 54 56 57 59 60 61 64 67 72 75 77 79 83 84 81 78 77 76 70 64 56 53 50 48 46
42 42 44 46 44 44 43 43 43 45 46 46 49 51 51 51 52 54 55 57 59 60 60 62 63 67 70 72 75 79 81 79 78 77 77 75 71 65 57 52 49 47 46 42
43 44 45 43 44 43 44 45 46 47 48 50 49 48 49 51 53 56 58 60 62 63 64 62 63 65 69 74 77 75 76 75 74 73 72 67 62 57 53 50 48 45 44 40
43 42 44 44 44 45 46 47 49 49 48 47 48 50 53 56 57 58 60 62 63 62 63 64 65 69 71 72 73 71 71 72 73 70 66 61 57 52 52 51 47 45 44 40
41 42 43 43 45 46 47 47 46 47 48 51 53 55 58 60 61 62 62 61 61 60 63 66 68 68 67 67 67 69 73 77 74 67 62 59 54 53 52 50 47 45 43 38
42 42 43 45 45 44 44 46 49 50 53 56 58 60 60 61 61 63 63 61 60 61 62 62 63 62 63 66 68 73 78 74 69 65 61 57 54 52 49 47 45 44 43 36
42 43 43 43 44 47 48 50 53 55 57 57 56 56 58 61 62 62 61 58 57 59 61 60 62 63 66 71 74 79 78 69 62 58 55 53 52 48 45 44 43 42 40 33
41 42 44 46 49 51 54 55 54 52 51 54 56 59 60 61 61 60 57 56 57 57 60 62 66 68 72 75 81 80 69 61 57 54 52 50 47 45 43 43 41 40 36 31
43 45 47 49 52 54 52 49 49 52 55 57 59 60 60 58 55 54 55 58 60 63 64 68 70 73 76 82 81 69 63 60 57 54 50 49 46 44 43 42 40 38 34 31
46 48 51 52 49 46 47 50 53 56 58 61 60 58 54 52 54 57 59 61 65 67 70 73 76 80 83 83 72 66 63 59 56 53 50 48 46 45 44 42 39 37 34 32
50 50 47 45 45 49 52 55 57 60 61 58 57 55 54 56 58 60 63 66 67 71 74 78 82 86 82 75 69 63 58 54 52 50 48 47 45 44 42 41 38 36 34 33
48 46 45 48 51 54 56 59 59 60 59 57 55 55 57 59 61 62 64 69 72 76 81 86 85 79 74 66 60 55 53 50 49 47 45 43 42 41 40 39 37 36 34 34
45 48 51 53 56 58 59 60 60 58 55 55 56 58 59 61 63 68 71 74 79 84 88 84 76 69 64 60 57 54 51 49 47 45 44 41 40 39 38 37 36 36 35 33
49 52 55 57 58 59 60 59 57 54 54 56 57 60 63 66 69 73 77 82 87 85 79 73 67 64 61 58 54 51 49 47 46 46 46 44 42 41 40 38 36 35 35 34
54 57 59 60 60 59 56 53 53 55 55 57 60 64 68 71 75 81 85 86 81 75 70 66 64 61 59 56 53 50 49 47 46 45 45 44 42 40 39 38 36 35 36 35
58 59 60 58 55 52 51 53 55 55 58 62 65 69 73 78 83 84 82 77 72 69 67 65 62 58 54 51 50 50 50 49 48 47 47 46 44 42 39 38 37 36 36 36

GFSNGP_500_spd_048.txt.gz
Wind_Speed
23 23 25 21 22 19 22 21 23 18 23 22 18 32 39 37 35 36 38 44 45 49 50 52 52 52 52 53 53 54 54 56 55 57 57 56 63 63 62 65 71 76 81 83
25 24 27 23 24 22 22 21 23 23 26 25 33 39 37 41 41 45 45 48 49 50 51 53 54 54 53 54 55 56 55 55 56 59 59 62 62 60 64 70 77 84 86 86
24 26 27 25 22 23 22 23 24 26 27 32 36 41 39 38 43 45 46 47 51 52 54 56 57 58 56 56 56 55 54 56 58 58 61 61 63 66 70 68 75 82 87 82
23 26 28 22 23 23 23 24 27 30 31 32 37 38 39 43 43 45 48 50 52 55 56 57 57 57 56 54 55 55 56 57 58 59 60 63 73 79 78 82 84 83 81 80
23 24 22 22 22 21 23 25 31 29 30 34 35 37 41 43 44 47 50 53 55 56 54 54 54 53 52 55 57 57 58 58 58 60 59 62 75 85 87 89 78 74 79 86
21 22 23 22 20 21 23 27 28 28 31 33 35 37 40 44 47 51 53 54 53 50 50 51 52 52 54 56 57 58 58 58 62 65 62 73 80 87 90 76 78 82 88 81
21 22 21 24 18 23 25 27 27 28 31 34 38 41 44 48 50 51 52 50 49 49 50 52 53 54 55 56 57 57 58 57 65 66 67 71 76 85 87 87 89 85 79 73
23 22 23 20 22 21 23 26 29 32 36 39 41 45 47 49 51 51 50 49 50 51 52 53 55 55 54 55 56 56 60 67 71 72 78 79 78 80 83 83 79 77 73 68
18 20 20 22 23 24 28 32 35 37 41 43 46 49 52 49 49 50 51 51 52 53 54 55 54 55 57 58 60 61 62 68 76 82 77 76 82 83 82 78 75 72 68 62
21 25 27 27 29 31 35 38 40 42 44 47 49 50 50 51 51 51 50 51 53 54 54 55 57 58 61 63 62 62 66 70 73 74 78 81 82 74 74 74 73 70 63 56
25 30 33 35 34 35 40 42 45 47 47 48 48 48 49 50 50 50 52 53 53 54 56 58 61 63 64 65 67 67 68 71 74 77 79 74 72 71 73 74 71 63 57 51
32 33 37 40 40 41 43 46 48 49 47 47 47 48 49 50 52 53 52 52 54 57 59 62 64 67 69 69 68 68 69 71 73 71 70 70 69 69 74 71 64 57 53 50
39 39 40 42 44 46 48 49 48 47 47 48 48 49 51 52 51 52 53 56 59 61 63 64 64 67 69 67 67 68 70 69 68 68 67 70 72 77 76 66 61 56 51 49
42 44 44 46 46 48 49 48 47 47 47 48 49 50 49 50 52 55 58 60 62 62 62 63 65 66 68 66 66 67 66 66 66 67 69 71 75 78 73 65 57 52 50 47
43 46 48 49 49 48 47 47 47 47 48 49 49 51 53 55 58 61 61 59 59 61 64 66 67 67 64 63 66 64 65 66 69 70 72 75 80 74 63 58 54 50 46 43
47 48 49 48 47 47 47 47 48 48 49 51 53 55 58 60 59 57 56 59 62 65 66 66 65 63 63 65 64 66 67 70 73 76 78 80 78 66 57 54 52 48 43 40
49 48 47 47 46 47 47 47 48 50 52 54 56 59 59 55 55 57 60 62 64 66 66 65 63 64 64 65 67 69 70 73 76 79 83 80 68 61 57 54 50 46 41 40
47 46 46 47 47 47 47 48 50 53 55 58 59 55 53 55 57 60 63 64 65 64 63 62 64 64 66 68 70 72 75 77 81 84 79 70 64 60 56 52 50 46 42 40
46 47 47 47 47 47 50 52 54 57 59 56 53 54 56 58 62 64 65 65 65 63 61 63 64 66 68 70 74 76 79 84 84 77 71 65 60 56 53 49 48 45 43 40
46 46 45 46 49 51 53 56 58 56 53 53 55 58 61 64 65 67 66 64 63 61 63 64 66 68 72 75 79 83 87 81 75 68 61 56 54 51 49 47 45 44 42 40
43 45 47 50 53 55 57 56 53 52 55 56 59 62 64 66 66 65 63 61 61 63 65 68 71 73 77 82 86 85 78 72 64 59 56 53 50 48 46 44 42 41 40 38
45 49 52 55 57 57 54 52 53 56 58 61 63 65 66 66 64 62 62 62 63 65 70 74 76 81 85 86 80 74 68 63 60 56 52 50 48 46 44 42 40 39 38 36
51 54 56 55 53 51 52 55 57 60 63 65 65 65 65 63 61 61 61 64 67 72 75 80 85 87 82 77 71 67 65 62 57 54 51 48 47 45 43 41 39 38 37 36
55 53 52 51 52 54 56 59 62 64 65 66 65 63 61 60 61 62 66 70 74 78 83 87 84 79 75 71 69 65 62 58 52 50 48 47 46 45 45 43 42 39 38 37
52 51 52 54 55 58 61 64 66 66 65 63 61 61 61 61 63 68 71 75 80 85 85 81 78 75 71 66 61 56 52 50 50 50 49 48 47 45 44 42 42 40 38 37
52 53 55 57 60 63 65 65 65 63 60 59 59 60 62 65 69 72 76 81 84 82 78 76 71 64 59 57 53 52 53 54 52 50 49 47 46 46 46 45 43 42 40 38
55 57 60 63 64 65 64 63 60 58 58 58 61 64 67 70 73 77 81 81 78 75 72 65 58 58 56 52 53 56 56 54 50 47 45 43 42 42 43 44 44 42 41 38

GFSNGP_500_spd_054.txt.gz
Wind_Speed
22 21 22 25 26 23 25 25 25 19 18 16 25 28 29 31 32 29 28 30 32 33 34 34 36 36 36 40 43 45 47 54 51 57 56 56 57 60 61 61 62 65 67 69
25 23 25 27 28 25 23 24 26 23 21 21 25 26 27 30 31 32 34 35 37 38 37 33 39 40 37 39 43 45 55 55 55 54 56 56 58 60 61 62 65 67 70 73
26 26 27 30 26 29 29 27 29 27 26 25 26 26 26 28 30 32 35 37 40 42 44 45 45 36 36 41 51 51 52 53 54 56 57 58 58 58 59 67 70 71 75 78
28 28 32 27 27 27 26 26 26 27 27 25 25 26 29 31 33 35 36 37 39 40 42 45 47 49 50 50 50 50 52 54 56 58 59 58 60 62 64 66 72 75 78 78
30 29 28 25 25 24 25 27 27 27 24 23 24 28 32 34 34 36 36 37 39 42 45 48 50 49 48 49 51 52 52 55 57 57 58 60 61 66 69 71 75 78 77 78
29 29 29 23 25 25 23 26 23 21 21 24 27 30 32 34 34 35 37 39 42 45 47 46 46 47 49 50 51 52 54 55 57 59 60 65 68 68 68 73 78 80 78 75
30 30 29 24 24 24 25 19 19 22 24 28 30 31 31 33 34 37 40 42 45 46 45 47 48 49 50 51 52 53 54 57 58 62 64 66 65 67 72 77 80 77 74 69
29 28 29 24 23 23 20 23 23 24 26 27 29 30 33 35 37 40 42 45 47 47 48 48 49 50 51 52 53 55 58 62 64 63 64 66 68 71 74 76 75 71 70 65
28 26 26 26 23 23 21 21 22 25 27 29 32 34 37 38 41 43 45 47 47 48 48 49 50 51 52 54 57 60 62 62 62 64 67 70 72 74 75 73 70 69 67 67
29 25 22 21 19 19 22 24 26 29 31 33 36 38 41 43 45 47 48 48 48 49 49 50 51 53 55 58 62 62 63 64 65 67 71 74 76 75 73 70 69 68 69 69
29 26 24 24 23 24 26 28 30 32 35 37 39 41 43 46 48 49 49 49 50 51 51 52 54 56 59 62 63 63 64 65 68 72 74 75 75 73 71 70 72 70 69 71
30 29 28 27 27 28 30 32 34 37 39 41 43 44 47 48 49 49 50 51 51 51 53 55 57 60 63 62 63 64 66 69 73 75 76 76 73 70 70 70 70 71 72 75
31 32 32 32 32 33 35 36 38 40 42 44 46 49 49 50 50 51 51 52 52 53 56 58 61 62 62 63 65 67 70 73 75 77 78 77 76 75 73 67 70 73 77 79
33 33 34 36 37 37 39 41 42 44 46 48 49 50 50 50 51 52 52 53 54 57 59 62 62 62 64 66 69 71 74 77 79 78 77 75 73 72 73 76 78 77 79 82
36 36 36 38 40 42 44 45 45 47 49 50 51 50 51 52 53 54 54 55 58 60 62 62 62 64 67 70 72 74 76 76 77 77 75 73 73 76 80 82 85 87 82 73
39 39 40 42 44 46 46 47 49 50 51 51 51 52 53 53 53 53 56 58 61 61 62 63 65 68 71 73 74 76 77 78 78 75 73 76 79 82 86 89 86 78 71 64
43 44 44 45 46 47 48 50 50 51 51 51 52 53 53 52 54 56 60 61 61 61 63 66 68 71 73 75 77 78 78 77 75 75 79 81 84 88 86 81 77 70 62 56
44 45 46 47 48 49 49 49 50 50 51 52 52 51 52 54 58 62 62 62 62 64 67 69 71 74 76 76 76 76 76 75 75 77 81 86 83 79 76 66 59 55 51 48
43 45 47 48 48 48 49 50 50 51 51 51 52 52 55 61 64 63 62 63 64 67 68 71 73 74 74 75 74 74 74 74 78 84 83 79 75 68 61 58 53 50 46 44
45 45 44 45 47 49 49 50 51 50 51 51 53 56 63 66 63 62 63 65 67 69 70 72 74 75 74 73 73 72 75 81 84 79 76 71 64 58 53 52 52 50 46 42
39 42 44 47 48 49 50 50 50 50 51 54 59 65 66 62 62 64 66 68 70 72 73 73 72 71 70 70 72 76 82 80 78 72 69 62 56 56 55 55 55 53 51 48
40 43 47 49 49 48 48 48 49 53 57 62 66 63 62 62 64 66 68 70 71 72 71 70 67 67 68 72 76 82 78 76 69 68 62 57 57 56 56 56 54 50 48 47
46 46 46 45 44 45 48 51 55 61 63 61 60 61 63 64 66 68 70 70 70 68 65 62 64 68 72 76 79 77 74 68 67 64 57 56 56 58 57 54 53 47 43 42
41 40 43 46 48 51 57 61 60 59 58 60 61 63 64 66 68 69 68 67 63 61 61 64 68 72 75 75 76 75 70 67 65 59 55 55 56 55 53 52 50 46 39 35
45 47 50 55 58 58 57 56 57 58 60 62 64 66 67 68 67 65 61 58 58 62 65 68 72 74 74 74 77 75 70 66 61 55 52 52 54 50 49 49 47 44 38 33
52 54 55 55 55 55 56 58 60 62 64 66 68 69 67 63 60 58 58 60 63 66 68 71 74 73 72 76 78 73 66 60 55 51 48 51 50 47 45 45 44 42 38 32
53 53 53 55 57 59 61 62 64 66 67 67 66 62 59 57 58 59 61 64 67 69 72 73 72 72 76 79 73 65 58 53 50 47 47 49 48 45 42 42 42 39 36 32

GFSNGP_500_spd_057.txt.gz
Wind_Speed
28 28 23 24 22 26 29 28 27 26 26 23 25 28 28 26 26 27 25 26 27 29 31 32 32 33 32 36 36 36 37 41 42 51 56 58 57 58 60 61 63 64 66 69
30 26 25 26 27 30 32 27 28 29 30 28 24 26 26 24 25 25 24 27 30 33 33 33 32 33 36 36 38 35 37 45 54 53 52 57 56 59 63 64 64 64 70 71
29 31 31 32 26 30 30 31 31 32 31 29 27 24 24 24 24 26 29 30 32 34 36 35 36 39 42 43 44 42 44 50 50 52 54 56 59 61 62 63 66 64 73 77
30 32 37 25 27 28 32 33 32 31 30 28 27 26 27 27 28 28 30 32 34 36 36 37 40 43 44 46 48 48 47 48 51 53 56 58 59 61 63 65 68 71 74 75
34 34 34 30 28 30 30 29 28 28 28 28 27 27 28 28 29 30 32 33 35 35 37 40 41 44 46 46 46 46 48 50 53 54 56 58 60 64 66 67 68 70 73 75
34 35 36 28 30 31 30 32 26 24 23 25 27 27 28 28 29 31 33 34 36 38 40 43 45 46 47 47 47 48 50 52 53 55 56 60 64 65 65 66 69 72 74 77
35 35 36 32 31 32 35 23 25 24 25 27 27 27 28 29 30 32 34 36 38 40 42 44 45 46 46 47 48 50 51 52 54 57 61 63 64 65 67 69 72 74 76 75
31 34 33 29 31 32 27 28 27 28 28 27 27 27 27 29 32 34 36 38 40 42 44 45 45 46 47 48 49 50 52 54 57 61 62 63 65 67 70 73 75 75 76 77
35 33 34 29 26 27 28 28 28 29 28 26 26 27 29 31 33 35 37 39 42 44 46 47 47 48 49 49 50 53 55 58 61 62 63 66 68 71 74 76 76 78 79 78
37 34 32 31 26 25 27 28 27 25 25 27 29 31 32 33 35 38 41 43 45 47 47 48 49 50 50 51 54 56 59 62 63 64 67 69 72 74 76 77 79 80 80 78
37 33 31 31 27 25 27 27 26 27 29 30 32 34 36 38 40 42 45 47 48 49 49 50 51 51 52 54 57 60 62 63 65 67 70 71 73 76 77 77 79 80 77 75
33 31 35 31 29 27 28 30 30 31 32 34 36 38 40 42 43 46 48 49 49 49 50 51 52 53 55 58 61 63 64 65 67 69 72 74 76 77 78 80 79 76 75 78
32 35 35 33 31 31 31 32 34 35 36 38 40 42 43 45 47 49 50 50 51 52 53 53 54 56 59 62 64 64 65 67 70 73 75 78 81 84 86 81 76 74 76 79
38 40 40 38 36 35 34 35 37 38 39 42 44 45 47 49 50 51 51 52 53 53 52 54 56 59 63 64 64 65 68 71 74 77 80 82 83 84 82 80 79 76 79 82
47 38 41 41 40 39 39 39 40 43 45 46 47 48 49 51 51 52 53 53 53 53 54 57 61 64 64 64 65 68 71 74 76 79 81 83 82 79 78 80 84 84 78 73
36 38 42 42 43 43 44 45 46 47 48 49 49 50 51 51 53 54 53 53 54 54 58 63 65 65 64 66 68 71 74 77 79 81 82 80 78 78 82 84 80 76 71 65
41 43 42 42 43 45 46 47 48 50 50 50 50 51 52 53 53 53 54 55 56 59 64 68 65 65 66 68 71 74 77 78 80 80 77 76 78 82 80 77 72 68 60 55
37 37 38 40 43 44 45 47 48 50 50 50 51 52 53 53 54 55 56 57 61 66 68 67 66 67 70 72 74 76 78 79 77 74 74 77 81 78 74 68 66 59 55 55
43 40 35 39 43 45 47 49 49 49 50 51 53 54 54 55 56 57 60 64 68 69 67 67 68 71 73 74 76 77 76 72 72 73 75 79 77 74 68 66 62 56 55 54
33 38 43 45 47 48 46 46 47 49 52 54 55 56 55 56 58 62 67 70 70 67 67 69 71 72 74 75 74 72 69 70 71 74 79 75 76 72 67 65 60 56 54 53
41 42 44 44 41 42 44 47 50 53 54 53 52 53 56 61 65 69 70 67 67 68 70 71 73 74 73 71 68 67 69 70 74 78 75 76 78 71 66 61 57 54 53 51
40 39 38 40 42 45 49 50 49 48 49 51 54 59 63 67 68 66 66 68 69 71 72 72 72 70 67 65 66 68 70 74 77 74 76 81 74 66 60 55 52 52 52 50
35 38 41 45 47 48 47 47 49 52 55 58 62 66 67 64 65 66 68 69 70 71 71 69 67 65 64 66 67 70 74 76 73 76 82 74 65 58 54 50 50 51 49 47
41 44 46 46 46 48 50 52 55 58 62 65 63 62 63 65 67 69 70 71 71 70 67 64 62 61 64 66 71 74 75 71 74 80 73 63 57 53 49 47 50 50 47 46
43 44 45 47 50 53 56 59 62 61 60 61 62 64 66 68 69 70 71 69 66 64 62 60 61 65 66 71 73 74 70 71 77 73 63 57 52 49 47 48 50 48 45 44
45 48 51 54 57 59 59 59 59 60 62 64 65 67 69 70 70 69 67 64 62 60 59 63 66 68 71 73 73 70 70 72 72 63 57 53 49 46 46 48 48 46 43 42
52 54 56 58 58 58 59 61 62 64 66 68 69 71 71 70 67 64 61 59 59 61 65 68 70 72 72 72 70 70 70 68 63 57 54 50 46 45 46 47 46 43 41 40

GFSNGP_500_spd_060.txt.gz
Wind_Speed
21 23 25 26 24 31 32 29 24 20 22 21 22 24 26 27 24 23 24 24 23 26 28 30 31 33 34 35 35 36 37 40 40 41 39 42 53 61 56 64 63 64 66 66
23 26 28 31 27 32 31 30 26 25 25 24 27 27 26 27 27 26 25 25 26 27 29 29 30 33 35 34 35 36 39 40 44 44 41 48 56 55 57 61 63 63 64 65
25 25 31 31 18 25 29 28 27 28 27 30 30 28 26 27 26 27 29 30 30 29 30 33 34 34 33 35 38 40 42 45 46 46 48 51 53 56 59 59 63 63 66 69
28 26 32 18 20 23 27 29 30 31 32 32 30 29 28 29 30 29 30 29 29 31 32 33 33 34 37 40 42 44 46 47 48 48 50 53 55 56 58 60 62 63 69 70
31 27 27 24 20 25 29 28 30 29 28 29 30 29 29 31 31 31 30 29 30 31 32 32 35 37 39 41 44 46 47 48 49 51 52 54 55 58 60 62 64 66 69 71
32 34 31 23 24 28 30 29 26 25 28 30 32 31 31 30 29 29 29 29 30 30 32 34 36 39 41 43 45 47 48 49 51 52 54 55 57 59 62 64 66 68 70 74
32 34 32 27 28 27 31 30 29 29 30 31 32 31 29 28 28 28 29 29 30 32 34 36 39 41 44 46 47 49 50 51 52 53 54 57 59 62 65 66 68 71 74 76
30 32 31 25 26 28 30 32 32 32 31 31 31 29 29 29 28 27 28 30 32 34 36 39 41 44 46 47 49 50 51 52 53 54 56 59 62 65 67 68 71 74 77 77
30 29 29 28 25 26 29 31 30 30 30 30 30 30 28 28 28 30 32 33 34 37 39 41 44 46 49 51 51 52 53 53 54 57 60 63 65 67 69 72 75 77 80 82
33 32 32 28 29 30 31 30 29 31 27 24 24 26 28 30 31 33 35 37 38 40 42 45 48 50 51 52 53 53 53 55 57 60 64 66 67 69 72 76 79 81 83 86
36 35 33 29 30 36 33 29 27 29 27 25 26 28 30 32 34 37 39 41 43 44 47 50 51 53 53 54 54 54 56 58 61 65 66 67 68 71 74 77 80 83 86 89
28 32 31 34 38 35 31 29 29 29 31 30 31 33 34 36 38 41 43 45 46 49 51 53 53 53 54 55 55 57 58 62 66 67 68 69 70 72 75 78 81 84 86 85
32 31 30 33 34 33 32 31 31 31 32 34 35 36 38 40 42 44 47 48 50 52 54 54 54 55 55 56 58 58 63 67 68 68 69 71 74 77 78 80 83 84 81 81
31 30 32 32 31 35 36 36 38 38 38 38 39 40 42 44 46 48 49 51 53 54 55 55 56 56 59 59 60 64 68 69 69 70 72 75 78 81 84 86 85 80 78 80
35 34 32 34 40 42 43 44 42 42 44 44 45 46 47 48 49 50 51 52 54 55 56 57 58 59 60 62 66 71 70 69 70 72 75 78 80 82 84 81 80 78 79 76
40 36 36 39 43 42 40 42 44 46 46 47 48 48 49 50 50 51 52 53 54 56 57 59 60 61 64 69 73 71 69 70 73 75 77 79 81 81 78 77 76 80 79 76
46 45 40 37 41 44 48 47 47 49 48 48 48 49 51 52 52 53 53 55 57 59 60 61 63 66 70 73 71 69 70 73 75 77 79 79 77 75 74 75 80 78 78 78
39 36 33 40 44 47 47 46 46 42 41 47 50 52 51 51 53 54 56 58 59 60 61 64 68 72 74 71 70 71 74 75 76 77 76 75 73 72 75 79 77 79 80 71
31 31 37 41 45 49 46 41 40 43 50 52 51 50 51 53 55 57 57 58 60 62 66 70 73 72 70 70 73 74 75 76 76 73 71 70 71 75 79 75 79 80 71 61
35 36 35 34 34 35 44 42 47 55 55 50 50 51 54 55 55 56 57 60 64 68 72 73 70 70 71 73 74 75 76 73 70 68 68 69 74 77 73 75 78 70 62 56
33 34 31 37 39 39 42 53 53 48 46 50 53 54 54 54 56 59 62 66 70 72 70 69 70 72 74 75 76 74 71 67 65 68 68 72 76 73 69 75 71 63 56 51
27 29 34 40 45 47 45 42 45 48 52 53 53 53 55 58 61 65 69 71 70 68 69 71 73 74 75 75 72 69 67 64 67 69 73 74 72 69 69 71 65 59 54 50
33 39 37 36 36 39 43 47 50 52 52 53 55 58 61 64 68 70 69 68 69 71 73 74 75 74 72 69 67 64 63 66 69 73 74 72 69 68 69 67 61 57 53 49
29 32 37 40 43 46 49 50 51 53 55 58 61 64 67 67 67 67 69 71 72 74 76 75 73 70 66 62 61 63 67 70 72 73 72 70 68 69 68 62 58 56 52 49
36 39 41 44 47 49 50 52 55 58 61 63 64 65 66 67 69 71 73 75 76 76 74 69 64 61 61 63 67 70 71 72 72 72 71 69 69 67 62 58 56 53 49 49
43 45 45 46 49 52 55 58 61 62 63 64 66 68 70 72 74 75 76 76 75 70 65 62 63 65 67 70 71 72 73 73 72 71 70 69 66 61 57 55 53 50 48 47
46 48 50 53 56 58 61 63 64 66 67 69 71 73 75 76 77 77 75 72 68 66 66 68 70 71 73 73 74 74 74 73 71 70 69 65 60 57 54 52 50 47 45 43

GFSNGP_500_spd_063.txt.gz
Wind_Speed
15 17 21 22 22 24 26 27 30 26 27 19 18 19 22 24 25 26 26 24 24 25 30 31 31 32 34 34 33 34 35 35 35 36 40 41 44 45 45 45 56 66 69 66
19 19 20 22 20 22 24 27 31 28 21 21 23 22 23 27 29 28 29 28 28 27 26 29 29 29 30 32 33 34 33 34 37 39 41 44 46 48 48 49 54 58 63 65
24 22 23 23 12 17 22 23 24 22 18 22 23 25 27 27 29 29 30 31 30 31 31 31 30 31 32 34 34 33 35 37 39 42 45 47 50 51 53 55 58 58 61 64
28 26 30 17 16 20 21 20 22 21 22 24 26 26 27 28 29 30 30 30 30 29 30 31 31 32 33 33 33 35 38 40 42 46 49 51 52 55 55 57 58 60 63 66
32 30 28 20 12 18 23 18 20 23 23 26 27 28 28 29 29 29 30 29 28 28 28 29 30 30 31 34 36 38 40 43 46 49 51 53 54 55 57 58 60 63 66 68
34 31 31 18 18 21 25 19 20 25 24 25 27 30 30 28 27 26 25 25 26 27 28 29 30 32 34 35 37 40 43 46 48 51 53 54 56 57 58 60 62 65 67 70
35 32 30 25 20 23 29 20 26 25 25 25 28 30 32 28 27 25 26 27 27 26 28 30 31 33 35 38 40 43 46 49 52 53 55 56 57 58 59 62 64 67 70 72
35 34 33 25 26 26 23 25 26 26 25 25 27 28 30 30 29 28 28 25 26 28 30 32 34 36 38 41 44 47 50 52 54 55 56 57 57 59 61 63 66 69 71 72
34 31 31 29 27 26 27 26 26 27 26 26 27 27 28 30 30 28 27 28 30 31 33 36 38 40 43 45 48 51 53 55 56 57 57 57 59 60 63 67 71 73 74 76
36 29 29 33 29 26 30 32 33 30 28 27 28 26 25 26 27 29 31 32 34 35 38 40 42 44 47 49 51 54 56 56 57 58 58 61 62 63 69 73 76 77 78 79
31 27 32 35 35 36 32 35 35 32 31 29 29 29 29 30 31 32 34 36 38 40 42 44 46 49 50 53 55 56 57 58 58 60 62 62 64 70 75 78 78 78 80 82
35 33 37 31 33 38 37 35 36 35 32 30 31 31 32 33 35 37 38 39 42 44 47 49 51 53 54 56 57 57 58 59 61 62 62 65 70 75 77 76 76 79 82 85
39 37 33 29 35 26 25 31 35 31 30 31 32 34 35 37 38 40 42 43 47 50 53 55 55 56 57 57 58 59 60 62 62 62 66 71 76 77 75 75 77 80 83 85
36 34 34 35 30 27 30 35 34 33 35 37 40 41 42 42 44 46 48 51 53 54 55 55 57 59 59 59 60 61 62 62 65 68 73 77 78 76 76 78 80 83 84 84
37 40 38 35 33 33 34 36 35 36 39 43 46 46 43 45 48 50 51 52 53 54 56 57 58 58 60 61 62 62 63 67 71 75 79 78 75 76 78 80 83 83 82 77
41 37 32 35 37 39 40 40 42 39 43 47 46 46 47 49 52 53 53 55 55 55 56 58 59 60 61 62 62 65 69 73 78 79 76 75 77 78 80 82 81 78 74 73
28 33 35 41 44 41 43 42 46 44 45 45 51 53 50 49 44 48 52 53 53 55 57 59 61 61 62 64 67 71 75 79 77 75 75 77 79 80 80 78 74 71 73 75
37 37 34 41 44 44 42 40 39 39 41 48 48 42 52 43 50 52 49 51 54 58 60 60 61 63 65 69 73 77 78 76 75 76 77 79 80 78 75 70 70 72 74 73
39 47 43 33 37 43 37 41 44 47 50 48 48 47 46 53 51 50 51 55 58 60 61 62 64 68 71 75 78 77 75 76 76 78 79 79 76 72 67 68 72 75 73 70
32 30 31 33 34 36 39 38 39 41 41 45 44 50 50 54 53 55 58 60 60 61 63 67 70 73 77 77 75 76 76 77 78 78 76 71 67 66 69 72 74 73 71 67
30 29 31 33 33 33 34 36 45 46 45 48 51 52 52 54 58 60 59 60 62 66 69 72 76 76 75 76 77 78 79 79 77 72 66 65 66 70 73 74 73 72 68 66
28 27 27 28 29 31 35 40 44 48 50 50 50 52 56 58 58 59 62 65 69 72 75 75 75 76 77 78 79 79 78 73 67 64 66 68 71 73 74 74 73 69 67 67
27 27 30 34 37 38 40 41 42 44 47 50 52 54 56 58 61 64 67 70 72 73 74 75 77 78 79 80 78 75 69 65 66 68 70 72 74 74 74 72 69 67 66 64
29 31 34 35 35 37 40 42 45 47 50 53 55 58 60 63 66 69 70 72 74 75 77 79 80 80 79 75 71 68 68 69 71 73 75 76 76 75 72 69 67 66 63 59
28 31 33 35 38 41 44 47 50 52 55 57 60 64 66 68 70 72 74 76 78 79 80 80 79 76 74 73 73 73 73 74 76 77 77 77 75 72 70 68 65 61 58 53
34 37 40 42 44 46 48 51 54 57 61 64 66 69 71 72 73 75 77 79 80 80 80 79 78 78 77 77 78 78 79 79 79 79 77 74 71 70 67 63 59 56 51 46
42 44 45 47 49 51 54 58 61 65 66 69 71 72 74 75 77 79 79 80 80 80 80 80 80 81 81 82 82 83 82 81 79 76 73 72 69 65 60 56 52 48 43 41

GFSNGP_500_spd_066.txt.gz
Wind_Speed
24 23 23 22 21 23 25 23 28 20 24 17 21 24 21 20 22 23 24 25 27 28 27 26 33 38 40 38 36 38 39 40 40 39 40 40 40 42 44 44 48 51 53 55
30 27 25 26 20 23 23 24 23 23 21 19 22 23 25 22 22 23 26 27 29 30 31 30 30 33 34 33 33 34 36 38 39 38 39 40 41 43 45 48 50 51 54 58
32 29 29 28 18 17 20 23 23 22 16 17 19 20 20 20 23 24 26 28 28 29 30 32 32 33 36 36 37 36 36 37 36 38 39 41 43 46 48 50 54 56 59 61
35 32 40 22 19 22 23 20 21 21 20 21 21 21 20 23 24 25 27 27 28 29 30 31 32 33 33 34 36 37 37 37 38 39 41 44 46 50 53 55 58 59 60 62
40 36 33 27 19 18 22 22 21 23 25 25 23 24 22 25 25 26 26 25 26 27 27 27 28 29 32 34 35 36 36 37 39 42 44 47 49 52 56 58 59 60 62 63
40 40 39 24 19 21 26 23 18 27 27 27 26 26 25 26 25 26 27 27 27 27 27 28 29 30 31 32 34 35 37 40 42 44 47 50 53 56 58 59 61 62 63 64
40 41 39 28 26 23 30 16 27 32 29 28 28 28 28 27 28 26 27 28 28 28 29 30 30 30 32 34 36 38 40 43 45 48 51 54 57 59 60 61 61 62 64 67
44 45 43 27 30 30 23 27 28 29 30 32 32 31 29 28 29 28 28 30 31 32 31 31 32 34 36 38 39 41 44 46 49 53 55 58 60 61 61 62 63 65 66 66
38 41 38 34 33 31 28 28 28 30 31 32 30 30 28 28 29 30 29 30 31 31 32 34 35 37 39 41 43 46 49 52 54 56 58 60 61 62 63 64 66 66 66 70
37 35 35 35 33 30 31 32 31 30 34 37 34 33 31 30 29 30 30 30 31 34 35 36 38 40 42 44 47 50 54 56 57 59 61 62 62 63 65 66 66 67 71 76
41 37 35 36 31 32 38 33 36 39 42 39 35 35 34 32 30 31 31 33 35 37 39 41 42 43 46 49 53 56 57 58 60 62 63 63 64 65 65 65 68 73 77 82
45 40 39 39 30 31 35 33 33 37 42 37 38 39 36 32 32 33 35 37 39 41 43 44 47 49 53 56 57 57 59 61 62 62 63 65 65 65 66 71 75 79 84 85
33 36 39 39 38 36 35 33 34 31 27 33 40 41 36 34 35 37 40 44 47 47 48 50 53 55 58 59 60 61 62 62 62 64 65 65 66 69 73 76 81 84 83 81
34 35 37 39 42 41 37 36 35 33 34 36 40 42 39 37 38 42 45 48 49 50 53 54 55 57 57 58 61 62 62 63 66 66 65 67 70 74 78 82 83 81 81 81
32 35 35 37 41 38 37 38 38 38 37 37 40 41 42 41 43 44 46 48 52 56 58 57 52 55 59 59 59 61 65 64 65 66 68 72 76 79 82 82 81 81 82 84
33 38 37 37 36 40 38 37 37 39 40 42 44 43 43 45 48 51 49 52 59 61 54 51 55 57 56 58 61 64 65 64 66 70 73 77 81 82 81 81 82 83 83 81
36 37 38 38 39 41 41 38 43 46 48 45 47 49 53 52 53 54 53 56 57 48 50 54 53 55 58 62 63 63 65 68 71 75 78 82 81 81 82 82 83 82 78 73
38 40 36 35 33 33 34 36 38 42 49 51 54 50 43 40 45 49 56 47 48 56 54 55 57 60 61 62 64 66 70 73 77 80 81 81 82 82 82 82 80 75 71 71
34 36 37 37 37 35 40 39 43 45 51 55 54 48 53 55 56 48 53 54 55 56 58 59 61 61 63 66 69 73 77 79 80 81 81 82 82 82 81 77 72 70 71 72
33 38 40 39 38 37 34 39 39 41 45 45 45 47 49 51 49 50 55 56 57 59 61 63 65 66 69 73 77 79 80 81 81 82 83 83 82 79 74 71 71 72 74 76
30 34 35 31 31 34 34 36 39 37 37 38 41 45 52 52 55 53 55 59 61 63 65 67 70 73 76 79 80 81 82 82 84 84 83 80 76 73 72 73 74 76 77 78
27 29 30 31 32 32 33 34 35 35 39 43 45 48 49 51 54 57 60 63 65 67 70 73 76 79 81 82 83 83 85 85 85 82 79 76 76 75 76 77 78 79 79 77
25 27 28 30 31 33 35 37 39 42 44 45 46 48 51 55 58 61 63 66 69 73 76 78 80 81 82 84 85 86 86 84 82 80 80 79 79 79 79 80 79 78 75 73
25 27 30 32 33 35 37 38 40 42 44 47 51 54 57 59 62 65 69 72 75 78 80 81 82 83 84 85 86 86 85 84 83 83 83 82 82 82 81 79 77 74 72 69
31 32 33 33 34 37 39 41 44 47 50 53 56 58 61 64 68 71 75 77 79 80 81 83 84 86 88 88 88 87 87 86 86 86 85 84 83 81 79 76 74 71 66 61
32 34 36 38 40 42 45 48 51 53 56 58 61 64 68 72 75 77 78 79 80 82 85 87 89 89 90 90 90 90 89 89 87 86 85 83 81 78 75 71 66 60 55 51
35 38 41 43 46 49 51 53 56 58 61 65 69 72 74 75 75 76 78 81 84 86 88 88 89 89 90 91 91 90 89 88 85 83 81 77 73 69 64 59 55 51 47 43

GFSNGP_500_spd_069.txt.gz
Wind_Speed
33 30 21 22 23 23 23 23 23 16 19 15 17 18 24 25 29 23 27 26 24 26 26 26 27 29 30 33 37 39 39 41 41 41 43 44 45 45 46 48 47 47 48 50
38 36 31 29 27 24 24 23 23 21 20 20 25 30 27 24 25 26 26 25 27 29 30 30 30 31 31 34 36 35 34 36 39 41 42 43 45 45 46 47 46 48 51 53
43 35 34 39 25 27 24 22 23 23 20 17 23 25 23 22 23 27 27 28 29 29 30 31 32 33 32 34 37 37 38 38 39 40 42 43 43 43 44 46 49 51 54 57
42 37 43 37 28 27 25 26 25 24 23 24 25 27 22 22 26 26 28 28 28 28 29 31 32 33 34 35 37 39 39 40 41 42 42 41 42 44 47 49 52 55 59 61
45 40 38 35 33 26 25 27 25 25 25 25 29 27 27 27 29 28 29 29 30 29 30 31 32 32 32 33 35 36 38 40 41 41 41 42 44 47 50 53 56 58 61 64
44 43 44 36 30 25 28 37 18 26 28 31 32 30 31 29 32 32 30 32 33 33 32 31 31 32 33 35 36 37 38 39 40 41 43 45 48 50 53 56 59 61 64 65
45 45 43 37 32 28 36 19 27 30 31 32 33 33 32 33 33 34 34 34 34 34 34 34 33 34 36 38 37 38 39 40 42 44 46 48 50 54 57 60 61 64 65 66
45 45 43 38 30 31 24 31 31 32 33 34 34 33 36 36 37 37 36 34 34 35 36 36 36 37 37 36 38 40 42 43 45 47 49 52 55 59 61 62 63 65 65 67
49 43 41 37 31 33 33 33 34 35 36 34 33 34 35 35 34 35 36 36 35 35 34 34 34 35 37 39 40 43 45 47 48 50 54 57 61 61 63 65 66 66 67 68
44 43 42 41 38 37 36 36 38 38 37 35 36 35 34 35 38 40 40 40 38 36 34 35 36 38 40 43 45 47 49 50 53 56 59 61 62 63 64 65 66 68 68 67
40 39 39 39 32 35 38 39 40 42 39 38 40 39 43 44 41 39 40 41 38 37 37 39 40 42 44 46 48 50 53 56 59 60 62 64 63 63 63 66 68 69 69 70
46 41 40 44 45 38 37 38 36 39 41 41 38 36 38 34 35 39 40 41 40 41 43 43 45 48 51 52 53 54 57 60 61 61 63 63 63 64 66 68 69 70 73 76
41 43 41 41 40 40 45 46 42 37 37 40 39 40 38 35 34 38 40 41 42 43 44 46 47 50 51 53 55 58 61 62 60 63 65 64 65 68 68 68 70 73 77 80
36 36 33 36 31 32 39 39 38 39 41 42 41 40 40 40 40 42 41 41 43 47 48 49 52 54 57 60 62 65 63 60 62 66 65 66 69 69 70 72 74 77 79 83
26 35 37 35 36 39 39 38 40 41 39 39 41 43 43 42 44 45 44 45 48 49 52 55 58 60 62 64 65 61 62 65 65 67 68 68 69 71 73 76 79 80 83 85
24 27 29 32 34 38 40 39 39 37 39 39 40 40 41 44 47 49 49 51 54 57 60 62 64 62 62 57 54 62 62 63 65 67 68 69 71 74 77 80 81 82 85 85
24 26 30 34 37 40 40 40 40 40 39 40 40 41 41 46 50 55 58 58 56 56 55 54 57 53 52 58 60 61 64 65 66 68 70 73 77 81 83 83 83 85 86 86
30 33 36 34 34 36 39 36 36 35 35 36 40 45 49 51 54 54 50 46 47 52 55 50 53 56 59 63 65 67 68 68 70 74 77 81 84 84 85 85 86 86 85 82
33 35 33 33 33 34 34 35 35 38 38 41 43 46 40 40 40 48 47 48 49 51 51 52 57 62 65 66 68 69 71 75 79 82 85 87 87 87 88 87 86 84 81 79
33 31 30 33 33 35 35 37 39 39 36 38 41 43 45 44 43 46 48 49 52 55 58 59 61 65 67 69 73 76 79 82 86 89 90 90 90 89 88 87 83 82 82 81
30 31 32 33 38 39 43 40 37 38 39 44 47 48 50 48 48 50 53 57 59 60 61 63 66 69 73 76 78 82 86 89 91 92 91 91 90 89 87 86 86 85 85 85
23 26 29 33 36 36 36 36 37 38 40 42 44 45 46 48 50 52 54 56 58 61 65 68 72 75 78 82 86 89 92 92 92 92 92 92 92 91 90 88 87 87 86 85
33 31 31 32 31 31 31 33 36 38 41 42 44 46 47 49 50 53 56 60 64 67 70 74 77 81 85 89 91 92 92 93 94 95 95 93 92 91 90 89 88 87 85 82
28 26 26 27 29 31 34 36 37 38 39 42 45 47 50 53 56 59 63 66 69 73 76 81 85 88 90 91 92 93 95 96 95 93 92 92 91 90 89 88 85 82 78 74
27 29 31 32 34 36 38 39 40 42 45 47 50 53 56 60 63 67 70 73 76 81 84 86 88 89 91 92 94 95 94 92 91 89 88 88 89 88 86 82 77 72 68 63
31 32 34 36 37 38 40 42 44 47 50 54 57 60 63 66 69 72 75 79 82 84 86 87 88 90 92 91 89 88 86 85 85 87 88 88 85 80 74 69 64 59 55 50
34 35 37 38 41 43 45 48 51 54 57 60 62 65 67 70 74 78 79 80 81 83 86 87 86 85 83 82 83 85 86 87 88 87 85 80 73 66 60 56 51 48 44 41

GFSNGP_500_spd_072.txt.gz
Wind_Speed
43 38 30 28 26 30 33 29 27 20 21 13 11 21 26 33 24 28 26 20 23 23 25 21 25 25 27 29 31 32 34 36 36 35 38 38 39 43 44 44 45 47 48 48
41 39 36 31 24 26 32 31 26 26 26 21 26 26 27 30 37 38 31 29 23 25 32 26 24 28 29 30 32 33 33 35 36 36 37 41 43 47 43 44 46 47 47 47
46 40 37 46 35 31 32 27 25 25 23 20 20 27 29 35 28 26 26 24 27 30 32 33 29 30 32 33 34 36 37 37 38 40 41 43 44 45 45 46 46 46 47 49
38 44 55 44 43 40 39 33 29 27 25 23 23 28 32 33 25 29 21 26 29 31 32 34 34 34 34 36 36 37 37 38 39 41 42 43 44 45 46 46 46 47 50 52
51 46 48 46 42 37 33 31 30 28 23 23 23 29 33 33 27 33 29 30 32 33 35 35 36 36 38 38 37 37 38 38 39 41 42 43 44 45 46 47 49 51 53 55
36 51 52 43 38 38 33 39 33 22 28 28 28 36 31 29 29 33 35 35 35 36 37 37 37 37 39 39 37 37 37 39 41 43 43 44 46 46 48 50 52 54 57 61
53 47 49 44 36 32 40 35 20 31 31 31 32 37 28 32 34 33 34 35 37 37 38 38 39 39 40 39 39 39 40 42 42 42 45 47 47 49 51 53 54 58 62 63
47 47 54 43 40 41 31 26 32 37 34 33 37 34 33 34 34 35 35 36 36 35 36 38 39 40 40 39 39 40 40 41 43 45 47 48 50 52 54 56 60 62 64 65
59 53 48 37 38 32 30 37 40 42 39 40 41 38 39 37 37 36 36 38 38 38 38 39 40 41 39 39 40 40 42 44 46 48 50 51 53 56 59 61 63 64 66 67
38 45 48 49 43 43 32 31 33 38 40 44 46 43 42 40 39 38 39 42 41 41 42 41 41 41 41 43 43 44 45 47 49 52 56 58 59 60 62 64 66 65 67 68
39 41 45 39 42 36 32 40 37 39 38 39 41 39 41 44 42 40 40 41 42 45 43 41 41 41 44 45 47 47 49 50 52 55 55 58 61 64 67 69 68 69 69 69
38 31 39 42 35 36 41 38 39 36 37 40 43 41 42 42 44 41 40 41 41 36 36 40 40 41 42 46 49 50 52 54 57 59 61 63 67 67 66 68 69 70 70 73
49 46 47 39 39 39 40 40 44 46 44 44 46 46 43 42 42 42 40 42 42 41 41 42 43 43 45 49 52 54 57 60 61 64 65 67 68 66 68 69 68 71 74 76
38 41 39 48 46 45 46 46 40 38 38 40 38 37 39 43 44 44 45 45 45 44 44 46 47 49 52 55 57 59 62 62 65 67 70 66 62 68 68 70 72 74 75 77
25 24 28 32 35 35 33 35 35 36 37 38 37 38 38 41 43 43 44 45 43 44 47 49 52 56 58 59 62 64 66 67 66 65 61 64 70 71 71 73 75 77 80 83
28 24 25 26 28 34 36 37 36 37 38 39 39 40 40 39 40 42 43 43 44 45 50 57 61 61 61 61 61 59 60 60 59 59 65 70 72 73 75 77 80 84 87 89
26 29 28 30 31 30 31 33 35 36 38 39 38 41 43 43 44 44 42 44 49 56 57 54 49 49 49 53 56 58 59 59 62 66 70 72 75 77 79 83 87 90 92 93
27 29 32 33 35 36 34 34 32 34 35 36 39 37 37 38 40 42 44 49 52 46 42 44 46 51 53 53 55 57 62 66 68 70 73 75 79 83 87 90 93 93 94 93
29 33 36 37 39 37 35 34 35 34 33 34 36 38 40 42 45 46 45 44 42 44 48 50 52 53 55 56 58 62 65 68 72 75 79 83 87 90 93 94 95 94 93 93
31 33 34 35 34 34 33 35 35 35 38 41 41 44 40 40 42 43 45 49 52 51 53 55 56 58 61 63 65 69 73 76 80 83 86 90 93 95 95 96 96 96 95 94
31 32 34 36 36 35 33 34 35 39 42 45 44 41 41 45 48 51 52 53 54 56 57 59 61 63 65 68 72 76 79 82 86 90 93 95 96 97 98 98 98 96 93 90
29 26 23 25 27 31 35 38 37 42 42 42 43 42 43 44 46 48 50 52 54 56 58 61 64 68 72 75 79 82 86 89 92 95 97 98 99 99 97 94 91 88 87 86
21 21 24 29 33 36 41 44 43 39 39 39 41 43 45 46 47 48 51 54 57 60 63 66 70 74 77 81 85 88 92 95 97 98 99 98 95 92 89 88 88 88 88 87
28 30 33 36 37 36 34 35 36 38 40 42 43 44 45 47 50 53 56 59 63 66 69 73 76 80 84 87 91 93 95 96 97 95 92 89 89 90 90 89 88 88 86 81
27 29 31 32 33 34 36 38 40 41 41 42 44 47 49 52 56 59 63 67 70 73 76 80 83 86 88 91 93 94 93 90 88 87 88 89 89 88 89 90 88 82 75 67
28 31 32 34 37 39 40 40 40 42 44 47 50 53 57 60 63 67 70 73 76 80 83 84 86 88 89 89 86 84 84 85 85 85 86 87 89 90 89 84 76 67 59 52
30 33 36 38 39 40 41 43 45 48 51 54 57 60 63 66 69 71 74 78 79 81 82 85 86 84 81 79 79 79 80 82 85 87 88 89 88 82 75 67 58 50 44 39

GFSNGP_500_spd_075.txt.gz
Wind_Speed
48 44 39 37 34 33 37 35 34 21 26 25 24 23 30 31 31 28 23 27 31 28 18 15 18 21 25 27 29 31 32 32 33 33 33 34 35 38 39 39 40 43 45 43
56 44 45 34 37 29 29 32 33 29 31 26 22 28 31 27 33 32 26 21 25 25 27 12 12 18 23 27 28 30 32 34 35 35 35 36 36 38 39 43 44 45 46 46
59 57 45 49 39 37 31 31 32 36 35 32 29 31 33 34 34 36 24 16 21 27 26 24 22 23 26 29 31 32 34 34 36 37 38 38 40 41 43 45 46 46 46 46
55 46 58 56 50 41 35 32 27 30 34 36 28 27 30 33 34 38 33 24 24 28 31 32 32 31 32 32 34 34 35 38 39 39 40 40 40 41 43 45 47 46 48 49
49 55 52 53 49 47 44 38 35 37 36 27 29 29 30 33 31 33 30 27 30 30 32 33 35 36 37 36 35 36 38 39 41 41 42 42 43 45 46 47 47 49 50 52
44 57 64 58 49 44 47 47 38 37 35 35 33 35 33 35 30 30 30 30 30 33 35 35 36 37 38 37 38 40 40 41 41 41 43 44 45 47 46 47 49 51 52 54
44 53 52 51 42 50 50 47 37 32 33 35 39 38 35 38 29 29 30 31 33 33 33 35 37 38 39 38 38 40 41 41 42 43 44 45 45 45 47 49 51 53 55 58
46 51 50 42 43 47 44 40 35 35 36 40 39 37 34 34 33 33 34 34 35 37 35 35 35 35 36 36 38 39 40 41 42 44 44 44 46 47 49 51 55 59 60 60
50 48 44 45 37 36 41 47 37 44 46 43 43 43 39 38 35 36 38 40 40 36 37 39 40 39 38 39 41 40 42 42 44 44 44 46 47 50 52 56 58 59 62 64
36 44 50 47 45 47 40 39 36 41 45 45 45 44 43 45 47 47 46 45 40 40 41 43 40 37 39 40 40 41 42 42 44 45 47 49 51 54 55 57 60 61 64 67
34 33 36 38 51 49 46 38 38 34 34 35 37 38 39 39 41 42 42 40 40 39 40 42 42 40 37 37 40 42 41 43 46 49 52 53 54 56 59 61 63 66 68 69
43 34 36 34 37 43 33 34 30 29 29 32 36 38 37 36 41 44 44 43 44 45 43 42 42 39 38 40 42 44 46 49 53 55 57 58 60 62 63 66 68 70 71 68
40 34 32 29 31 36 36 43 32 36 36 34 42 43 42 44 47 49 50 50 46 42 43 43 43 43 41 41 44 46 50 54 57 59 60 62 64 66 68 69 70 71 70 72
29 39 41 39 39 34 35 35 36 37 39 40 42 44 45 47 47 39 34 35 37 41 42 41 41 39 42 46 49 51 55 58 59 62 65 67 67 66 65 66 67 66 72 76
30 34 39 38 42 45 45 45 48 49 46 45 44 44 42 38 36 37 38 37 39 41 41 42 44 43 46 49 55 57 59 63 64 63 63 63 64 66 66 65 68 74 78 80
32 30 26 28 32 33 32 32 33 35 36 37 38 36 36 37 36 37 39 42 45 45 45 46 45 45 51 57 59 56 53 55 57 60 65 66 65 66 70 74 77 79 82 85
34 30 27 28 26 26 27 29 30 32 34 36 35 35 35 36 38 40 41 41 41 43 44 45 48 51 55 55 49 51 54 56 60 60 62 66 69 71 73 76 80 84 87 90
34 30 30 33 33 34 35 35 34 33 32 32 32 33 36 39 42 43 44 44 45 47 49 51 51 48 49 52 54 55 58 61 62 63 66 68 72 76 80 83 87 90 93 95
29 30 33 34 35 36 36 36 35 35 34 36 37 39 37 37 40 42 42 43 44 47 48 49 52 55 55 54 56 58 60 63 66 69 72 76 80 84 87 90 93 96 97 98
27 28 30 32 33 34 36 37 37 37 38 39 38 37 39 42 42 42 44 45 46 48 53 56 55 55 56 58 60 63 66 69 73 77 80 84 87 90 93 96 98 99 99 96
28 30 32 33 32 33 35 38 39 40 41 40 39 39 41 44 45 44 44 45 47 48 50 52 55 57 59 62 65 68 72 76 80 83 86 89 93 95 97 98 99 97 94 91
32 32 31 32 32 33 34 35 35 35 35 37 41 46 46 43 43 44 45 46 48 49 52 55 58 62 65 68 72 76 79 83 86 89 92 94 97 97 97 96 93 91 90 89
31 29 30 33 33 29 26 25 32 38 40 43 46 42 41 42 44 46 47 49 51 54 57 61 64 68 71 75 79 83 86 89 91 93 95 95 94 92 91 89 88 88 89 90
31 32 30 28 27 27 30 34 37 39 40 39 40 42 44 45 46 48 50 53 57 60 64 67 70 75 78 82 85 87 90 92 93 92 90 88 87 86 87 89 90 90 89 88
22 24 25 27 30 33 35 36 37 38 40 42 43 44 45 47 51 54 57 60 64 67 70 73 76 79 82 85 87 89 90 88 85 83 82 83 85 87 89 88 88 87 82 75
25 28 30 31 33 34 35 35 36 39 42 43 44 47 50 54 57 60 64 67 69 72 74 77 81 83 84 85 83 81 79 78 78 81 83 85 85 85 85 83 78 70 62 54
27 29 31 33 34 34 36 38 41 42 45 48 51 54 57 60 63 65 66 68 71 74 78 79 80 80 78 76 74 73 74 77 79 81 82 82 82 80 73 64 56 48 39 31

GFSNGP_500_spd_078.txt.gz
Wind_Speed
43 36 42 55 57 49 43 39 40 38 39 34 31 27 28 29 31 36 33 30 23 18 23 25 25 22 22 21 21 21 22 24 24 24 26 30 31 31 34 36 40 40 42 43
43 36 45 57 57 55 41 40 38 38 38 31 28 36 36 34 35 33 31 32 20 21 25 16 24 23 23 25 27 29 28 27 28 29 30 30 32 34 36 38 40 42 43 45
45 36 46 59 55 56 48 47 37 39 33 29 33 29 29 35 35 32 28 30 27 18 21 17 17 22 23 26 28 28 31 33 34 35 36 37 37 37 40 41 42 44 45 47
41 40 51 53 54 52 49 42 42 34 34 37 38 38 37 35 37 38 33 28 28 24 24 25 27 26 27 28 30 31 33 33 33 35 38 39 39 40 42 43 44 46 47 48
47 42 42 54 58 45 46 48 41 37 33 32 34 37 36 34 35 37 33 29 28 25 26 27 32 33 33 34 34 35 36 36 36 37 38 39 41 42 44 46 47 47 47 47
31 38 40 42 56 55 51 42 40 38 35 37 36 34 31 34 34 33 32 32 29 29 30 29 30 32 33 34 36 38 39 40 40 39 39 41 43 45 47 47 47 48 47 49
37 33 39 38 45 49 57 54 47 46 41 39 37 36 36 40 40 37 32 32 31 31 31 30 31 32 32 34 36 38 39 39 40 41 44 45 45 46 47 48 48 48 50 52
39 39 42 36 36 46 48 51 51 52 52 45 42 42 42 40 40 40 38 36 34 36 37 36 37 37 37 35 36 39 39 41 42 44 45 45 47 47 48 48 49 51 52 54
40 38 35 34 35 41 36 50 48 51 51 53 43 46 44 43 45 47 46 44 43 42 41 41 41 41 41 41 41 39 39 43 44 44 44 45 47 49 51 53 52 54 57 59
25 26 33 38 37 38 43 35 38 42 46 50 55 56 51 47 50 48 45 44 44 45 46 44 41 40 40 39 40 41 39 38 40 43 45 46 48 51 53 55 58 61 62 63
24 22 24 33 40 41 40 36 36 36 35 40 44 47 48 50 46 43 41 40 38 35 36 38 41 44 44 43 42 41 40 42 44 46 47 48 50 52 55 57 58 60 63 67
32 30 27 29 33 42 43 40 42 37 37 35 44 42 40 37 37 37 37 37 37 40 43 46 50 53 53 48 44 45 46 48 48 48 48 51 53 56 58 62 65 68 71 73
36 35 34 33 32 27 33 28 31 37 31 33 30 43 34 38 35 37 40 43 44 49 53 54 44 41 44 44 42 42 42 46 48 48 52 56 61 63 66 69 71 71 70 71
39 39 39 34 33 30 31 31 37 40 38 36 34 39 39 46 44 43 45 47 49 49 44 43 43 43 44 44 45 47 49 55 53 55 59 63 65 67 67 66 66 67 69 70
38 37 38 29 32 36 33 33 32 30 30 30 32 36 41 44 45 47 49 48 43 41 40 42 44 47 48 48 49 50 52 53 56 60 65 64 61 61 62 65 67 68 70 73
42 37 36 28 26 22 24 29 32 35 38 39 40 41 41 40 41 40 37 35 37 40 44 46 46 43 44 47 50 52 54 58 57 56 58 61 63 64 65 68 70 73 76 79
32 38 34 28 27 25 27 27 29 31 33 34 34 35 36 37 38 36 36 38 40 43 46 45 47 47 50 53 55 57 58 55 58 59 61 63 64 67 70 73 75 79 82 86
29 29 29 28 29 33 32 30 31 33 33 34 34 33 33 33 34 36 40 42 41 41 42 44 48 49 52 54 56 57 62 63 62 61 63 66 69 72 75 79 82 86 90 93
30 30 31 31 34 37 38 37 38 38 37 36 34 33 34 36 39 41 41 43 45 46 45 45 49 52 55 57 60 61 59 61 63 66 69 72 75 79 83 87 91 94 96 97
28 32 32 33 35 37 36 36 37 37 37 37 37 36 38 39 40 40 42 42 41 44 49 53 53 54 55 55 58 60 62 65 69 72 76 79 83 86 90 92 94 97 98 99
30 31 31 31 29 31 32 33 35 37 36 37 39 40 40 40 40 40 41 44 48 51 51 51 51 53 55 58 61 64 68 71 75 78 81 84 87 91 94 97 98 98 96 94
32 32 28 27 30 31 32 32 33 34 35 37 36 33 33 36 38 42 45 45 48 47 48 51 53 56 60 63 67 71 74 77 79 83 86 89 92 94 95 93 92 91 90 90
27 30 31 31 30 26 26 31 32 34 33 33 32 34 37 38 41 41 43 45 46 48 51 55 59 63 66 69 72 75 78 82 85 88 90 90 89 88 87 86 88 90 90 90
33 34 32 25 24 31 30 30 32 33 33 31 34 37 39 39 40 41 44 47 50 54 58 62 65 68 71 74 76 79 83 85 86 86 85 83 82 83 85 87 87 87 86 86
31 27 27 30 36 38 34 31 32 32 35 37 38 38 38 40 43 45 48 53 57 61 64 67 69 71 73 76 79 82 82 81 79 77 76 78 81 83 83 83 82 82 77 68
30 31 30 30 29 27 29 32 35 37 38 38 38 40 43 46 49 52 55 59 63 66 67 68 71 73 77 79 79 76 73 71 72 74 76 78 79 79 78 78 73 64 56 49
26 26 27 29 31 33 34 36 37 37 37 39 42 46 49 53 55 58 61 63 65 66 68 71 73 75 74 71 69 67 68 70 72 74 75 75 73 73 71 63 54 47 41 35

GFSNGP_500_spd_081.txt.gz
Wind_Speed
63 58 51 52 52 54 52 48 51 43 45 37 35 30 32 27 28 30 30 28 26 15 14 17 22 22 21 20 23 25 25 23 22 23 26 27 30 30 30 30 32 35 36 36
59 61 56 52 55 51 51 52 53 52 48 38 39 33 32 28 29 35 33 30 26 20 19 13 19 19 18 25 27 27 27 27 28 28 29 32 33 33 34 35 37 39 40 41
60 57 57 53 50 54 57 54 52 54 50 38 41 44 39 38 38 36 37 38 35 28 23 18 21 24 21 23 25 26 28 30 32 33 34 35 35 35 36 38 40 41 42 44
54 56 56 52 45 41 46 52 55 56 56 53 46 42 39 37 33 38 37 35 32 31 30 25 24 28 27 26 28 30 32 35 36 37 39 40 40 40 41 42 44 45 47 48
52 52 50 50 49 36 42 46 53 56 60 54 48 40 43 37 36 33 31 30 33 35 36 31 27 29 28 28 30 32 35 37 39 39 39 40 42 43 45 45 46 47 49 51
14 39 37 39 48 41 43 46 50 54 50 44 42 47 39 36 36 31 27 27 27 31 35 32 31 32 33 30 30 32 34 36 38 39 40 41 41 42 44 46 48 50 51 53
32 25 39 39 39 39 43 46 42 47 54 47 37 38 35 34 36 32 29 30 30 31 35 35 35 36 34 35 36 37 38 39 40 40 40 42 44 46 47 49 50 51 54 54
18 25 38 29 26 40 37 39 40 51 39 39 39 39 36 39 39 33 31 33 35 36 37 39 39 38 38 41 43 42 44 45 46 45 45 45 47 49 51 51 51 53 54 55
42 11 38 34 33 30 26 31 45 38 42 34 38 42 42 42 41 36 36 39 39 43 43 42 41 42 42 44 45 45 44 45 45 45 47 49 50 49 50 52 54 56 55 56
36 22 32 23 30 31 33 31 30 35 47 46 50 50 52 54 56 43 41 43 46 46 46 47 43 41 40 39 40 41 43 45 48 51 51 52 51 52 53 55 57 58 57 57
43 6 15 22 29 33 29 35 30 26 31 31 41 46 44 52 49 50 50 51 53 52 46 43 42 42 42 43 45 46 49 53 57 57 52 51 53 55 57 58 58 58 61 64
40 29 16 10 17 26 35 36 34 33 34 31 24 30 40 43 48 48 49 51 50 49 47 43 43 43 45 53 54 53 50 46 48 49 48 48 54 56 60 61 62 64 66 71
42 27 23 15 12 19 25 30 37 41 41 34 36 40 37 37 32 37 48 45 43 41 42 45 52 54 54 56 55 51 47 48 47 49 49 54 61 60 64 67 69 68 70 72
44 39 33 26 23 21 15 19 23 25 35 40 34 39 44 43 36 45 49 46 45 49 54 56 53 53 55 56 51 47 49 51 51 50 51 53 55 57 60 64 67 67 67 71
61 56 43 36 26 30 24 22 24 24 33 34 35 32 35 35 35 37 45 49 50 49 51 52 50 47 43 44 48 52 53 52 52 54 57 59 60 62 65 66 68 71 73 74
60 65 64 44 33 32 23 23 25 32 34 32 30 29 30 33 34 37 40 41 43 44 43 41 38 40 44 47 48 48 48 51 53 56 58 59 62 65 69 71 73 74 76 78
43 53 46 47 36 30 27 24 27 26 24 25 27 29 31 31 32 34 35 36 37 37 36 38 42 46 47 47 48 48 49 52 57 61 63 66 67 67 69 72 75 78 81 85
35 41 38 36 37 39 35 30 29 27 24 27 28 29 29 30 31 31 33 34 35 37 41 45 47 47 48 47 47 49 54 59 61 62 63 64 67 70 73 77 81 84 88 91
31 34 36 35 37 37 32 32 28 29 30 30 31 32 32 32 32 33 36 38 42 44 45 44 45 45 45 47 53 56 57 59 60 62 65 68 72 75 79 83 86 89 92 95
25 30 35 38 35 32 31 34 36 34 34 34 33 34 34 35 37 38 41 43 44 44 45 44 44 48 51 52 54 54 56 60 63 66 70 74 77 81 84 87 91 93 95 96
28 28 32 35 34 34 36 38 35 34 32 33 33 34 36 39 40 41 43 44 42 40 40 43 48 50 51 53 55 58 61 65 68 72 75 79 82 85 89 91 92 93 94 93
31 18 27 32 35 36 37 35 33 31 31 32 33 35 37 38 39 38 36 36 38 40 44 47 48 50 52 55 59 63 66 70 74 77 80 83 86 88 88 89 88 87 86 88
30 38 33 31 33 37 36 30 30 31 29 31 34 37 37 37 38 34 34 39 43 45 47 48 51 54 57 61 65 69 72 75 77 80 83 84 84 83 82 80 81 84 85 85
29 32 34 35 37 31 28 31 33 32 36 35 35 36 39 36 35 38 41 43 44 47 49 52 56 60 63 67 71 74 76 78 79 79 79 79 77 76 77 80 81 81 79 77
26 28 32 29 29 34 31 29 30 38 40 40 41 37 35 37 39 41 42 44 48 51 54 57 61 65 69 72 74 75 76 76 75 73 71 71 73 75 77 76 74 71 71 67
25 29 30 30 28 27 30 35 37 37 36 35 36 37 38 39 41 43 46 49 52 55 58 62 66 69 70 72 73 72 71 69 68 67 68 71 73 73 70 67 65 63 59 53
28 28 29 31 33 35 35 33 32 33 35 36 37 39 41 43 45 48 50 53 56 60 64 66 67 69 70 69 67 65 62 62 63 66 69 70 68 64 61 59 56 52 47 43

GFSNGP_500_spd_087.txt.gz
Wind_Speed
52 52 51 47 48 49 51 51 54 51 49 49 36 32 23 25 29 33 30 27 24 25 21 21 15 18 22 22 22 23 25 24 24 24 24 24 23 24 26 27 29 32 33 35
57 56 55 58 53 50 54 55 58 57 54 54 46 34 32 28 30 32 33 28 25 25 21 22 22 19 18 21 22 23 21 21 23 25 25 25 26 26 28 30 33 35 36 39
55 53 55 58 55 54 53 55 58 59 56 51 50 43 40 34 33 36 37 33 28 26 26 21 25 27 22 19 20 23 22 22 24 26 26 27 29 31 32 34 36 38 40 41
32 34 46 51 51 54 52 50 55 58 57 53 53 49 40 39 39 40 38 32 37 31 30 31 28 31 28 23 21 21 20 21 23 26 29 30 32 34 36 37 38 40 42 44
26 29 31 37 37 37 39 42 47 51 52 53 52 48 48 30 41 43 39 33 37 37 32 29 30 32 29 26 23 22 22 21 24 26 28 30 31 33 35 37 39 41 43 45
30 32 32 30 38 27 30 32 38 45 46 49 53 54 47 38 40 40 43 42 37 31 33 31 33 31 29 27 27 25 24 25 27 29 30 33 38 40 42 45 47 49 49 47
29 32 32 35 39 30 24 27 31 37 42 45 47 48 50 44 42 46 46 41 38 40 31 34 37 30 30 30 29 26 28 32 36 41 38 39 42 45 45 44 43 44 44 46
21 21 16 19 36 41 31 18 34 35 39 42 44 44 45 41 39 39 38 38 40 34 37 35 34 39 36 33 32 32 35 37 39 37 39 43 42 40 40 39 41 44 48 52
19 22 12 19 33 46 44 18 31 38 35 37 41 45 39 41 35 36 40 42 46 39 41 38 40 40 41 38 40 39 44 40 39 40 40 41 42 43 44 47 49 51 53 56
21 17 30 34 27 25 37 30 22 26 23 35 36 39 41 37 35 41 44 51 50 46 42 47 47 46 46 37 39 44 43 42 39 39 42 42 44 44 49 53 56 56 57 58
21 21 25 31 28 25 25 30 23 32 22 24 29 35 35 40 36 40 49 54 46 42 37 37 39 42 43 45 47 51 45 42 42 44 48 46 47 50 54 57 58 57 55 54
13 18 22 22 24 21 23 20 22 28 23 27 21 25 33 34 38 37 37 32 31 34 38 38 43 41 43 41 43 45 36 41 46 49 50 52 56 61 63 55 52 53 55 57
14 19 16 15 26 27 19 15 16 24 22 25 27 22 28 30 35 35 37 37 39 40 41 44 46 44 48 53 57 53 51 45 55 54 55 58 60 54 51 49 50 52 54 56
19 16 18 14 26 31 29 21 23 25 22 21 25 34 24 19 35 33 28 26 29 38 37 43 42 42 42 46 52 56 57 59 61 59 54 49 46 46 48 52 54 56 56 56
25 23 19 20 20 36 33 23 21 20 21 18 13 18 27 27 28 33 34 31 35 32 40 41 45 45 45 50 52 55 52 54 54 48 43 44 46 49 52 53 54 56 59 63
27 27 27 19 17 34 42 32 24 20 18 16 16 21 19 22 26 32 36 41 45 41 45 41 42 44 47 46 48 49 40 38 39 40 44 47 51 52 53 54 57 60 64 68
28 28 32 29 23 22 41 43 32 24 22 18 19 22 21 21 20 23 26 35 37 39 44 46 46 45 46 44 39 35 36 38 42 46 49 50 52 53 54 57 63 66 69 71
31 30 34 32 28 23 26 36 39 35 30 31 30 25 23 23 24 27 26 27 34 32 36 37 33 31 31 32 36 41 45 46 48 48 50 50 51 54 60 64 67 70 73 77
33 32 31 31 25 21 22 28 32 38 35 34 37 37 36 36 34 30 29 28 32 35 35 34 34 35 38 42 44 46 47 48 47 47 48 52 57 62 65 67 71 75 79 83
35 35 32 29 27 22 24 22 21 29 36 38 39 39 38 39 38 35 33 32 34 35 36 37 39 40 42 43 45 46 46 46 48 50 53 58 62 66 68 72 76 80 85 90
36 31 29 29 28 25 25 22 26 24 26 40 40 41 39 37 35 34 33 35 36 38 39 39 41 41 41 43 45 48 50 50 51 55 59 63 66 69 73 76 81 86 91 94
26 26 27 29 30 25 25 21 26 29 37 43 41 39 38 37 37 37 35 36 38 39 40 39 42 42 44 47 49 49 49 53 56 60 64 67 70 72 76 81 86 90 92 91
24 25 27 28 24 20 27 29 31 33 37 34 40 36 38 39 39 40 38 38 39 41 41 44 44 44 48 50 50 51 54 57 60 64 67 69 72 76 81 85 88 87 84 80
18 15 13 18 20 22 25 27 20 28 32 36 34 34 37 37 39 36 35 37 40 43 46 45 46 47 49 50 51 54 57 61 63 65 68 71 75 80 83 82 79 75 74 74
22 23 23 23 26 18 20 24 24 25 26 30 31 28 29 31 33 35 38 40 42 42 42 43 44 46 49 52 55 57 58 60 64 67 71 74 77 77 74 71 69 70 70 68
22 23 21 23 23 23 23 25 26 25 26 28 29 31 33 35 37 39 40 40 39 40 41 44 47 50 52 54 55 57 60 63 65 68 71 72 70 67 64 65 66 67 64 59
16 17 17 18 21 25 25 26 28 29 29 30 34 36 38 38 37 36 35 37 39 43 45 48 50 51 52 54 56 58 60 62 65 65 64 62 59 59 61 63 64 61 55 51

GFSNGP_500_spd_090.txt.gz
Wind_Speed
35 34 37 37 39 40 43 44 46 44 45 43 42 35 34 31 31 29 26 26 28 28 27 27 17 19 16 17 17 17 18 21 23 23 26 26 26 24 24 24 25 28 29 30
38 37 37 39 39 42 43 44 49 51 50 47 45 37 35 31 33 33 30 35 34 29 29 27 21 23 23 19 18 20 21 20 20 23 25 27 26 26 26 27 30 31 32 34
39 39 40 39 40 43 42 45 50 52 51 48 49 45 40 35 33 34 34 34 35 32 29 25 24 24 23 24 25 23 23 23 23 21 20 21 24 25 27 29 31 33 36 39
36 36 38 36 40 46 45 47 52 54 55 53 54 49 47 40 39 39 37 37 36 35 32 35 30 31 25 28 27 25 26 26 25 24 23 22 22 23 28 31 33 36 39 41
31 31 31 29 28 39 44 41 51 54 54 55 54 54 53 48 43 42 39 38 40 39 37 40 40 33 38 34 37 28 29 29 29 26 25 25 25 25 28 31 34 37 40 44
29 27 28 28 29 29 28 35 30 42 45 44 49 53 51 45 45 43 45 43 44 40 39 38 38 38 42 37 42 32 33 30 31 31 31 30 29 30 33 36 38 42 45 47
28 28 24 27 30 33 29 34 36 34 34 39 43 47 48 44 43 44 42 44 41 35 42 38 40 39 44 43 42 35 34 33 32 34 37 36 36 41 35 36 43 45 45 44
26 27 23 22 28 25 28 36 37 32 34 31 37 38 41 39 40 39 41 44 42 41 39 41 43 38 43 43 44 41 37 36 35 38 40 41 43 38 36 42 45 45 45 46
23 22 18 19 18 18 21 26 32 30 26 31 37 33 37 37 37 36 36 39 42 41 40 42 41 42 44 49 46 42 41 43 43 45 47 51 42 40 40 43 46 48 46 46
17 16 18 12 20 25 23 17 22 33 15 25 32 30 32 36 34 35 35 38 35 38 38 39 39 41 43 54 51 46 46 49 49 51 49 46 53 53 47 46 50 52 51 54
8 12 24 22 25 25 31 14 16 24 35 31 36 29 28 33 34 35 34 33 35 36 40 43 45 49 51 55 58 55 55 55 53 49 52 58 58 51 50 52 55 57 57 61
8 13 14 15 24 19 23 26 13 16 20 17 24 21 23 29 26 31 35 36 36 39 41 49 52 55 55 59 59 57 51 48 50 51 52 59 60 58 66 64 60 65 66 61
13 13 12 14 13 12 21 22 21 20 19 21 21 25 23 15 26 31 36 37 39 37 44 52 64 65 61 49 44 46 50 50 51 53 60 65 67 65 59 64 65 65 57 52
17 16 12 15 13 12 16 29 23 20 14 17 25 31 35 31 17 17 35 31 34 47 39 31 35 35 40 49 52 56 57 58 61 56 58 62 56 62 63 57 51 48 50 52
21 20 15 17 16 15 16 23 30 22 21 19 22 25 20 26 24 20 14 16 22 30 30 34 34 41 45 50 56 52 49 52 56 58 59 61 59 56 50 48 49 52 54 55
23 23 23 21 20 19 20 21 27 32 26 23 19 16 8 15 18 16 19 23 22 24 30 29 33 34 32 35 40 48 57 59 57 55 49 46 45 45 48 52 53 55 55 54
25 26 27 26 25 24 24 25 25 31 33 29 25 22 17 15 17 15 14 11 14 14 18 29 30 30 24 37 46 50 53 51 50 48 45 44 45 48 52 55 54 54 56 60
30 31 31 29 30 29 29 28 28 30 36 35 29 26 24 21 18 16 14 10 15 21 23 25 26 24 33 35 32 36 39 41 44 45 47 48 51 52 53 54 55 58 62 67
34 34 33 33 33 32 30 28 29 31 32 42 31 30 32 30 28 26 25 25 29 31 30 32 31 33 36 36 38 40 42 43 46 48 49 49 51 53 55 57 59 63 68 73
43 45 41 36 33 32 29 29 27 30 33 37 42 42 37 34 35 33 34 34 32 34 35 36 37 37 39 40 43 44 45 45 45 46 49 52 52 53 55 59 64 68 73 76
36 38 37 34 34 34 31 30 26 26 26 24 28 32 39 35 37 38 37 41 40 39 39 40 40 40 42 43 44 45 46 48 48 49 50 52 54 57 60 64 68 72 75 78
36 36 35 35 35 33 30 28 27 24 21 22 23 28 29 37 36 31 36 41 41 39 40 43 44 43 44 45 46 48 48 49 50 54 54 54 56 59 63 68 70 73 76 80
27 28 30 29 28 26 26 27 28 28 24 24 25 30 29 39 37 40 39 38 39 40 42 45 47 45 45 48 49 47 48 50 52 54 55 57 61 64 67 69 72 75 77 78
18 17 19 23 24 26 25 24 21 26 29 32 40 35 35 39 50 53 43 41 40 42 47 47 44 45 46 47 48 45 47 50 53 55 59 62 63 64 67 70 72 73 73 72
19 18 17 17 15 16 18 22 26 27 34 35 43 42 47 43 40 38 38 39 44 46 45 45 45 45 45 46 47 48 50 53 56 58 60 61 62 65 67 68 68 67 65 64
15 18 20 22 25 23 24 28 27 28 28 23 23 28 32 35 37 38 39 42 45 46 45 44 43 43 45 47 49 51 52 54 56 57 58 61 63 64 64 63 61 59 60 61
15 18 22 26 28 27 26 25 27 29 28 29 31 33 35 38 39 40 41 42 43 41 40 41 43 45 47 49 50 51 53 54 56 58 60 61 61 60 57 55 54 56 58 59

GFSNGP_500_spd_093.txt.gz
Wind_Speed
28 31 32 31 33 36 35 35 36 33 35 31 33 34 31 29 30 28 31 31 29 28 28 27 25 24 26 27 23 18 15 14 14 16 20 22 23 25 26 26 26 25 25 28
30 28 30 32 32 34 36 39 41 42 40 40 39 35 30 28 32 32 31 36 33 31 30 29 26 27 27 25 25 22 18 17 18 18 20 21 24 27 28 27 27 28 29 30
28 28 32 31 27 30 32 34 37 39 39 41 41 38 36 32 33 31 33 32 35 37 35 32 29 30 32 25 23 22 25 23 21 22 23 24 24 24 25 27 29 31 33 33
30 30 29 28 28 28 29 31 32 33 39 41 40 39 37 33 32 35 38 40 38 35 37 37 35 36 34 30 29 26 26 25 25 26 26 26 28 28 27 29 30 32 33 34
29 30 27 27 29 28 28 26 31 34 37 39 43 42 39 35 33 41 39 43 40 41 39 39 41 38 36 40 41 34 32 31 32 30 30 30 31 31 30 31 30 31 33 36
29 26 24 23 28 24 25 27 27 33 37 43 49 48 44 47 48 46 41 41 45 43 45 43 41 43 41 47 42 41 44 33 34 37 34 32 34 34 34 35 35 36 40 44
22 24 24 21 22 23 25 27 30 33 37 43 49 53 48 45 44 49 35 37 40 47 48 48 46 43 44 40 43 44 41 41 44 43 43 37 36 37 39 40 41 44 47 43
20 24 22 21 20 22 24 27 32 36 36 39 43 47 48 44 45 42 41 35 40 45 49 50 48 45 45 46 46 46 46 47 48 46 49 42 40 40 42 44 47 49 46 46
19 21 23 20 20 23 24 22 27 30 37 42 41 44 42 37 37 38 39 36 36 44 49 49 46 44 41 45 48 49 48 49 49 53 55 49 48 45 49 51 52 57 59 58
23 21 20 24 22 20 20 21 25 22 24 30 38 35 38 36 35 36 36 34 33 37 47 52 49 44 43 46 50 49 49 49 53 51 51 54 52 56 57 59 60 62 62 61
19 14 19 21 23 27 25 26 33 27 23 20 34 37 30 26 37 32 34 35 33 37 40 47 49 45 46 46 50 49 50 54 53 58 62 59 64 60 59 60 67 57 60 68
14 16 12 10 15 18 19 26 28 31 21 18 16 21 24 26 32 33 34 35 36 37 39 46 46 43 44 45 48 48 52 56 57 61 60 66 66 64 70 60 61 62 69 75
18 17 9 10 6 8 15 19 18 31 20 18 14 16 27 33 30 35 25 32 34 38 36 34 38 40 39 44 47 52 51 57 58 61 68 65 61 60 60 66 68 71 71 73
21 18 13 15 12 15 13 11 16 25 20 20 11 19 20 21 26 31 22 23 23 33 39 40 42 42 47 55 54 58 66 70 64 52 52 55 60 68 70 72 68 64 68 68
23 20 18 21 19 16 16 12 11 16 23 26 16 14 13 14 15 21 17 18 20 34 38 37 42 45 42 52 51 44 42 46 55 61 61 57 57 57 61 66 68 63 61 60
25 24 23 22 23 21 20 19 18 16 18 25 29 21 12 8 16 11 12 15 11 16 19 19 17 20 20 23 35 40 46 47 48 46 45 43 42 41 40 38 40 45 50 53
27 29 28 26 26 25 24 25 24 23 22 22 29 32 23 9 20 16 14 13 17 15 13 16 15 16 19 17 22 30 27 21 21 25 30 35 39 42 43 46 48 51 53 55
27 28 29 29 30 30 30 28 30 27 28 26 24 31 35 26 22 25 19 15 16 13 13 19 16 19 23 26 26 25 28 32 33 37 42 43 44 47 49 50 51 54 55 57
32 33 35 36 36 36 37 36 34 32 31 31 29 27 37 37 32 31 27 27 21 23 23 21 25 28 29 31 33 33 36 39 40 42 46 48 49 52 53 55 55 55 57 59
36 38 40 41 42 42 41 42 39 37 35 32 31 30 31 38 34 35 34 31 30 31 29 30 32 34 36 38 41 41 42 43 44 47 49 49 51 53 55 57 58 59 60 60
37 39 42 43 42 43 45 47 46 41 36 34 30 32 31 29 37 40 40 37 36 36 35 33 34 36 39 41 41 41 43 46 49 50 51 54 56 58 60 60 61 61 61 63
33 36 38 38 38 38 35 35 39 38 36 35 31 29 29 35 37 34 32 34 32 32 30 32 34 36 38 40 42 43 46 48 49 51 52 53 55 55 56 58 59 61 62 65
34 34 33 30 31 31 33 34 35 35 35 32 31 29 27 28 29 31 38 32 43 44 34 36 35 37 41 42 43 46 47 47 49 51 54 54 54 55 56 59 61 62 64 67
31 33 31 27 24 26 25 27 29 29 30 30 32 34 35 34 36 33 34 39 43 44 42 44 48 49 44 45 47 50 51 53 53 54 54 54 55 57 60 62 63 64 67 69
30 27 27 26 24 19 17 19 22 24 25 28 28 33 36 36 40 41 42 48 40 47 44 42 43 44 46 49 52 54 54 53 53 53 54 56 58 61 62 61 63 65 67 67
28 26 24 23 21 18 18 19 19 20 23 27 28 31 35 41 44 43 39 43 45 46 45 44 45 46 49 51 50 49 48 49 52 54 56 58 59 60 61 62 63 64 63 61
24 22 21 19 20 21 22 23 24 26 28 30 32 32 32 29 29 31 34 36 38 40 42 44 45 45 45 45 46 47 49 51 54 56 58 59 60 61 61 61 60 59 56 53

GFSNGP_500_spd_096.txt.gz
Wind_Speed
29 30 29 29 29 27 28 29 30 24 33 40 28 31 24 27 26 23 23 23 24 28 29 30 26 23 21 18 19 19 15 16 17 17 17 17 18 20 21 21 22 24 26 25
31 31 29 28 26 27 31 35 36 42 32 30 29 27 26 24 36 30 31 28 30 31 34 31 30 27 25 25 23 21 18 17 19 20 20 20 21 22 24 24 26 27 27 26
31 28 27 26 23 27 27 30 34 35 32 35 34 33 33 30 30 37 40 35 31 31 35 36 32 30 31 28 28 23 23 21 20 22 20 22 24 24 24 25 25 26 28 31
23 25 28 22 22 26 26 25 27 31 31 31 35 35 32 34 33 34 37 35 38 38 38 37 39 39 35 34 30 27 27 26 26 25 23 23 24 25 25 27 30 30 32 33
27 25 25 24 22 24 24 26 27 27 27 28 29 24 24 28 29 31 33 35 40 40 40 39 36 37 36 43 40 34 32 33 32 29 29 28 27 29 31 30 32 34 36 36
25 25 22 22 24 22 21 24 25 25 25 24 25 27 25 26 26 29 31 32 37 41 40 40 36 39 37 39 39 39 38 37 37 39 40 33 32 32 35 36 37 38 39 40
25 27 23 20 26 18 22 26 27 29 27 28 27 30 29 30 34 34 36 36 36 35 43 42 40 43 43 45 44 40 40 40 41 43 43 45 40 35 41 46 42 42 41 42
22 23 21 21 25 25 24 23 24 25 24 23 28 31 35 36 38 42 41 41 39 43 44 44 47 47 47 47 46 47 46 48 47 47 47 41 44 45 46 48 50 45 45 45
16 15 17 20 23 24 26 24 23 23 24 23 22 33 38 42 42 43 44 44 43 43 44 43 46 52 52 53 51 50 49 50 51 52 49 50 46 50 51 57 58 52 51 52
8 12 15 17 18 24 24 26 25 25 23 23 27 31 34 39 45 39 40 41 41 42 47 50 54 55 55 55 55 54 52 52 56 56 54 54 53 56 56 51 54 54 58 61
23 25 21 22 22 23 24 23 20 23 28 29 32 31 32 31 31 35 37 35 37 40 42 47 52 54 56 56 54 53 53 52 53 56 57 56 58 59 56 64 58 60 67 71
18 22 22 19 19 18 18 24 23 26 32 35 37 29 31 25 25 24 30 34 33 33 38 40 44 48 49 53 56 54 53 54 54 56 59 60 61 60 62 62 64 70 76 76
27 25 24 18 18 12 7 10 18 23 31 35 28 28 21 22 19 20 30 27 30 34 35 38 41 43 43 42 43 47 50 53 56 55 54 57 57 61 59 68 72 71 72 65
29 28 21 18 18 18 16 11 12 16 20 20 25 22 17 15 18 16 15 15 27 28 31 35 38 40 38 37 40 43 42 43 47 50 48 54 55 63 67 68 68 62 62 62
28 25 22 23 21 19 17 17 17 15 15 14 23 29 27 16 13 15 12 10 9 17 23 29 26 33 40 43 40 41 43 48 56 57 57 63 54 45 39 39 39 40 38 37
28 26 25 24 22 23 22 21 21 20 16 19 17 18 26 29 19 13 11 11 11 13 10 9 11 22 30 26 27 19 17 22 28 25 29 26 30 22 22 26 30 35 38 42
29 27 27 27 27 26 26 25 24 24 23 25 24 22 21 22 30 21 12 15 15 11 9 13 10 11 17 18 20 20 21 24 23 23 25 20 23 29 34 37 39 42 44 47
28 28 29 30 30 29 29 29 29 29 29 29 30 29 25 25 27 34 29 13 20 20 18 20 16 17 19 21 23 24 25 27 27 31 30 33 35 36 39 43 47 48 49 51
25 27 28 28 29 30 31 33 34 35 34 34 35 35 33 31 28 30 33 25 25 29 29 25 21 19 21 20 23 24 26 29 32 34 36 38 40 41 45 48 49 50 53 54
27 29 30 32 33 35 37 38 39 41 42 42 41 40 40 38 34 31 30 35 24 29 33 34 34 33 31 29 29 31 33 35 36 36 38 40 41 43 46 49 50 52 54 56
29 31 33 34 36 38 41 44 45 47 49 49 48 46 42 41 37 35 31 32 31 28 28 33 35 38 37 38 35 34 35 36 37 39 40 40 43 46 46 49 52 54 55 57
33 34 35 35 36 38 39 41 43 45 45 44 44 44 41 39 36 34 33 30 30 32 38 27 27 33 33 30 33 33 33 35 40 41 42 44 46 47 49 50 52 54 54 56
37 37 34 34 37 39 37 36 38 40 41 39 37 37 36 36 35 34 32 28 34 34 33 41 42 41 40 42 40 37 40 42 43 44 45 47 48 48 47 49 53 55 57 60
35 34 35 36 35 35 33 32 30 34 36 35 31 30 32 33 33 33 34 31 35 32 34 35 43 46 47 44 42 41 44 45 46 47 47 46 44 46 48 53 57 60 61 63
38 38 36 35 32 31 28 29 29 22 21 25 25 25 26 27 29 33 34 38 37 34 36 39 43 47 50 51 48 46 47 47 45 43 43 45 48 52 55 58 61 63 63 64
31 32 31 29 28 27 27 25 19 16 17 18 18 21 24 25 25 25 28 34 39 42 44 42 41 43 45 46 45 44 43 43 42 44 47 48 52 56 58 61 63 63 64 65
19 22 24 25 25 24 21 21 21 19 20 22 23 23 26 29 30 30 31 31 32 33 34 35 37 39 40 40 41 41 42 43 45 47 50 53 56 59 61 62 63 63 63 62

GFSNGP_500_spd_099.txt.gz
Wind_Speed
33 34 29 23 34 31 32 27 27 30 37 37 27 22 15 20 25 22 24 28 31 15 14 28 28 28 25 24 23 18 16 15 15 15 15 15 17 21 22 21 22 23 24 24
35 27 29 26 25 29 26 19 25 23 23 35 42 33 28 28 29 25 23 29 29 29 28 33 27 27 27 26 24 23 18 18 18 19 19 19 20 20 22 22 23 23 23 24
37 31 27 32 25 25 28 31 31 28 27 31 28 36 41 34 30 32 32 30 30 30 29 30 30 30 29 28 28 25 24 20 18 19 20 21 22 20 22 22 23 24 25 26
30 40 33 21 29 32 31 33 34 33 29 33 38 43 38 38 31 31 32 32 34 35 36 34 32 30 30 28 25 26 27 26 23 21 24 23 22 23 23 24 26 25 27 28
37 33 24 28 31 28 27 28 28 27 23 27 31 36 31 30 33 35 39 33 37 40 45 37 35 34 34 31 31 30 29 31 30 29 28 29 25 23 25 27 28 29 30 31
29 30 26 26 28 26 26 26 26 24 24 22 24 27 28 29 29 34 40 38 37 34 36 42 42 40 38 39 35 37 38 37 39 37 32 32 32 31 34 34 36 33 34 35
26 27 28 24 23 24 25 25 25 25 24 23 24 24 22 24 28 29 30 32 37 38 37 40 45 42 39 42 41 40 39 38 40 40 37 37 36 38 37 37 40 41 40 42
34 31 25 28 25 23 22 25 28 29 28 28 27 27 27 29 31 30 30 31 33 34 37 38 41 44 45 44 45 42 41 42 42 42 43 43 43 41 42 45 40 45 44 48
19 18 18 27 30 27 27 30 30 28 26 22 26 29 26 27 29 30 33 35 37 38 40 43 45 49 52 51 52 52 47 47 48 48 48 48 49 50 49 53 49 48 46 51
15 13 17 20 23 24 24 26 26 23 20 24 27 28 31 32 33 31 32 36 40 45 47 48 50 53 55 56 57 59 58 51 55 55 53 53 53 54 54 53 53 55 53 60
18 13 19 21 21 19 23 25 25 19 27 28 30 30 32 34 31 34 33 28 29 31 38 43 48 53 59 63 64 63 65 64 63 61 60 59 57 57 57 56 50 54 54 52
22 11 12 22 21 21 24 21 17 23 27 27 30 33 34 34 36 31 26 26 29 38 30 39 42 44 51 59 59 57 55 61 64 61 60 59 60 58 53 55 54 55 57 61
23 21 8 20 29 22 17 15 15 18 20 23 22 26 30 31 27 25 25 26 28 26 31 29 32 31 36 42 47 48 47 45 50 57 55 52 54 55 57 55 57 63 66 66
18 23 16 21 22 26 22 16 16 15 13 13 16 19 18 21 18 20 23 22 22 21 22 24 26 30 35 38 40 39 39 37 36 37 42 47 50 53 56 57 57 57 47 47
28 38 33 25 28 26 24 22 18 14 15 17 15 16 15 18 24 25 24 21 23 23 18 16 22 26 29 35 38 38 40 39 39 42 43 46 53 53 56 57 55 41 32 35
28 31 27 27 29 27 27 24 22 19 17 19 20 20 20 17 18 20 29 29 25 20 15 7 10 14 24 21 28 34 37 36 32 39 46 46 42 39 26 25 23 23 26 29
34 31 31 31 29 29 28 26 24 23 22 22 24 23 24 23 23 21 19 27 29 25 17 12 8 6 7 9 9 14 12 18 22 21 25 24 23 24 28 31 31 35 34 36
34 36 33 32 31 29 30 30 29 29 27 26 27 28 28 28 28 27 25 23 21 23 27 22 14 10 15 18 18 20 24 25 23 25 30 30 30 29 30 33 33 35 38 41
31 29 30 30 30 30 31 31 30 29 30 31 32 33 34 33 33 34 31 29 25 25 30 28 27 25 18 24 21 22 23 25 26 27 28 29 30 31 33 34 36 39 42 43
25 27 28 29 30 30 30 30 31 32 35 36 37 38 40 40 42 40 39 36 33 28 26 26 23 29 30 28 31 30 31 30 31 33 33 32 32 33 36 38 39 41 43 46
23 25 26 27 29 30 31 33 36 38 40 43 45 46 47 48 47 47 42 38 36 34 28 34 30 29 27 29 31 34 35 34 32 31 32 32 31 34 39 40 41 44 48 51
28 29 30 32 34 35 37 38 39 40 39 40 43 46 45 44 43 43 40 37 37 34 32 32 31 33 34 31 32 30 30 33 34 35 38 38 41 42 44 45 48 50 52 52
33 35 35 35 35 35 34 34 36 37 36 36 39 41 42 41 40 37 34 34 35 34 32 30 31 29 32 34 41 43 43 42 42 44 46 46 46 47 47 50 53 53 52 52
35 38 42 40 37 35 35 36 37 37 35 35 35 36 37 38 36 33 32 31 32 32 29 34 32 34 36 37 38 43 49 49 48 47 47 48 49 49 49 50 50 51 51 53
31 31 32 35 37 38 37 35 32 30 31 29 29 25 24 24 28 28 25 26 25 27 31 35 38 39 35 32 35 39 42 47 50 51 50 51 51 50 48 48 51 52 54 55
27 28 27 28 29 30 29 28 27 26 27 26 21 22 22 20 20 23 22 23 26 27 28 29 32 36 38 37 36 38 40 41 42 43 44 45 46 46 48 50 52 54 57 58
28 27 26 22 20 20 23 25 24 25 24 24 22 21 21 22 23 23 24 25 26 27 29 30 30 31 31 31 32 34 36 37 39 41 43 45 47 49 51 53 55 57 58 59

GFSNGP_500_spd_102.txt.gz
Wind_Speed
32 34 35 33 37 43 45 43 38 34 28 30 35 32 19 27 21 39 46 43 42 38 39 40 34 31 29 29 26 25 24 20 18 15 15 14 18 21 21 21 21 22 23 24
31 32 32 29 36 34 38 30 26 30 38 46 41 34 29 13 21 37 21 44 37 33 32 26 34 32 31 31 29 27 23 22 23 18 18 19 18 18 20 22 24 25 25 26
28 32 30 30 25 24 28 30 28 27 28 45 40 39 35 30 18 19 23 29 23 23 18 24 27 22 29 33 35 32 25 22 23 21 20 22 20 19 19 21 21 21 21 23
28 29 31 31 29 25 27 27 31 27 24 25 29 32 33 39 36 30 29 29 22 24 25 25 27 29 28 31 35 32 29 27 25 24 25 24 25 24 24 22 21 22 22 20
33 34 32 28 30 30 29 30 28 25 24 29 29 32 37 38 38 32 31 29 31 31 32 35 38 31 32 35 32 28 27 27 30 31 31 30 29 27 27 27 25 25 25 25
44 40 35 28 36 29 27 28 27 27 30 30 35 39 39 36 30 32 34 33 32 35 38 37 40 40 35 33 31 34 32 30 33 37 35 35 35 34 33 33 32 32 28 29
33 32 31 30 31 24 30 30 29 27 25 29 31 29 30 34 35 31 35 37 37 36 39 43 38 37 35 34 35 34 38 39 38 38 44 42 45 40 40 38 38 39 38 39
26 27 27 31 25 28 28 29 27 27 28 25 26 26 26 28 31 33 33 32 34 35 37 39 39 42 43 42 39 38 37 39 40 44 49 46 44 44 43 44 43 42 40 40
17 14 22 27 24 26 25 25 25 23 22 26 29 30 32 34 34 34 33 34 35 36 38 41 43 44 45 46 45 45 45 44 44 46 51 50 50 41 41 43 45 44 41 45
23 23 30 28 25 23 27 27 25 23 26 28 28 29 30 31 32 33 34 35 38 41 43 43 44 46 48 49 50 50 52 54 54 54 53 54 54 54 51 51 51 52 51 49
15 14 19 22 17 25 30 25 22 23 22 24 26 27 28 30 31 33 35 36 39 42 43 44 46 48 52 55 57 59 60 61 63 63 63 61 60 59 57 56 55 41 55 56
13 19 20 19 17 20 22 25 19 18 22 23 23 22 24 27 29 30 33 33 34 37 40 40 39 37 47 54 59 63 63 65 66 68 68 66 60 60 63 58 57 62 59 59
5 8 13 22 22 23 22 15 10 17 21 17 19 19 20 26 29 33 34 35 33 30 32 29 28 26 33 36 43 46 48 52 51 53 54 55 53 53 56 57 57 55 58 48
5 9 13 14 18 20 23 24 19 18 14 12 12 11 13 15 18 18 20 20 19 22 26 31 32 27 26 24 28 32 34 37 35 35 36 39 41 42 43 49 54 57 57 60
13 21 20 25 19 20 21 22 25 22 19 17 16 16 16 15 14 15 16 19 24 24 25 26 31 30 26 24 30 34 37 36 33 33 44 39 37 40 44 46 50 52 55 57
26 21 29 27 32 23 23 25 26 23 21 21 21 20 18 16 16 16 17 17 19 21 27 30 30 24 26 24 29 25 35 41 38 37 42 37 41 43 43 43 46 42 41 38
29 30 32 33 33 35 31 29 29 27 25 24 24 25 24 21 21 21 21 22 22 22 24 23 28 30 14 8 8 17 21 20 26 30 30 29 28 24 27 26 30 32 33 34
39 35 32 34 33 30 31 33 31 29 29 28 27 27 27 26 25 25 27 27 27 27 26 23 25 28 19 17 18 14 17 20 24 23 26 28 29 32 33 33 30 29 30 31
36 37 37 37 39 40 38 34 32 32 33 32 33 30 29 30 31 32 33 33 32 33 33 31 28 28 23 17 17 20 17 17 25 29 28 26 23 26 29 32 33 32 32 33
26 32 36 36 35 32 32 34 34 34 32 31 31 31 32 34 36 37 38 39 40 40 39 39 36 31 29 27 26 23 27 30 29 26 26 28 29 30 30 31 31 31 33 37
20 22 24 25 26 27 28 30 30 31 33 34 35 36 37 40 42 44 46 46 46 43 40 38 37 37 32 35 33 34 30 32 30 31 33 32 31 31 32 34 36 38 42 44
20 22 23 24 26 29 31 32 34 35 36 38 40 42 44 44 45 46 46 43 41 38 36 34 37 38 35 38 39 43 38 40 41 38 37 37 37 37 40 43 44 46 49 51
28 29 31 32 34 36 37 39 40 40 39 39 39 40 41 40 40 41 40 39 37 36 34 32 35 38 37 38 39 36 39 42 43 47 46 46 46 46 47 49 50 51 53 54
30 31 32 33 35 37 40 42 43 43 42 41 40 40 38 37 37 37 37 35 35 33 32 33 34 35 36 36 34 36 39 38 40 42 44 45 48 50 52 53 54 55 56 56
29 29 30 31 32 31 32 34 35 36 36 35 35 33 33 32 31 27 26 26 25 27 30 32 30 32 33 35 36 38 38 37 36 37 38 41 44 45 47 48 50 51 51 52
29 28 25 24 26 29 27 26 26 28 28 29 30 30 30 31 29 27 27 24 24 28 31 33 34 34 34 36 38 38 38 38 38 38 39 40 41 43 44 46 48 50 52 54
29 30 31 31 31 30 28 26 23 21 23 26 27 28 28 28 27 25 26 26 27 27 26 27 28 29 31 32 33 34 34 34 35 37 38 39 41 43 46 48 51 53 55 57

GFSNGP_500_spd_105.txt.gz
Wind_Speed
36 37 34 27 29 36 39 42 43 43 38 32 34 37 31 26 20 21 25 44 47 44 44 43 42 39 37 37 37 35 32 27 25 23 20 17 17 23 23 22 22 21 21 21
37 34 36 33 21 34 40 40 36 37 38 34 38 39 37 27 21 18 31 31 51 48 42 42 42 37 38 39 37 34 33 31 31 27 25 23 19 18 21 25 25 24 24 25
8 23 13 21 37 25 36 39 41 34 27 33 37 38 30 31 30 25 21 19 50 47 44 40 38 41 40 40 37 35 30 29 29 28 29 27 26 23 21 22 24 24 26 27
13 18 19 13 22 20 29 32 19 24 34 28 35 32 32 35 41 34 24 23 24 37 42 41 33 29 34 32 36 29 30 33 31 28 28 31 29 26 26 25 23 23 24 25
28 14 16 12 18 22 21 21 24 18 26 15 24 23 24 27 32 28 29 30 25 20 33 33 27 25 28 32 25 26 28 31 33 37 32 32 31 30 28 28 28 28 29 29
32 29 21 19 18 22 18 22 18 18 18 20 21 24 27 25 25 26 30 30 29 26 26 28 32 38 32 32 34 36 36 36 33 27 31 36 35 33 33 34 34 34 33 33
27 33 30 27 25 23 23 25 20 19 19 20 24 26 27 26 29 31 29 27 27 34 35 35 33 34 37 37 41 42 43 41 39 37 39 40 40 43 39 40 41 40 39 39
27 29 28 30 29 28 28 30 24 22 21 23 24 25 27 29 28 29 29 30 27 29 32 35 39 37 37 39 40 35 41 42 41 41 41 44 43 39 43 47 45 45 47 46
26 21 20 25 27 27 25 27 24 25 23 24 27 26 26 28 29 25 26 27 27 28 31 32 35 39 39 39 38 39 40 41 43 43 42 44 46 49 45 47 48 45 38 46
21 23 23 28 25 24 22 27 22 19 18 22 24 26 29 28 29 30 31 32 32 32 34 34 36 36 39 41 43 43 43 44 44 45 47 48 49 52 53 53 54 55 50 50
21 23 23 24 19 23 24 19 25 21 21 23 26 29 32 33 32 32 32 32 33 36 39 41 43 44 45 46 47 48 49 51 53 53 55 57 58 59 59 59 61 59 58 59
17 15 15 18 23 23 24 27 25 23 23 26 27 26 25 25 26 28 29 30 31 33 36 39 40 42 45 47 49 53 54 56 57 58 61 64 65 65 66 67 64 63 64 64
5 10 14 17 20 21 19 19 21 24 24 24 21 19 18 16 17 21 22 23 26 31 35 37 41 45 47 47 46 48 51 50 50 52 51 52 56 60 61 57 55 53 51 58
17 13 15 8 18 25 25 20 19 17 14 13 15 13 13 13 11 11 14 19 22 25 28 30 30 32 32 30 34 39 42 42 43 40 35 35 37 39 38 36 34 36 47 40
8 7 18 20 30 30 28 27 26 24 23 19 17 15 15 14 13 12 12 11 12 15 19 23 26 27 26 29 28 30 32 36 33 35 34 36 33 35 35 39 36 43 43 44
17 13 9 13 14 21 20 20 18 14 18 19 20 19 19 17 17 17 17 17 16 16 15 18 20 22 25 31 34 30 27 33 38 38 42 36 33 36 38 40 40 41 50 53
23 24 24 19 19 23 21 22 25 22 21 22 24 24 22 21 21 22 22 22 22 20 21 22 24 24 24 26 28 31 25 21 31 38 40 37 40 42 40 34 38 39 37 34
26 28 28 29 31 30 30 28 24 25 28 28 28 28 28 28 28 29 29 27 27 26 27 28 28 28 28 28 24 22 23 18 22 20 16 15 16 17 21 23 25 26 27 29
29 29 32 36 36 39 37 33 32 30 31 31 33 32 32 32 33 33 33 32 31 31 32 32 32 33 34 34 31 26 22 21 22 21 23 25 26 22 24 24 26 29 31 32
32 34 34 36 39 40 41 40 39 39 39 37 36 34 34 34 35 35 34 35 35 35 35 37 38 38 40 39 36 32 27 31 31 31 31 29 28 29 30 30 32 33 32 31
23 23 25 27 28 31 34 35 35 35 34 34 36 37 36 35 37 37 36 37 38 40 42 43 45 45 44 41 39 37 36 35 38 39 36 36 37 37 35 36 36 35 36 37
19 20 20 21 23 24 26 27 28 29 29 31 33 35 37 39 39 40 41 42 44 45 46 45 43 40 39 38 38 40 42 41 42 40 44 41 43 45 43 43 43 43 44 46
23 24 25 26 27 28 30 31 32 33 34 36 37 39 40 41 43 44 44 44 44 43 41 40 40 40 38 38 37 39 42 43 44 41 39 44 48 47 48 49 49 51 52 51
26 27 28 30 30 31 33 34 35 35 37 39 41 42 44 45 46 45 44 42 39 37 36 35 36 37 37 37 38 39 40 40 40 38 40 43 40 41 43 45 46 47 47 47
27 28 29 30 30 30 31 31 32 31 33 35 37 38 39 39 39 39 37 35 35 34 30 28 27 29 31 32 34 35 37 38 38 39 41 40 40 40 40 41 43 45 45 46
31 30 31 30 30 30 28 29 30 30 31 29 30 32 34 33 32 32 33 34 34 33 32 29 26 29 33 34 34 35 38 38 39 41 42 43 43 41 41 42 43 45 46 47
32 31 29 28 29 29 30 31 31 31 30 29 28 24 24 24 26 29 30 31 30 30 30 29 30 31 31 31 32 33 34 35 36 36 36 37 37 39 40 42 43 45 47 50

GFSNGP_500_spd_108.txt.gz
Wind_Speed
16 34 34 30 32 34 35 37 40 42 42 41 33 27 30 29 24 26 34 32 36 37 49 48 45 45 40 38 36 33 32 30 29 27 24 23 22 23 25 24 22 20 20 20
15 29 30 35 26 28 32 34 37 38 40 39 34 36 35 32 31 24 26 26 25 47 53 49 48 47 41 40 41 38 37 35 33 30 27 26 26 24 27 28 27 25 25 25
7 18 32 34 39 23 25 26 28 32 32 30 29 33 35 31 24 26 27 24 17 28 49 47 47 45 42 41 44 45 41 39 39 35 32 31 30 29 28 29 30 31 31 29
16 5 21 29 32 29 30 29 31 28 26 23 26 25 32 35 34 31 31 28 19 15 20 42 51 44 44 41 37 37 42 45 43 39 35 34 37 35 33 33 33 31 31 32
18 14 6 16 12 9 23 15 28 20 16 15 23 18 18 24 26 25 32 35 29 25 22 29 49 57 43 38 41 28 41 31 36 31 29 29 30 34 36 34 33 33 33 34
21 22 12 14 11 8 6 10 6 14 16 11 20 6 13 16 19 20 19 23 20 19 23 20 25 38 38 47 33 34 31 40 36 24 28 30 29 36 38 34 36 36 35 35
19 28 21 10 10 8 8 7 9 11 17 14 15 16 17 18 19 20 19 16 17 15 22 20 21 21 41 37 36 36 39 33 34 33 35 33 31 31 32 32 40 38 38 39
20 29 26 22 16 15 11 10 14 14 16 14 17 16 16 15 17 19 20 18 16 17 17 23 25 25 24 28 30 33 31 34 37 39 39 38 38 39 39 42 36 39 50 44
14 21 21 23 19 17 15 16 18 19 22 19 18 17 16 17 17 19 18 18 16 16 15 18 21 24 26 28 29 33 35 34 36 40 41 42 44 44 44 44 43 46 43 40
14 19 20 19 18 17 12 14 14 18 18 21 21 21 20 18 21 20 20 21 19 18 19 19 21 24 24 25 27 29 31 32 35 37 39 40 42 44 47 46 44 46 50 49
9 14 22 20 18 15 12 16 18 21 19 19 20 19 19 18 20 22 24 23 25 26 28 28 27 28 30 31 32 34 36 37 37 38 40 43 45 47 49 48 49 50 51 53
8 15 19 18 16 16 20 20 14 19 20 23 20 20 21 22 22 21 21 24 25 25 25 25 26 27 30 33 36 38 41 44 45 45 46 48 50 52 54 55 56 58 57 62
15 15 16 15 19 23 26 27 24 23 22 20 20 20 21 21 20 17 15 16 18 21 22 24 26 28 31 33 36 39 42 45 47 50 52 51 51 51 51 51 52 54 57 54
14 8 21 21 15 20 31 27 26 20 19 16 15 20 20 18 17 16 13 11 11 14 17 20 25 28 31 33 36 38 41 41 43 46 47 46 42 42 40 38 38 39 41 34
10 13 14 21 30 27 23 26 21 16 17 17 19 18 17 18 18 18 17 13 10 9 9 12 16 20 23 25 28 29 29 33 33 35 39 40 39 37 35 35 36 35 37 38
9 4 5 12 20 23 26 29 19 17 17 17 19 21 20 21 20 20 20 19 17 16 16 16 17 18 19 20 21 25 30 32 32 32 31 36 39 38 39 41 42 39 38 45
10 11 11 7 9 9 11 15 17 16 18 18 17 17 19 23 24 23 23 23 23 23 23 23 23 22 23 25 25 24 25 25 29 30 30 25 29 39 39 40 46 40 44 42
17 17 15 13 15 17 19 20 20 21 20 22 27 29 26 24 27 29 27 26 26 27 27 27 27 28 28 28 28 28 28 27 27 25 24 23 21 19 19 22 23 25 27 28
21 22 21 21 23 24 27 29 31 30 30 28 25 27 28 30 31 33 34 33 32 31 31 32 33 32 33 32 32 34 34 34 34 34 30 26 24 25 25 27 27 26 25 27
24 25 25 26 26 27 28 30 33 36 37 35 32 32 34 35 34 34 35 35 35 35 35 35 36 37 36 37 38 38 38 40 40 41 40 36 34 34 33 32 33 33 33 32
24 25 26 28 28 30 31 31 32 34 34 35 37 38 38 37 38 37 37 36 36 37 38 39 39 40 41 41 42 44 45 44 43 42 41 41 40 42 41 40 40 42 43 42
22 24 26 27 26 27 27 28 29 29 30 31 32 33 34 35 35 36 38 39 40 40 41 42 43 44 44 44 45 45 44 43 42 42 42 44 45 45 46 48 48 47 47 47
22 24 25 25 25 25 26 26 26 27 28 29 31 32 33 35 36 37 39 40 41 42 44 45 45 44 43 41 40 40 42 42 43 44 43 42 42 45 45 44 45 48 46 46
30 29 29 28 27 28 30 31 32 31 31 30 31 33 34 36 37 39 40 42 44 45 46 45 43 41 38 36 34 32 33 36 38 38 39 40 40 41 40 39 40 43 42 41
30 29 28 27 29 31 32 32 32 32 33 33 34 34 35 36 39 41 42 42 42 41 41 41 39 37 36 35 34 29 30 32 34 35 37 38 38 38 39 42 45 43 42 44
35 34 33 34 33 33 32 32 31 31 32 32 33 35 36 36 37 36 37 38 38 36 34 34 35 37 36 36 35 32 33 34 34 36 37 39 40 40 41 41 42 42 42 42
38 42 40 38 35 33 31 31 30 29 30 31 31 32 32 33 34 34 33 33 32 31 31 33 33 33 33 34 34 35 35 35 35 36 36 36 37 37 37 37 38 39 40 42

GFSNGP_500_spd_111.txt.gz
Wind_Speed
27 27 29 27 25 24 20 24 31 30 34 36 36 36 36 32 33 31 33 32 34 34 34 34 30 40 43 44 39 37 37 35 33 29 26 25 23 20 15 17 17 15 14 14
12 29 30 27 23 19 24 27 27 28 29 32 35 37 32 28 28 28 29 22 24 32 31 29 29 44 48 46 41 40 41 38 36 31 28 28 27 25 22 19 22 22 21 20
9 5 22 23 25 23 21 25 26 26 27 26 29 31 29 31 32 30 27 27 23 25 23 26 43 47 49 45 42 40 40 40 39 36 34 31 30 27 25 24 23 25 26 26
11 5 6 18 22 24 27 28 26 23 23 25 25 24 25 28 29 30 25 27 31 31 24 26 38 50 52 47 44 41 37 40 39 38 40 34 32 29 28 28 28 28 28 28
9 5 6 15 19 17 18 11 19 21 16 16 18 21 22 24 20 23 24 28 28 32 27 20 28 42 47 45 44 42 41 43 40 33 34 39 38 33 32 33 35 33 32 34
15 8 6 9 21 18 17 16 8 7 19 13 9 13 15 13 15 23 23 28 31 32 26 27 24 28 50 50 48 46 47 41 32 26 27 27 26 27 29 31 28 30 33 36
16 13 8 9 9 11 15 15 12 10 13 15 15 20 19 16 14 16 14 17 20 21 23 24 20 22 37 44 61 49 45 52 38 38 42 41 37 31 34 34 30 33 32 34
12 15 11 17 10 6 9 11 14 15 6 10 10 12 12 11 9 12 16 15 14 11 16 18 19 20 16 26 32 50 46 29 33 37 35 34 35 28 30 33 34 32 34 32
13 17 14 19 17 8 8 8 6 9 10 9 9 8 10 15 10 8 10 11 10 11 11 9 11 14 17 16 19 26 27 31 31 30 31 31 29 32 33 36 38 40 41 43
14 22 21 20 22 15 14 11 10 7 9 13 12 14 15 12 13 11 11 9 9 12 11 13 10 12 13 13 14 16 19 22 28 34 35 33 35 37 40 44 46 45 46 44
10 19 18 24 20 17 18 13 12 14 13 15 15 13 13 13 13 12 11 12 15 14 13 14 16 16 16 16 19 20 20 21 22 25 29 30 31 32 34 39 40 41 42 43
5 8 10 21 22 22 23 22 20 14 17 17 17 15 15 15 16 16 15 15 15 15 16 16 17 19 20 23 25 25 28 29 30 34 36 36 38 40 41 42 44 45 47 48
1 10 14 19 24 23 21 18 23 13 22 15 17 17 19 17 14 13 13 13 13 12 12 13 14 15 17 19 19 21 24 26 29 31 33 35 39 42 44 46 47 48 48 52
7 8 14 18 21 26 27 26 27 25 21 18 18 20 23 18 15 14 15 14 13 12 11 11 11 11 11 13 15 19 23 25 26 27 28 31 35 37 39 38 36 40 44 44
13 11 14 19 25 24 24 28 29 25 18 20 17 16 13 11 14 15 17 18 17 15 13 11 9 8 8 9 11 12 15 19 23 25 28 28 31 35 37 37 39 36 37 37
6 9 10 9 17 21 30 30 26 24 19 18 18 18 16 15 15 17 18 19 20 20 19 17 15 14 15 16 16 16 16 16 17 19 21 25 28 28 27 29 32 33 33 38
3 1 2 3 6 18 20 22 29 26 26 22 18 17 15 12 15 17 21 22 22 22 23 23 22 22 23 23 22 21 22 22 23 24 23 23 21 21 22 23 24 28 37 34
11 5 5 6 5 5 7 10 8 11 12 14 15 16 18 19 21 21 21 20 24 26 26 26 26 27 28 28 27 26 26 25 26 27 27 28 30 30 28 27 27 26 23 22
12 12 11 12 13 13 15 14 14 14 17 20 22 25 26 27 26 25 25 27 28 29 31 32 31 30 29 31 31 31 31 30 31 32 33 33 34 35 36 34 32 33 32 30
13 14 16 19 19 19 19 20 20 20 21 22 24 26 28 31 32 32 32 32 33 32 32 35 37 35 35 34 33 33 34 35 36 36 37 38 39 41 41 40 38 38 38 36
16 16 16 17 18 18 19 20 21 22 24 26 28 29 30 28 29 31 32 33 32 34 35 36 37 37 37 37 37 37 37 38 40 40 41 43 44 44 44 45 44 44 44 44
13 14 15 16 17 17 18 19 21 23 24 25 26 28 29 30 30 29 30 31 32 33 35 37 39 39 40 40 40 40 41 42 42 42 43 43 43 44 44 45 46 46 47 46
19 19 20 20 20 20 21 22 23 24 26 26 27 28 30 31 31 32 32 33 34 35 37 38 39 40 41 42 42 43 43 43 41 39 37 37 36 38 40 42 41 40 40 41
29 31 31 29 29 29 29 29 28 30 30 30 29 29 30 31 32 32 33 34 35 37 38 40 41 43 44 45 45 44 41 39 38 37 34 31 30 32 34 36 38 38 38 39
26 29 30 30 30 30 30 30 31 32 32 33 32 33 35 36 36 35 35 35 36 37 38 39 40 41 40 40 40 40 40 38 39 36 37 35 34 36 37 38 39 39 39 40
31 31 31 32 33 33 34 35 34 34 35 34 34 33 33 34 34 34 34 36 38 38 39 39 38 38 38 36 35 35 36 38 40 39 39 38 37 35 35 37 39 39 39 38
28 28 29 30 31 32 34 37 40 38 35 34 34 34 32 30 30 31 30 32 33 34 36 37 36 35 34 34 34 35 36 37 38 37 37 37 38 38 38 37 38 37 37 37

GFSNGP_500_spd_114.txt.gz
Wind_Speed
17 20 20 21 12 14 19 26 30 31 31 31 34 31 33 33 32 30 32 34 35 36 30 33 37 37 34 39 44 46 47 41 35 31 30 28 27 21 20 13 13 17 16 16
5 26 22 21 20 11 7 17 21 27 30 29 31 32 31 28 28 27 27 29 33 36 32 31 33 38 36 37 34 43 46 41 36 33 32 31 28 25 22 19 14 13 17 15
14 10 17 22 21 15 10 14 14 19 24 24 27 33 32 28 26 26 25 27 30 32 31 30 33 32 35 36 37 38 46 43 39 37 35 33 29 26 24 22 19 18 15 16
12 11 13 17 20 18 16 14 16 19 21 24 27 26 24 22 23 27 28 29 32 30 29 24 26 26 29 34 49 49 44 42 41 38 36 36 32 29 26 24 23 22 20 19
8 9 7 16 18 16 18 19 19 21 19 21 20 21 22 22 21 23 28 28 29 28 32 29 29 29 31 47 41 51 43 43 40 35 31 33 32 31 34 32 28 26 25 26
4 4 2 9 21 16 14 13 12 18 20 18 14 17 21 22 22 23 24 26 27 26 29 30 33 35 41 33 53 48 49 44 41 36 37 32 31 25 29 37 32 31 30 28
3 4 7 4 28 24 19 14 10 10 17 18 15 17 15 18 21 22 21 20 18 20 23 29 27 35 30 39 43 58 53 47 44 38 38 34 39 28 26 21 26 31 32 29
9 7 9 7 9 20 21 18 10 15 14 12 16 18 23 30 25 17 15 16 18 19 20 20 20 22 23 27 32 30 55 53 48 42 37 39 33 29 33 31 33 36 34 31
10 13 11 11 12 13 24 15 10 14 10 13 8 9 9 15 14 13 14 17 16 15 14 14 15 19 17 22 20 35 36 44 46 54 48 55 52 49 49 42 34 31 31 31
13 18 17 16 16 14 14 9 10 7 3 3 3 5 6 7 9 11 13 13 13 14 13 13 11 11 11 15 20 19 20 31 32 45 40 40 40 36 35 35 36 35 34 35
14 20 25 25 24 22 19 12 7 8 7 7 6 5 7 6 7 9 8 9 11 13 12 10 12 15 13 13 12 14 15 15 21 28 34 30 27 28 30 30 31 33 35 35
9 8 18 21 30 31 27 22 15 13 11 10 9 9 8 7 7 9 12 13 14 13 15 18 17 14 16 16 17 19 20 20 20 19 21 21 23 26 29 30 31 33 35 36
4 15 15 5 22 30 32 27 17 19 18 16 14 16 14 12 13 12 12 13 14 13 13 14 15 15 16 19 20 20 20 21 22 25 28 29 30 33 34 34 35 37 40 41
8 12 17 13 21 29 32 33 18 24 23 13 26 20 16 13 15 17 16 15 14 14 14 14 14 14 15 17 17 17 16 18 19 21 23 26 27 29 30 33 35 38 39 40
9 10 14 18 18 29 33 37 32 27 28 24 21 19 18 15 15 14 15 16 17 17 16 15 14 14 14 14 13 14 13 12 13 16 20 22 25 26 27 29 31 33 34 33
10 13 14 18 21 25 28 31 28 29 27 23 17 17 16 16 16 15 14 15 16 18 20 18 18 17 16 16 15 15 16 16 17 19 18 18 18 20 21 24 27 29 31 32
4 6 12 16 16 18 18 20 21 25 28 25 18 20 17 17 16 15 14 15 19 19 20 21 22 22 22 21 21 21 22 23 23 24 24 24 24 25 23 23 22 22 23 25
4 6 1 3 6 13 16 15 12 14 22 21 25 22 19 18 17 17 15 16 18 18 20 22 24 26 27 27 28 28 28 27 28 28 27 28 27 27 27 27 28 29 30 31
10 7 6 4 3 4 3 5 6 6 8 12 13 15 16 17 18 19 21 23 24 23 23 24 23 25 28 32 33 32 32 31 31 32 32 33 32 32 32 32 33 34 36 37
15 15 14 11 12 12 12 13 14 14 16 18 20 21 22 24 24 25 27 29 30 31 30 31 31 32 31 32 34 36 37 36 36 35 36 36 37 37 37 37 38 38 40 42
17 17 17 16 16 16 16 16 16 17 17 17 19 22 24 25 26 27 28 30 32 34 36 36 36 35 35 36 36 38 40 41 40 40 39 39 40 41 40 40 41 42 44 45
15 16 17 18 18 18 18 18 18 19 19 19 20 21 23 26 27 28 29 30 30 32 34 35 36 36 36 37 38 39 41 42 42 43 43 44 44 43 43 42 42 43 44 43
19 20 20 20 20 20 21 22 23 23 23 24 25 26 26 28 28 29 29 32 34 34 34 34 35 36 37 38 39 41 43 44 45 46 46 46 46 44 44 42 41 37 34 34
24 27 28 29 30 30 30 30 29 28 29 30 30 31 31 30 31 30 31 33 34 35 36 36 37 38 39 40 40 42 43 44 45 46 47 47 45 44 43 42 41 40 38 38
26 27 27 28 30 32 32 32 34 34 34 35 35 35 34 32 33 32 33 33 35 36 38 37 37 37 37 38 39 39 40 41 43 44 43 43 43 41 41 42 42 42 42 42
27 28 30 31 32 32 33 34 35 36 38 39 39 38 37 36 35 35 35 36 38 38 39 39 39 39 39 40 40 40 39 40 42 42 40 39 39 41 42 43 44 44 42 41
29 29 30 31 31 31 31 32 32 33 33 34 37 36 38 39 36 37 37 38 38 38 38 37 37 38 39 40 38 39 39 37 39 40 41 41 41 42 42 42 42 41 40 40

GFSNGP_500_spd_117.txt.gz
Wind_Speed
18 11 10 7 1 19 38 35 36 29 28 28 31 33 43 42 29 30 30 31 32 32 33 31 27 29 30 31 32 35 36 39 40 44 45 42 30 29 26 24 18 13 17 18
15 12 16 11 10 2 14 38 37 37 37 22 27 29 29 36 32 32 31 32 32 32 33 32 29 28 30 30 34 36 37 37 40 43 44 43 32 29 27 25 20 14 14 17
4 9 13 12 11 7 4 7 33 38 35 33 24 31 34 34 34 32 23 24 28 31 32 33 32 28 28 32 34 36 35 36 38 40 45 44 34 31 28 25 23 17 15 16
7 12 10 8 11 13 7 4 11 25 27 39 48 42 13 25 32 30 25 25 25 27 30 35 33 29 28 30 31 32 35 38 38 37 40 44 35 31 29 26 24 21 19 18
7 6 8 6 14 13 12 10 11 12 19 20 28 36 30 26 25 26 24 24 25 27 29 32 34 30 28 27 30 38 34 41 41 42 42 43 38 34 32 29 30 25 24 23
4 3 1 2 16 12 16 11 14 20 19 18 25 31 29 25 24 23 24 25 26 29 27 29 26 29 29 30 32 36 43 55 52 44 40 41 36 31 25 31 40 37 29 27
5 3 2 5 15 15 15 13 20 14 21 22 18 21 27 24 25 22 22 23 23 24 24 27 28 26 30 33 36 39 39 36 38 39 41 41 37 32 29 26 20 27 28 32
12 9 9 5 15 24 20 11 8 7 12 21 23 22 22 22 21 23 24 25 25 24 24 23 24 26 29 30 36 39 37 38 55 59 58 42 41 36 32 27 28 25 23 22
14 14 10 8 6 24 24 18 1 5 4 13 19 24 28 29 32 37 27 19 17 18 20 21 22 22 24 28 31 27 35 37 41 53 52 49 44 37 32 33 31 29 30 29
18 19 17 12 12 15 17 20 10 9 12 11 12 14 21 24 29 21 21 16 15 18 20 22 20 21 21 22 25 25 26 27 33 37 48 50 47 41 40 39 39 37 39 40
19 21 20 21 24 23 23 19 12 9 5 5 4 7 6 7 9 11 14 16 18 18 20 18 17 19 18 17 16 16 24 23 24 28 33 35 53 57 56 53 48 48 46 38
20 17 24 27 25 28 27 19 12 10 8 9 5 7 9 9 9 11 11 12 12 13 15 19 19 17 18 19 17 17 14 17 16 16 22 31 27 29 39 41 41 39 34 31
15 14 16 21 29 30 32 27 21 14 16 17 18 10 8 9 11 9 8 10 13 15 16 17 18 20 22 20 19 18 19 22 20 18 20 20 21 22 20 20 24 28 30 33
8 14 16 15 17 26 33 34 30 25 16 20 22 20 20 14 10 8 10 13 13 14 16 16 15 15 13 14 14 15 14 17 20 22 24 26 28 28 29 30 33 35 36 38
9 10 19 20 15 14 25 34 32 25 20 20 17 18 22 22 17 15 16 15 16 18 18 18 17 15 15 13 14 15 14 14 13 13 14 16 19 22 25 28 28 29 29 29
11 14 15 17 19 19 20 27 33 34 22 20 24 25 18 19 19 17 18 16 16 17 17 20 19 17 16 16 16 16 17 16 16 16 15 16 17 18 19 20 22 23 26 28
5 14 18 18 18 19 20 24 26 32 30 23 24 20 19 18 18 20 19 18 18 16 17 18 19 20 21 22 22 22 22 22 22 22 23 22 22 24 25 25 26 27 28 28
6 6 5 15 22 20 18 22 21 29 34 32 33 32 23 22 21 21 18 18 18 16 17 18 20 23 24 24 25 26 28 27 27 27 28 28 29 29 30 31 31 32 33 35
13 10 5 3 7 10 15 16 18 21 20 32 33 29 26 29 26 24 21 20 23 23 21 20 21 21 23 23 25 26 29 32 33 34 34 33 34 35 35 35 36 37 38 39
17 16 13 11 11 6 8 8 11 13 13 14 17 21 22 23 25 26 26 26 28 28 27 26 26 28 30 31 31 32 32 32 33 35 37 38 38 38 38 39 39 40 41 42
22 22 21 19 18 17 16 17 17 19 19 21 23 25 26 27 28 29 30 31 31 30 30 30 30 32 34 36 38 39 40 39 38 38 39 39 41 42 43 43 43 43 44 45
16 20 23 24 24 24 24 24 24 25 25 25 26 28 30 32 33 33 33 33 33 33 34 34 35 35 37 38 40 41 42 42 42 42 41 41 42 44 44 45 46 46 47 48
22 21 22 23 25 26 27 28 29 29 30 30 31 31 33 33 33 32 32 33 34 35 35 36 35 35 34 37 39 39 39 40 40 41 42 43 44 45 46 47 48 50 51 50
25 27 29 30 31 32 32 32 32 33 33 33 35 36 36 37 37 36 37 37 38 38 38 38 38 35 36 39 39 40 41 42 42 44 45 45 46 48 49 49 50 50 50 50
28 28 29 30 32 34 36 38 39 40 41 41 41 42 41 41 41 41 41 41 41 40 40 40 40 39 40 41 40 41 42 42 43 44 44 44 44 45 46 47 47 47 46 45
29 30 31 32 34 35 36 37 38 38 39 39 39 40 41 42 44 45 45 45 44 43 42 42 42 41 41 41 42 43 44 44 44 44 45 44 44 44 44 45 45 45 44 44
34 34 35 35 36 36 37 37 37 37 38 38 38 38 38 39 39 40 41 42 43 44 44 43 42 42 42 42 43 44 43 43 43 44 44 44 43 43 43 43 44 45 45 46

GFSNGP_500_spd_120.txt.gz
Wind_Speed
18 20 14 19 16 19 27 27 27 29 19 23 31 34 32 28 36 50 15 10 24 28 29 29 29 28 29 30 30 32 33 32 35 38 39 35 34 36 35 37 30 23 23 24
11 16 11 9 11 4 26 31 13 35 33 33 37 37 28 28 48 50 45 31 31 29 29 29 29 28 29 29 27 29 31 31 33 36 35 32 34 38 38 38 28 23 23 23
5 8 5 4 5 9 12 32 27 34 32 26 35 41 27 33 27 44 41 26 31 32 31 31 29 30 30 29 27 28 29 31 31 32 31 33 36 38 37 38 27 24 25 24
6 7 2 6 6 8 6 8 27 38 41 37 33 25 40 43 16 15 18 30 25 22 25 27 30 30 29 31 29 28 29 30 31 31 30 34 38 39 38 40 29 26 27 25
8 5 4 11 8 6 7 4 5 23 41 38 36 41 34 27 31 12 15 17 11 17 22 23 24 28 30 31 30 29 29 33 28 30 33 35 38 36 34 44 35 30 30 27
10 8 10 5 7 12 12 10 8 13 34 47 19 49 44 51 42 46 27 21 19 19 20 23 25 25 27 30 31 30 29 31 39 37 37 41 40 37 37 45 35 32 32 31
9 9 10 5 5 9 12 11 9 7 15 18 13 30 29 34 32 28 26 24 22 24 24 22 23 24 24 25 25 29 31 33 35 40 47 52 44 38 43 44 38 38 40 35
7 12 14 8 3 13 16 7 9 4 12 18 26 18 22 18 30 27 26 25 26 24 23 23 22 21 23 25 25 26 29 34 38 40 42 42 59 48 56 44 32 30 26 27
15 15 16 8 6 13 25 18 8 6 3 8 8 23 20 23 20 25 27 27 27 21 24 24 22 22 23 24 27 29 30 32 29 31 28 36 35 49 40 40 38 31 29 29
20 22 18 16 13 12 12 25 16 1 3 3 6 11 20 24 27 26 28 26 29 23 21 17 17 20 22 23 25 28 31 33 27 26 28 35 38 41 47 45 44 42 38 27
24 23 22 22 21 18 17 19 19 12 11 4 5 8 11 12 20 25 32 33 28 21 14 16 18 21 23 23 23 22 23 24 25 30 30 35 37 43 51 53 46 38 37 42
25 22 22 25 26 22 21 22 20 14 18 8 5 5 4 6 6 9 11 10 10 11 15 16 18 22 21 17 19 20 20 20 17 25 22 24 33 37 47 41 55 51 47 50
17 20 22 25 27 28 23 22 23 19 13 13 16 9 5 3 5 7 6 6 8 11 14 16 15 17 18 21 21 18 20 20 20 18 17 15 17 21 35 37 47 60 56 53
16 16 19 17 24 26 27 28 26 26 19 12 15 12 16 14 10 10 10 10 9 12 13 13 14 14 15 15 15 18 20 17 18 18 21 22 22 21 23 22 20 21 22 25
7 10 13 18 19 18 14 15 23 28 27 25 20 16 18 21 17 15 15 12 11 14 15 16 16 15 14 14 14 14 13 13 13 14 15 15 18 19 21 21 21 22 25 27
8 11 16 16 17 23 21 17 15 22 28 31 23 19 19 18 18 19 17 15 14 16 16 16 17 17 16 15 15 15 14 14 15 14 14 14 14 13 13 14 15 16 19 22
11 15 16 18 20 20 18 18 18 18 23 28 32 19 20 27 23 17 18 18 18 16 17 17 17 17 16 17 17 18 19 19 19 19 19 19 20 19 20 21 20 21 22 22
11 12 13 13 22 26 24 21 18 18 19 22 31 35 23 21 22 21 20 19 19 20 20 19 18 18 17 18 20 22 22 22 23 24 25 26 25 25 26 26 27 27 28 28
16 15 11 13 10 17 21 19 18 18 20 21 25 30 31 30 28 31 26 26 23 23 22 22 22 21 20 20 20 20 21 22 22 24 26 29 31 32 32 32 32 33 33 34
18 18 18 19 13 6 9 12 15 15 15 16 16 21 28 34 32 33 33 33 34 31 29 28 29 30 29 26 25 24 25 26 28 29 32 34 34 35 35 36 36 37 37 38
21 21 23 22 22 18 15 11 12 15 15 17 19 18 20 24 27 30 29 31 31 33 37 36 35 35 32 30 28 27 28 30 33 35 38 40 41 41 40 40 41 41 42 42
18 22 24 26 26 26 25 25 24 23 21 21 21 21 23 27 29 32 34 35 36 38 38 39 38 36 36 37 37 35 35 35 35 38 40 43 42 42 43 43 42 41 41 42
23 24 24 25 27 28 29 31 31 32 32 33 34 35 35 35 35 37 38 39 41 43 43 43 43 42 41 41 40 40 41 40 40 39 38 41 42 42 42 43 44 44 45 46
28 30 30 31 31 32 34 35 36 36 36 37 38 38 39 41 42 42 43 43 44 45 46 46 46 45 45 45 45 45 43 42 42 40 39 41 41 42 43 43 45 45 46 47
30 31 32 33 34 36 37 39 40 42 43 43 44 44 45 45 46 46 47 48 49 49 49 49 48 46 46 47 46 46 46 46 45 44 43 44 44 43 45 46 47 47 48 48
31 33 34 35 35 36 38 39 40 41 43 44 45 46 47 48 48 48 48 48 48 49 50 51 51 51 50 50 49 49 49 47 46 46 46 46 46 46 47 47 47 48 48 48
38 38 38 38 40 40 41 41 41 42 42 42 43 43 44 44 45 45 46 46 45 45 46 46 46 46 47 48 48 48 48 48 47 47 46 46 46 46 46 47 46 46 46 47

GFSNGP_500_spd_123.txt.gz
Wind_Speed
16 22 12 17 21 27 17 12 19 18 21 13 19 23 28 33 25 35 29 32 32 33 31 30 30 29 29 27 28 28 29 32 35 39 40 38 39 40 39 35 35 33 30 31
10 20 14 8 18 23 9 16 22 25 21 28 26 26 27 24 32 9 26 35 28 18 18 22 25 25 25 24 25 25 25 29 35 37 38 38 39 38 33 34 35 33 31 31
8 11 3 2 11 4 21 16 18 26 32 33 34 30 27 27 30 15 14 39 39 26 22 25 26 28 27 26 25 26 25 26 30 32 34 37 36 34 31 33 32 32 32 32
10 13 12 9 11 8 5 2 10 29 30 37 39 40 32 29 24 23 3 23 30 31 31 30 30 31 29 28 28 28 27 26 27 28 31 33 32 31 32 34 35 33 33 35
12 10 9 7 13 12 9 12 17 4 31 35 37 29 22 22 19 26 26 6 5 6 24 27 25 25 26 28 27 28 29 28 28 29 30 30 30 30 30 34 35 36 33 40
14 11 12 16 12 8 9 10 10 7 21 35 39 44 35 29 26 27 16 29 33 27 11 12 17 20 20 21 24 28 29 27 29 30 30 29 29 31 31 35 36 33 30 45
16 16 14 18 9 8 9 8 7 6 1 14 25 35 40 33 25 37 32 33 32 28 15 18 18 19 20 21 23 25 28 29 29 30 30 32 35 37 37 40 39 36 36 50
19 12 17 14 9 9 8 10 8 11 8 2 11 22 41 18 9 21 24 23 21 19 20 22 21 20 21 21 23 24 24 25 28 29 29 32 36 42 43 37 43 41 39 52
20 23 18 15 12 9 7 12 11 6 11 7 5 7 20 17 13 13 15 20 21 22 24 24 24 22 22 22 25 26 28 28 27 28 30 29 31 31 45 40 35 43 47 52
22 25 22 16 14 10 8 12 21 9 1 1 5 7 7 11 15 15 19 17 21 18 21 22 20 17 19 19 22 26 30 30 29 29 28 29 24 24 24 28 31 28 44 53
24 30 27 25 22 17 11 14 15 13 12 6 1 5 7 6 10 17 20 20 19 22 25 24 24 17 18 18 18 20 23 26 27 28 29 29 29 28 29 28 37 37 45 49
20 25 29 26 20 20 18 18 21 20 12 14 10 8 2 2 3 7 8 12 16 19 20 21 16 15 16 15 18 19 21 22 21 23 21 26 29 31 34 41 36 33 42 48
18 20 22 22 22 19 20 21 22 19 19 14 17 14 9 7 3 3 5 7 9 8 6 9 9 13 15 15 15 18 19 16 17 16 17 17 21 25 25 24 40 46 38 45
16 15 21 22 19 15 19 22 25 22 20 15 18 19 14 12 9 6 8 7 5 5 7 10 10 11 13 13 11 12 12 13 16 19 17 18 17 19 19 18 19 22 26 34
9 11 12 15 15 16 17 15 17 22 23 22 20 21 13 14 19 16 10 10 10 7 7 9 12 13 13 14 13 12 11 11 13 13 12 13 13 15 15 15 14 17 18 19
13 10 11 13 16 14 13 13 13 13 16 25 29 30 21 17 19 19 18 17 17 15 13 12 13 13 14 15 16 15 14 13 13 14 15 14 13 12 12 11 10 10 11 12
14 14 13 12 16 16 17 14 15 17 18 18 26 29 26 24 23 19 18 20 20 19 18 15 16 16 15 17 17 18 18 17 17 17 16 17 18 18 18 16 17 17 17 17
16 14 13 16 16 16 18 20 18 16 17 20 20 24 28 30 24 23 25 28 21 22 20 18 19 21 19 19 19 18 19 21 21 20 20 21 22 23 24 24 25 24 24 24
20 19 19 18 18 19 17 17 20 17 16 19 22 22 25 26 34 32 25 24 24 26 27 26 24 24 22 23 23 21 21 22 23 23 21 21 22 22 24 25 27 30 31 31
20 21 21 21 20 19 22 13 14 13 17 20 22 23 26 29 30 32 34 32 33 33 31 33 30 29 29 29 31 31 28 27 27 25 25 25 26 27 28 29 31 33 34 35
18 19 20 23 22 23 21 20 19 15 16 17 19 20 22 23 22 22 26 30 35 38 36 37 37 35 35 36 37 36 36 36 32 30 30 30 31 31 33 34 37 39 41 41
17 18 20 21 21 21 24 23 23 24 25 25 26 25 24 24 25 26 27 26 28 30 32 34 35 37 38 38 39 40 39 36 37 37 36 36 36 36 36 36 38 37 38 40
23 24 25 26 28 28 27 26 28 29 30 31 32 33 33 33 33 33 32 31 30 30 32 34 35 36 36 37 40 42 42 42 43 43 43 44 44 44 44 43 42 41 40 41
30 31 31 32 33 34 35 35 35 34 34 37 39 39 39 40 41 41 41 42 42 43 44 44 45 46 48 49 49 49 51 51 51 52 51 49 47 47 47 46 45 44 43 44
29 31 33 34 35 36 37 38 39 40 41 40 41 42 43 44 44 45 46 46 46 47 48 49 50 51 52 52 52 52 53 54 54 53 52 50 50 49 49 50 49 47 47 47
31 32 33 34 35 37 38 39 41 42 42 43 44 45 46 46 47 48 49 49 50 51 52 52 53 54 54 55 54 54 53 52 53 53 53 53 52 51 50 51 50 50 49 49
35 35 35 37 38 40 41 42 42 43 44 45 46 46 47 47 47 47 47 47 48 49 49 49 50 51 50 50 51 51 50 50 49 49 50 50 51 51 51 50 50 49 48 48

GFSNGP_500_spd_126.txt.gz
Wind_Speed
10 15 17 14 14 17 25 16 8 10 11 16 11 7 14 26 23 19 19 36 29 32 34 32 31 35 32 32 33 33 32 31 31 31 33 35 36 36 39 41 41 42 42 35
6 12 16 9 15 17 17 14 13 13 15 15 16 24 19 21 12 17 15 24 38 24 26 35 35 33 30 27 25 25 26 27 29 31 33 34 36 38 39 41 41 42 40 37
8 12 15 13 13 12 11 20 12 11 19 20 16 30 25 13 13 4 5 13 28 30 30 32 26 24 22 22 22 22 23 25 26 29 32 34 36 37 39 40 42 42 38 35
9 13 15 14 13 15 9 13 12 14 20 25 31 33 30 21 17 12 2 13 16 23 32 27 22 22 25 24 24 24 23 24 25 26 28 31 34 36 38 40 41 40 38 34
10 9 12 9 8 12 14 10 13 9 8 25 31 32 27 24 15 14 10 16 7 10 11 23 26 26 25 27 26 27 27 27 26 27 28 29 31 34 35 36 36 36 37 36
15 13 12 11 11 16 10 8 8 8 5 14 25 30 32 36 26 20 16 10 9 12 15 11 14 18 23 23 22 25 28 28 27 29 30 31 31 30 32 34 35 36 36 36
17 17 16 10 11 13 10 11 5 7 6 7 15 19 25 29 31 29 22 20 25 20 22 15 6 11 16 18 20 21 24 26 28 30 29 31 29 32 31 33 36 36 34 29
21 21 21 18 14 12 10 12 5 4 6 8 1 5 5 15 18 25 23 12 17 23 22 13 15 18 21 22 21 22 24 25 24 26 28 31 30 31 32 32 36 36 33 32
20 22 25 25 15 15 11 9 15 2 2 3 7 2 5 4 10 16 18 11 17 18 18 19 21 21 22 22 21 23 25 26 28 27 29 27 27 30 33 34 36 37 37 36
25 21 24 27 22 14 12 9 9 6 5 6 3 6 4 3 9 17 14 13 14 16 15 17 18 20 18 17 19 22 24 26 28 29 32 32 31 28 30 31 29 29 32 32
25 27 24 25 26 21 18 13 8 10 11 7 6 2 2 5 5 9 17 17 16 16 13 13 12 13 16 17 18 18 21 23 24 26 29 32 34 34 32 27 28 31 32 32
22 21 23 19 23 25 20 20 17 12 12 12 11 11 9 5 4 4 5 8 11 13 12 12 13 14 18 18 16 16 17 19 20 23 25 27 28 29 30 30 30 31 29 32
19 18 19 19 19 22 22 21 22 18 13 15 13 13 14 12 8 5 3 6 6 6 7 9 10 13 12 11 10 12 15 15 17 19 21 20 15 22 21 27 27 27 29 31
15 16 17 19 18 17 21 21 22 19 15 18 16 13 17 17 14 10 7 8 7 8 6 7 9 8 8 9 10 10 12 14 13 15 15 16 17 19 19 18 20 22 20 20
17 14 14 12 13 15 14 14 16 19 20 21 21 20 17 21 18 18 18 13 14 11 8 6 4 6 8 10 13 14 12 12 13 13 12 11 12 14 15 15 14 16 18 19
22 22 12 10 8 11 12 12 14 16 16 17 20 23 22 21 22 23 18 19 17 17 15 12 10 9 9 11 13 14 15 16 16 15 15 16 16 15 15 14 13 12 13 14
24 24 17 14 7 8 11 14 15 18 19 20 20 22 27 26 24 22 21 21 21 21 19 18 18 17 15 13 14 15 17 17 19 19 19 20 19 19 19 19 19 19 18 17
22 23 20 17 13 12 13 14 16 18 19 19 22 23 24 27 28 26 28 26 27 24 21 21 21 22 20 18 18 19 20 21 20 21 23 23 24 23 24 24 24 25 24 24
20 21 21 20 18 17 17 18 17 16 16 20 23 25 26 26 28 29 33 32 31 32 29 26 25 27 28 27 25 25 25 25 26 25 23 24 25 25 24 24 24 23 24 25
11 15 18 20 21 22 21 22 19 16 17 17 18 21 24 26 27 30 33 35 38 36 34 33 31 31 32 34 34 32 31 31 31 33 31 31 29 28 27 27 29 29 30 31
12 15 16 18 19 20 22 21 22 23 21 18 18 20 22 24 25 27 28 30 34 38 40 43 42 39 38 38 38 41 41 39 38 37 37 37 37 36 35 34 33 33 34 35
19 20 19 18 18 18 20 22 24 24 23 24 25 26 25 25 26 26 28 30 30 30 30 31 34 36 36 36 36 37 41 42 41 41 38 37 36 36 37 38 38 38 39 40
21 24 26 27 27 27 27 28 26 27 29 29 29 29 30 31 33 33 33 32 32 32 32 33 34 35 35 35 36 38 38 37 37 37 36 38 38 39 42 45 45 46 46 47
29 29 30 32 33 34 34 34 34 33 33 33 34 36 36 36 36 37 39 39 40 41 42 42 41 40 41 42 42 42 42 42 43 44 46 47 47 49 51 51 52 51 52 51
29 29 30 31 32 34 34 35 36 37 37 37 38 39 40 41 42 44 44 45 45 46 46 47 47 47 47 47 48 49 49 50 50 51 52 54 55 55 55 55 55 53 52 51
31 32 32 33 34 35 37 38 39 41 42 43 44 44 43 44 45 46 46 47 48 49 49 50 51 51 51 51 51 52 53 53 53 53 54 53 53 53 53 52 51 51 50 51
29 30 31 32 33 34 35 37 39 40 42 44 45 46 47 48 48 48 48 48 49 49 49 49 48 48 48 48 48 49 50 50 51 51 51 52 52 50 50 49 49 49 48 48

GFSNGP_500_spd_129.txt.gz
Wind_Speed
26 22 20 19 17 12 17 17 27 21 16 10 15 15 17 18 19 15 8 21 16 21 21 18 21 16 25 27 31 32 35 33 31 34 37 41 42 40 41 40 42 40 39 39
15 24 19 15 14 13 17 18 20 16 11 13 14 17 13 10 9 10 15 4 14 29 32 25 23 21 28 24 24 26 27 29 32 35 37 39 40 40 38 35 43 41 41 40
12 26 21 15 15 14 17 19 20 16 13 16 19 8 10 12 16 10 12 8 6 17 39 38 37 29 30 34 32 26 26 29 31 31 32 34 35 37 38 39 38 38 39 39
14 24 19 15 14 19 12 10 17 18 16 12 16 15 22 23 23 10 10 12 5 9 22 33 31 33 30 29 30 27 25 24 26 28 31 33 34 35 35 34 30 37 37 38
15 18 19 14 12 13 12 13 12 13 10 12 7 13 8 7 7 13 14 6 6 2 13 9 22 33 31 25 23 23 23 24 23 24 26 28 28 28 30 32 36 38 36 37
18 17 16 13 15 15 16 15 14 16 16 18 13 15 21 17 21 19 19 21 10 9 15 13 5 25 25 24 23 22 21 21 23 25 25 25 27 27 28 29 31 33 34 33
22 22 22 19 16 16 14 14 13 14 17 22 23 18 17 9 5 11 15 9 9 11 10 10 11 5 20 23 23 20 20 20 21 24 26 27 27 29 28 29 30 31 32 34
25 25 24 23 20 20 17 16 16 12 15 17 20 22 16 10 7 6 10 10 10 8 7 9 12 14 10 14 16 18 19 19 19 20 21 21 24 30 31 32 31 31 34 35
24 26 24 25 25 24 19 19 17 17 12 13 12 14 6 6 10 8 8 9 10 12 11 11 15 18 18 19 18 18 20 22 21 21 22 22 22 25 28 31 34 35 33 34
27 27 27 25 26 29 27 20 17 12 17 15 11 9 5 4 0 4 4 17 13 11 10 12 15 17 19 20 21 21 22 24 25 27 27 28 28 31 31 31 31 33 35 36
34 32 28 28 28 24 29 24 21 11 8 11 9 12 9 7 6 3 11 13 14 12 11 12 15 14 14 17 18 16 15 20 26 28 28 28 28 30 33 35 36 36 36 35
34 30 23 22 22 18 23 27 24 17 11 11 9 12 15 10 6 4 2 6 12 15 15 17 16 17 14 16 18 17 17 18 20 20 22 24 24 25 27 29 30 31 35 36
18 18 18 16 17 16 16 19 27 23 17 14 13 13 15 16 12 9 5 6 8 11 14 16 17 18 15 15 15 16 16 16 17 17 19 23 23 25 27 24 24 26 24 27
15 17 15 14 14 17 18 17 21 22 20 19 18 16 14 17 19 16 14 11 9 11 13 12 11 12 13 14 16 15 14 14 14 14 16 19 18 21 22 22 24 22 20 20
16 17 16 12 14 15 16 16 18 23 23 25 22 19 20 18 21 19 19 17 12 13 15 14 14 13 13 15 17 16 15 14 13 15 14 15 15 16 17 18 18 19 19 19
16 17 18 17 15 14 15 12 13 18 22 26 26 27 27 25 21 25 25 22 19 18 19 19 16 13 13 13 13 14 15 15 17 17 18 17 18 17 19 20 19 18 17 16
18 18 21 22 22 10 11 7 7 12 18 21 21 22 25 28 28 25 28 28 26 21 21 23 24 23 21 16 17 17 17 16 17 18 19 20 21 22 23 22 22 23 22 21
18 20 21 19 17 16 15 14 11 11 13 20 23 23 24 26 28 32 31 30 30 28 24 24 26 26 25 24 23 24 24 22 22 22 21 21 22 22 24 26 27 27 28 28
14 15 19 20 20 20 19 18 18 15 14 13 20 25 27 27 27 28 30 33 33 33 32 31 32 31 29 28 28 28 29 28 27 27 27 27 27 27 26 27 28 29 27 27
8 8 11 14 17 21 24 24 22 23 20 17 16 19 21 24 26 27 27 29 33 35 38 35 37 36 34 34 34 33 33 33 34 34 34 34 34 35 35 34 33 31 31 31
11 12 12 14 16 18 19 21 23 24 24 23 22 20 22 22 22 24 25 27 28 30 32 35 41 44 43 40 40 39 39 40 40 39 41 43 41 41 40 39 43 42 38 37
15 19 21 24 23 24 24 23 23 23 24 25 26 27 27 26 28 29 29 30 30 31 32 34 34 35 38 39 41 45 47 48 46 45 45 45 45 46 45 42 41 40 39 39
20 23 25 27 29 30 30 31 31 32 32 31 31 31 32 33 33 34 34 34 34 35 34 35 34 35 37 37 37 38 39 40 42 43 43 41 41 43 43 41 40 37 37 37
29 31 32 32 32 32 32 33 34 36 37 38 38 38 38 38 39 40 41 40 40 40 40 40 39 40 41 40 40 40 40 40 40 40 42 41 41 42 42 41 42 43 43 43
29 30 30 31 32 32 33 34 35 36 36 37 38 39 39 39 40 41 43 44 46 46 46 46 46 46 46 47 47 47 46 46 46 46 47 47 47 48 48 47 47 49 51 51
29 29 29 30 30 31 32 33 35 36 38 40 41 42 43 44 45 46 46 47 47 48 48 49 51 51 50 50 50 50 51 51 51 51 52 52 52 53 53 52 52 52 53 52
25 25 26 26 27 27 27 27 29 32 35 38 40 43 45 47 48 49 50 51 51 51 51 51 51 52 52 53 53 53 53 53 53 53 53 53 53 52 52 52 52 52 52 52

GFSNGP_500_spd_132.txt.gz
Wind_Speed
25 31 34 34 27 24 24 21 24 21 24 15 11 15 15 16 18 20 18 10 13 8 14 26 30 29 30 28 31 31 33 35 37 40 38 31 31 30 32 33 36 37 38 39
24 31 33 32 24 20 22 21 21 21 24 18 8 7 18 17 13 16 23 8 3 16 9 15 18 22 24 20 28 29 29 32 37 38 36 35 37 42 38 36 36 38 41 39
26 30 32 29 21 20 18 16 21 19 20 17 9 12 15 19 21 14 18 11 10 6 17 25 17 17 15 15 19 24 25 26 27 34 38 35 34 34 35 36 38 40 41 41
26 29 29 22 21 18 17 20 21 17 13 20 12 5 5 6 8 14 16 9 11 5 7 16 20 23 20 20 18 23 27 25 21 23 25 28 29 32 34 35 36 39 42 37
26 26 23 21 24 19 17 19 20 18 16 13 17 12 10 8 8 22 22 19 7 13 9 1 6 23 28 27 26 23 26 27 22 23 27 29 30 31 31 32 33 34 38 37
26 25 20 18 23 23 21 21 23 21 20 18 15 17 14 21 21 22 12 14 14 14 14 13 3 9 16 22 20 18 19 22 28 28 27 28 30 30 30 30 30 32 35 37
26 24 21 22 25 25 24 20 22 21 18 16 17 18 17 18 17 13 13 9 9 13 17 14 5 4 11 18 21 21 21 21 22 25 27 27 26 26 26 25 25 26 28 30
29 25 24 23 22 24 26 26 22 21 19 17 14 13 11 13 14 16 15 14 12 10 11 10 8 8 3 13 18 28 24 20 19 19 19 21 24 26 26 25 25 26 26 27
29 25 27 26 24 24 26 28 27 20 20 21 17 10 7 9 14 18 19 19 15 14 13 12 12 13 12 10 12 18 22 21 20 20 20 20 20 21 22 22 23 25 27 30
29 27 28 28 28 27 27 29 29 27 21 20 20 15 9 8 12 13 18 19 18 20 17 16 15 16 16 19 21 19 18 18 20 20 22 22 22 24 25 25 26 27 28 28
31 29 34 35 35 32 30 30 27 28 25 20 14 15 13 11 9 8 12 14 16 20 15 14 15 16 17 17 19 22 22 23 23 23 23 26 27 27 28 30 32 33 34 34
33 36 37 34 31 28 27 27 25 25 28 21 17 15 14 16 14 11 10 12 17 19 18 17 17 16 17 16 16 20 20 20 21 22 23 25 29 31 32 31 31 32 34 35
32 32 28 21 22 21 18 20 22 22 26 27 22 19 16 16 20 16 14 12 11 12 16 17 18 20 20 20 19 20 21 21 20 19 20 22 25 27 26 26 28 29 29 29
28 24 17 17 18 18 18 20 21 23 21 30 26 23 23 20 16 21 19 18 16 14 12 14 16 19 19 20 20 20 21 21 20 20 21 20 19 20 21 23 24 23 22 23
18 14 13 15 16 13 14 16 20 23 24 24 25 27 26 25 24 20 23 23 22 19 15 16 16 18 19 19 19 20 21 22 21 21 20 20 17 16 15 17 16 16 17 18
12 12 15 16 17 18 20 19 18 19 23 25 27 29 29 28 28 28 23 26 26 25 23 20 19 19 19 19 21 21 22 23 24 25 24 22 20 20 19 18 18 18 20 21
13 12 16 19 19 19 20 15 12 14 14 18 24 28 32 34 35 32 31 28 29 30 28 25 24 24 23 22 21 20 21 23 24 25 24 22 22 22 22 22 22 22 23 24
15 16 16 16 16 19 19 14 14 13 13 14 15 22 25 28 30 31 31 33 34 33 35 33 31 30 29 30 30 29 28 27 26 26 25 24 23 22 23 23 24 25 26 26
13 14 14 13 15 15 16 17 17 17 16 15 14 14 20 26 29 30 30 30 31 34 36 38 36 36 35 34 34 33 33 32 31 32 31 29 27 27 27 28 28 28 28 28
10 10 9 10 12 14 17 21 23 25 26 25 22 20 22 21 23 26 30 32 31 31 31 34 39 41 42 40 40 39 39 37 37 37 36 36 34 33 32 32 34 34 34 35
14 14 14 13 14 15 17 20 21 23 25 26 27 26 26 26 26 26 27 30 30 29 31 32 31 33 40 45 45 45 46 45 44 43 43 41 40 40 39 40 40 41 43 44
17 18 20 21 23 25 27 27 27 29 29 29 30 29 29 29 30 29 30 31 32 33 34 34 34 35 35 35 37 40 44 46 47 48 47 47 46 45 45 46 45 45 46 47
27 28 30 31 32 33 34 35 36 36 35 35 35 36 38 38 37 36 36 36 36 36 37 38 38 39 39 39 40 40 41 41 42 42 44 45 45 46 46 46 46 47 46 45
25 26 28 29 30 31 32 32 33 34 36 37 38 38 39 40 41 43 44 43 43 43 43 43 44 43 43 43 43 44 43 43 43 43 43 43 43 43 43 44 44 44 44 44
23 26 27 27 28 30 31 32 33 34 35 36 37 38 40 42 43 45 45 46 47 48 47 47 47 47 47 49 49 49 49 48 48 48 48 48 48 48 47 47 47 48 47 47
24 25 24 23 23 23 24 26 28 29 30 32 35 37 39 41 42 45 47 49 50 51 51 52 52 52 52 52 52 52 52 52 52 51 51 51 51 51 51 50 50 51 51 51
27 27 27 26 25 24 25 27 29 31 33 37 41 44 47 49 50 51 52 51 51 51 53 54 55 55 55 55 55 55 56 56 56 55 55 55 55 54 54 53 53 53 53 53

GFSNGP_500_spd_135.txt.gz
Wind_Speed
25 27 27 27 29 32 31 30 31 29 27 24 20 16 11 13 21 27 22 18 16 6 11 27 14 18 18 17 21 21 40 46 29 28 35 44 62 50 47 49 50 40 39 42
25 27 27 28 29 30 28 27 27 27 26 25 24 21 15 11 19 23 18 13 18 15 2 16 29 22 23 19 24 18 31 31 38 37 25 27 31 30 37 32 26 27 39 35
25 26 28 29 30 28 29 24 25 23 24 21 20 23 12 5 15 16 16 14 12 16 11 9 24 27 29 27 25 26 22 16 22 25 25 25 26 26 29 28 30 28 27 27
26 26 29 29 28 28 27 22 21 22 22 19 17 15 17 9 7 12 13 16 14 15 14 6 8 18 17 13 13 12 14 16 18 18 17 18 22 26 26 27 28 29 31 32
26 28 29 28 28 27 26 23 23 22 24 19 17 16 18 15 11 11 15 17 18 15 17 13 7 7 16 18 15 9 8 12 12 15 17 15 19 26 28 32 32 31 31 32
29 29 28 28 26 25 25 24 24 26 26 25 25 21 18 15 13 17 13 12 12 13 17 13 13 13 7 18 19 19 17 16 19 20 19 19 20 23 25 26 28 30 32 34
29 29 29 29 29 27 25 25 25 29 27 23 21 22 18 14 14 15 14 13 15 12 11 5 6 7 6 12 22 19 18 16 15 18 27 25 24 22 21 23 26 29 31 31
29 29 29 30 30 30 27 25 25 29 28 25 19 18 16 15 14 12 14 16 20 17 15 10 8 7 9 8 17 18 19 19 18 18 22 24 24 23 23 24 25 26 27 28
29 30 32 33 31 32 27 26 25 27 29 26 19 18 18 17 17 17 20 20 18 21 20 14 17 17 14 12 11 15 21 22 20 18 17 18 19 21 22 23 25 26 27 27
32 31 34 35 34 33 30 30 32 29 28 29 24 20 20 21 18 18 19 19 21 21 23 18 20 19 18 16 17 15 15 15 19 20 19 19 19 19 20 21 23 23 25 26
31 32 35 34 35 36 37 37 37 34 31 27 27 23 23 23 21 18 13 12 14 21 25 22 22 22 21 20 20 20 20 19 18 19 20 20 23 23 22 23 24 24 26 27
31 34 34 35 36 35 34 32 30 28 26 26 24 26 23 21 20 20 16 12 10 14 23 23 22 20 21 22 23 22 22 23 24 23 23 23 24 25 26 26 26 28 29 31
34 30 30 31 32 30 26 21 21 22 24 24 25 27 26 23 21 19 22 18 14 12 14 20 25 23 23 24 25 25 24 25 25 26 27 25 25 26 27 28 28 30 31 32
26 26 26 24 21 19 17 17 19 21 23 24 27 27 31 26 26 21 21 23 22 18 17 17 17 21 25 25 27 27 26 25 26 26 27 25 24 26 26 27 29 28 28 28
21 20 18 16 13 14 15 15 14 15 20 24 27 27 29 30 28 25 22 23 25 24 22 20 19 19 20 22 22 25 27 26 25 26 27 27 25 25 25 25 24 23 24 23
15 13 13 13 13 14 16 18 18 20 20 21 23 26 28 31 30 30 28 26 29 26 28 25 24 23 22 23 23 23 25 26 27 27 26 26 27 27 26 25 24 23 22 22
15 16 15 15 16 18 19 21 20 18 14 17 20 23 26 30 33 32 32 31 29 30 30 30 29 28 27 26 25 23 22 24 25 27 26 27 28 28 28 27 26 27 26 26
14 15 15 16 16 17 18 18 19 16 12 15 14 15 15 20 25 29 31 33 34 34 32 35 34 35 32 31 31 31 29 28 27 25 25 26 27 27 27 26 26 28 27 28
13 13 14 14 13 12 13 15 17 18 18 19 17 17 17 17 16 20 26 29 31 32 33 33 34 36 38 39 37 37 37 36 35 34 33 32 32 31 31 30 29 29 29 29
14 15 15 14 13 14 14 16 18 19 21 24 25 26 27 25 24 24 24 24 27 30 32 33 33 34 36 38 41 44 43 42 41 40 39 39 39 37 37 37 37 35 35 34
13 15 17 18 19 20 21 23 25 27 27 26 27 27 28 30 31 31 31 30 30 29 30 31 33 34 36 37 38 39 43 48 48 47 46 45 44 44 43 43 43 43 43 43
21 24 26 27 29 30 31 32 34 34 35 35 34 33 33 34 35 35 35 35 34 34 34 35 35 35 36 37 38 39 40 39 41 45 49 51 50 49 48 49 49 48 47 47
21 19 19 21 24 27 29 30 32 32 33 34 35 35 36 37 38 38 40 41 42 43 42 41 41 41 41 41 41 41 42 42 43 43 44 44 45 46 47 49 48 48 48 48
18 20 21 22 22 23 23 23 25 27 29 31 33 34 35 37 38 40 41 42 44 45 47 48 48 47 46 46 46 47 46 46 46 46 47 47 48 47 47 47 47 47 48 48
20 22 24 25 25 24 23 23 22 22 23 26 28 31 33 35 38 40 42 44 46 48 49 50 51 51 52 51 51 50 51 51 52 52 52 51 51 51 51 51 50 49 49 49
23 25 26 27 27 27 26 26 25 26 27 28 30 32 36 38 41 44 46 49 50 51 52 52 53 54 55 55 55 55 55 54 54 54 55 55 55 56 56 56 56 56 56 56
24 27 28 29 29 30 30 30 30 30 31 32 34 35 39 41 46 45 43 45 48 51 54 55 56 57 57 57 57 57 58 59 58 58 58 57 57 57 58 58 59 59 59 59

GFSNGP_500_spd_138.txt.gz
Wind_Speed
37 36 26 24 24 24 25 28 29 31 33 30 23 19 21 23 24 22 24 22 20 25 22 8 29 31 27 29 36 39 40 40 40 42 42 43 48 52 46 48 51 54 54 51
33 30 24 24 23 25 26 27 28 30 31 27 24 20 21 24 23 22 21 26 15 20 24 13 9 21 18 29 37 43 41 44 40 29 36 42 49 58 52 44 52 51 47 51
32 26 24 24 23 25 26 27 28 29 27 26 22 23 22 22 23 23 16 21 12 18 17 16 4 22 25 26 29 18 9 17 31 33 18 35 43 52 55 47 61 57 47 45
28 25 26 23 24 24 26 27 29 28 26 26 24 23 20 20 22 26 16 19 20 21 18 23 13 7 12 27 25 24 21 17 20 29 21 15 11 21 31 31 41 62 46 36
26 22 24 24 24 26 28 29 30 28 27 28 25 26 21 21 21 23 23 16 18 19 13 17 14 14 7 12 21 17 14 16 18 18 12 9 9 12 14 16 17 18 28 29
22 23 24 24 25 27 29 31 28 29 30 30 29 27 26 25 22 21 27 24 20 17 11 12 13 8 9 6 14 14 15 13 11 11 12 13 13 13 15 18 20 21 23 26
23 22 24 25 26 28 30 30 29 31 31 29 29 30 26 29 28 26 21 22 22 22 21 12 9 10 9 8 8 16 15 16 15 16 17 15 16 17 17 18 19 21 22 24
22 23 26 26 29 30 31 32 34 34 30 29 29 30 29 26 28 28 24 22 22 20 20 18 16 13 12 10 10 12 16 12 12 12 13 17 22 18 17 17 17 18 20 22
22 24 26 29 31 32 34 36 35 33 29 29 29 28 29 29 30 26 24 24 24 22 22 24 23 23 17 15 14 12 15 17 14 15 15 15 16 19 21 22 22 21 22 23
24 23 28 30 32 36 38 38 36 34 33 33 34 32 28 30 29 28 24 23 22 23 23 23 25 24 22 22 19 16 15 16 21 19 16 15 17 20 22 24 26 28 27 28
23 26 30 33 35 37 37 37 36 37 38 38 38 36 31 31 30 27 27 24 21 18 19 23 25 27 24 23 25 22 20 18 18 20 23 22 21 22 24 24 24 25 26 27
24 29 32 35 36 35 35 36 36 35 35 34 30 28 28 29 31 28 28 24 24 19 15 18 24 26 25 24 26 25 23 22 23 22 22 23 23 24 26 26 27 26 25 25
27 30 33 33 32 33 33 32 30 27 24 20 22 23 25 27 29 30 27 21 25 24 19 14 17 23 27 25 25 26 26 25 25 26 26 25 25 25 24 25 25 26 26 26
29 29 28 29 29 27 25 23 18 13 15 16 18 21 23 26 29 31 29 24 23 26 24 20 16 16 18 25 27 27 29 26 27 26 28 28 28 27 27 27 26 27 27 28
23 23 25 23 19 19 19 16 12 14 14 16 17 19 22 24 26 28 32 30 28 24 26 25 23 21 19 19 20 24 29 27 27 29 27 28 31 29 27 26 26 28 29 29
17 17 18 19 19 18 17 14 14 16 18 18 18 19 20 22 24 26 29 31 31 28 25 27 26 25 25 24 22 22 23 26 26 27 29 29 29 30 30 29 29 29 29 29
14 15 17 17 17 18 18 19 20 20 20 19 11 12 16 20 21 22 25 29 31 32 30 26 27 29 30 29 29 27 26 26 28 28 28 29 30 31 31 32 31 31 32 32
9 13 13 14 15 16 17 17 18 17 19 18 16 15 16 17 17 18 18 21 25 31 32 32 31 29 31 33 34 32 31 30 29 29 29 29 29 30 31 32 33 33 34 34
11 12 14 15 16 16 15 15 15 17 18 20 20 21 21 20 21 21 20 20 20 22 26 29 32 32 32 32 34 37 39 37 35 34 35 35 34 33 33 33 34 34 34 34
10 12 14 17 19 19 19 20 21 22 23 24 25 25 25 25 25 26 27 27 27 27 26 26 27 29 31 33 34 35 36 39 42 43 42 40 40 40 41 40 40 39 39 38
12 15 21 25 24 23 24 26 28 30 32 32 33 33 33 32 31 32 32 33 33 33 34 34 33 34 33 33 33 35 36 37 38 39 42 44 46 46 45 45 45 44 42 42
16 22 20 18 19 20 20 21 23 24 26 28 30 32 34 35 36 37 38 38 39 39 40 40 40 39 39 39 38 38 38 39 40 41 41 41 42 44 47 49 50 50 50 49
20 16 17 17 18 20 21 21 22 22 22 22 23 24 25 27 30 33 35 37 39 41 43 44 45 46 47 46 44 44 44 44 43 43 43 43 44 45 45 45 45 46 46 47
15 17 18 19 21 22 22 22 23 23 23 24 24 25 26 27 29 30 33 36 39 41 44 46 48 48 49 49 50 50 50 49 49 49 48 48 48 48 48 48 48 49 48 48
16 17 20 22 24 25 25 26 26 26 27 27 28 28 29 30 33 35 37 40 40 44 47 49 50 51 52 53 53 53 53 53 53 53 53 53 53 53 53 53 53 53 52 52
15 18 21 23 24 26 26 27 28 29 30 31 31 31 32 32 36 37 41 41 47 47 44 44 48 52 54 55 55 56 56 56 56 56 56 56 56 56 56 57 57 57 57 57
16 19 22 23 24 26 27 27 28 29 30 32 33 34 35 35 38 39 42 42 47 41 36 35 35 37 41 46 51 56 58 59 59 59 59 58 58 58 59 59 59 59 60 60